[[{"header":{"parameterUnit":"m.s-1","parameterCategory":1,"la1":30.6,"la2":29.2853,"lo1":-89.7004,"lo2":-87.6739,"dy":0.0162,"dx":0.0183,"nx":112,"ny":82,"refTime":"2024-08-14T18:00:00:Z","depth":0,"parameterNumber":2,"parameterNumberName":"U-component_of_WINDS"},"data":[0.0,0.0,0.0,0.0,0.0,0.0,0.0,0.0,0.0,0.0,0.0,0.0,0.0,0.0,0.0,0.0,0.0,0.0,0.0,0.0,0.0,0.0,0.0,0.0,0.0,0.0,0.0,0.0,0.0,0.0,0.0,0.0,0.0,0.0,0.0,0.0,0.0,0.0,0.0,0.0,0.0,0.0,0.0,0.0,0.0,0.0,0.0,0.0,0.0,0.0,0.0,0.0,0.0,0.0,0.0,0.0,0.0,0.0,0.0,0.0,0.0,0.0,0.0,0.0,0.0,0.0,0.0,0.0,0.0,0.0,0.0,0.0,0.0,0.0,0.0,0.0,0.0,0.0,0.0,0.0,0.0,0.0,0.0,0.0,0.0,0.0,0.0,0.0,0.0,0.0,-2.1816,-2.2477,-2.3008,-2.3319,-2.3319,-2.286,-2.2014,-2.0811,0.0,0.0,0.0,0.0,0.0,0.0,0.0,0.0,0.0,0.0,0.0,0.0,0.0,0.0,0.0,0.0,0.0,0.0,0.0,0.0,0.0,0.0,0.0,0.0,0.0,0.0,0.0,0.0,0.0,0.0,0.0,0.0,0.0,0.0,0.0,0.0,0.0,0.0,0.0,0.0,0.0,0.0,0.0,0.0,0.0,0.0,0.0,0.0,0.0,0.0,0.0,0.0,0.0,0.0,0.0,0.0,0.0,0.0,0.0,0.0,0.0,0.0,0.0,0.0,0.0,0.0,0.0,0.0,0.0,0.0,0.0,0.0,0.0,0.0,0.0,0.0,0.0,0.0,0.0,0.0,0.0,0.0,0.0,0.0,0.0,0.0,0.0,0.0,0.0,0.0,0.0,0.0,0.0,0.0,0.0,0.0,0.0,0.0,0.0,0.0,0.0,0.0,0.0,0.0,-2.1098,-2.1787,-2.1923,-2.1979,-2.1979,-2.1885,-2.1338,-2.0114,0.0,0.0,0.0,0.0,0.0,0.0,0.0,0.0,0.0,0.0,0.0,0.0,0.0,0.0,0.0,0.0,0.0,0.0,0.0,0.0,0.0,0.0,0.0,0.0,0.0,0.0,0.0,0.0,0.0,0.0,0.0,0.0,0.0,0.0,0.0,0.0,0.0,0.0,0.0,0.0,0.0,0.0,0.0,0.0,0.0,0.0,0.0,0.0,0.0,0.0,0.0,0.0,0.0,0.0,0.0,0.0,0.0,0.0,0.0,0.0,0.0,0.0,0.0,0.0,0.0,0.0,0.0,0.0,0.0,0.0,0.0,0.0,0.0,0.0,0.0,0.0,0.0,0.0,0.0,0.0,0.0,0.0,0.0,0.0,0.0,0.0,0.0,0.0,0.0,0.0,0.0,0.0,0.0,0.0,0.0,0.0,0.0,0.0,0.0,0.0,0.0,0.0,0.0,-2.0422,-2.1058,-2.1661,-2.1697,-2.1697,-2.1697,-2.1376,-2.0698,-1.9543,-1.9653,0.0,0.0,0.0,0.0,0.0,0.0,0.0,0.0,0.0,0.0,0.0,0.0,0.0,0.0,0.0,0.0,0.0,0.0,0.0,0.0,0.0,0.0,0.0,0.0,0.0,0.0,0.0,0.0,0.0,0.0,0.0,0.0,0.0,0.0,0.0,0.0,0.0,0.0,0.0,0.0,0.0,0.0,0.0,0.0,0.0,0.0,0.0,0.0,0.0,0.0,0.0,0.0,0.0,0.0,0.0,0.0,0.0,0.0,0.0,0.0,0.0,0.0,0.0,0.0,0.0,0.0,0.0,0.0,0.0,0.0,0.0,0.0,0.0,0.0,0.0,0.0,0.0,0.0,0.0,0.0,0.0,0.0,0.0,0.0,0.0,0.0,0.0,0.0,0.0,0.0,0.0,0.0,0.0,0.0,0.0,0.0,0.0,0.0,0.0,0.0,0.0,0.0,-2.0281,-2.0806,-2.1226,-2.1232,-2.1232,-2.1232,-2.0699,-1.9969,-1.8937,-1.8721,0.0,0.0,0.0,0.0,0.0,0.0,0.0,0.0,0.0,0.0,0.0,0.0,0.0,0.0,0.0,0.0,0.0,0.0,0.0,0.0,0.0,0.0,0.0,0.0,0.0,0.0,0.0,0.0,0.0,0.0,0.0,0.0,0.0,0.0,0.0,0.0,0.0,0.0,0.0,0.0,0.0,0.0,0.0,0.0,0.0,0.0,0.0,0.0,0.0,0.0,0.0,0.0,0.0,0.0,0.0,0.0,0.0,0.0,0.0,0.0,0.0,0.0,0.0,0.0,0.0,0.0,0.0,0.0,0.0,0.0,0.0,0.0,0.0,0.0,0.0,0.0,0.0,0.0,0.0,0.0,0.0,0.0,0.0,0.0,0.0,0.0,0.0,0.0,0.0,0.0,0.0,0.0,0.0,0.0,0.0,0.0,0.0,0.0,0.0,0.0,0.0,0.0,-1.9551,-1.9902,-1.994,-1.994,-1.994,-1.994,-1.9459,-1.8881,-1.8289,-1.7806,0.0,0.0,0.0,0.0,0.0,0.0,0.0,0.0,0.0,0.0,0.0,0.0,0.0,0.0,0.0,0.0,0.0,0.0,0.0,0.0,0.0,0.0,0.0,0.0,0.0,0.0,0.0,0.0,0.0,0.0,0.0,0.0,0.0,0.0,0.0,0.0,0.0,0.0,0.0,0.0,0.0,0.0,0.0,0.0,0.0,0.0,0.0,0.0,0.0,0.0,0.0,0.0,0.0,0.0,0.0,0.0,0.0,0.0,0.0,0.0,0.0,0.0,0.0,0.0,0.0,0.0,0.0,0.0,0.0,0.0,0.0,0.0,0.0,0.0,0.0,0.0,0.0,0.0,0.0,0.0,0.0,0.0,0.0,0.0,0.0,0.0,0.0,0.0,0.0,0.0,0.0,0.0,0.0,0.0,0.0,0.0,0.0,0.0,0.0,0.0,0.0,0.0,-1.8942,-1.9447,-1.9761,-1.9798,-1.9798,-1.9798,-1.9623,-1.9133,-1.8267,0.0,0.0,0.0,0.0,0.0,0.0,0.0,0.0,0.0,0.0,0.0,0.0,0.0,0.0,0.0,0.0,0.0,0.0,0.0,0.0,0.0,0.0,0.0,0.0,0.0,0.0,0.0,0.0,0.0,0.0,0.0,0.0,0.0,0.0,0.0,0.0,0.0,0.0,0.0,0.0,0.0,0.0,0.0,0.0,0.0,0.0,0.0,0.0,0.0,0.0,0.0,0.0,0.0,0.0,0.0,0.0,0.0,0.0,0.0,0.0,0.0,0.0,0.0,0.0,0.0,0.0,0.0,0.0,0.0,0.0,0.0,0.0,0.0,0.0,0.0,0.0,0.0,0.0,0.0,0.0,0.0,0.0,0.0,0.0,0.0,0.0,0.0,0.0,0.0,0.0,0.0,0.0,0.0,0.0,0.0,0.0,0.0,0.0,0.0,0.0,0.0,0.0,-1.8201,-1.8832,-1.9409,-1.9761,-1.9798,-1.9798,-1.9798,-1.9497,-1.8982,-1.8254,0.0,0.0,0.0,0.0,0.0,0.0,0.0,0.0,0.0,0.0,0.0,0.0,0.0,0.0,0.0,0.0,0.0,0.0,0.0,0.0,0.0,0.0,0.0,0.0,0.0,0.0,0.0,0.0,0.0,0.0,0.0,0.0,0.0,0.0,0.0,0.0,0.0,0.0,0.0,0.0,0.0,0.0,0.0,0.0,0.0,0.0,0.0,0.0,0.0,0.0,0.0,0.0,0.0,0.0,0.0,0.0,0.0,0.0,0.0,0.0,0.0,0.0,0.0,0.0,0.0,0.0,0.0,0.0,0.0,0.0,0.0,0.0,0.0,0.0,0.0,0.0,0.0,0.0,0.0,0.0,0.0,0.0,0.0,0.0,0.0,0.0,0.0,0.0,0.0,0.0,0.0,0.0,0.0,0.0,0.0,0.0,0.0,0.0,0.0,0.0,0.0,0.0,-1.8204,-1.9145,-1.9798,-1.9798,-1.9798,-1.9798,-1.9798,-1.8832,-1.8216,0.0,0.0,0.0,0.0,0.0,0.0,0.0,0.0,0.0,0.0,0.0,0.0,0.0,0.0,0.0,0.0,0.0,0.0,0.0,0.0,0.0,0.0,0.0,0.0,0.0,0.0,0.0,0.0,0.0,0.0,0.0,0.0,0.0,0.0,0.0,0.0,0.0,0.0,0.0,0.0,0.0,0.0,0.0,0.0,0.0,0.0,0.0,0.0,0.0,0.0,0.0,0.0,0.0,0.0,0.0,0.0,0.0,0.0,0.0,0.0,0.0,0.0,0.0,0.0,0.0,0.0,0.0,0.0,0.0,0.0,0.0,0.0,0.0,0.0,0.0,0.0,0.0,0.0,0.0,0.0,0.0,0.0,0.0,0.0,0.0,0.0,0.0,0.0,0.0,0.0,0.0,0.0,0.0,0.0,0.0,0.0,0.0,0.0,0.0,0.0,0.0,0.0,0.0,-1.8204,-1.9145,-1.9798,-1.9798,-1.9798,-1.9798,-1.9798,-1.9183,-1.8618,-1.8229,0.0,0.0,0.0,0.0,0.0,0.0,0.0,0.0,0.0,0.0,0.0,0.0,0.0,0.0,0.0,0.0,0.0,0.0,0.0,0.0,0.0,0.0,0.0,0.0,0.0,0.0,0.0,0.0,0.0,0.0,0.0,0.0,0.0,0.0,0.0,0.0,0.0,0.0,0.0,0.0,0.0,0.0,0.0,0.0,0.0,0.0,0.0,0.0,0.0,0.0,0.0,0.0,0.0,0.0,0.0,0.0,0.0,0.0,0.0,0.0,0.0,0.0,0.0,0.0,0.0,0.0,0.0,0.0,0.0,0.0,0.0,0.0,0.0,0.0,0.0,0.0,0.0,0.0,0.0,0.0,0.0,0.0,0.0,0.0,0.0,0.0,0.0,0.0,0.0,0.0,0.0,0.0,0.0,0.0,0.0,0.0,0.0,0.0,0.0,0.0,0.0,0.0,-1.8204,-1.9145,-1.9798,-1.9798,-1.9798,-1.9798,-1.9798,-1.912,-1.8555,-1.8229,0.0,0.0,0.0,0.0,0.0,0.0,0.0,0.0,0.0,0.0,0.0,0.0,0.0,0.0,0.0,0.0,0.0,0.0,0.0,0.0,0.0,0.0,0.0,0.0,0.0,0.0,0.0,0.0,0.0,0.0,0.0,0.0,0.0,0.0,0.0,0.0,0.0,0.0,0.0,0.0,0.0,0.0,0.0,0.0,0.0,0.0,0.0,0.0,0.0,0.0,0.0,0.0,0.0,0.0,0.0,0.0,0.0,0.0,0.0,0.0,0.0,0.0,0.0,0.0,0.0,0.0,0.0,0.0,0.0,0.0,0.0,0.0,0.0,0.0,0.0,0.0,0.0,0.0,0.0,0.0,0.0,0.0,0.0,0.0,0.0,0.0,0.0,0.0,0.0,0.0,0.0,0.0,0.0,0.0,0.0,0.0,0.0,0.0,0.0,0.0,0.0,0.0,-1.8204,-1.9145,-1.9798,-1.9798,-1.9798,-1.9798,-1.9798,-1.8869,-1.8254,-1.8204,0.0,0.0,0.0,0.0,0.0,0.0,0.0,0.0,0.0,0.0,0.0,0.0,0.0,0.0,0.0,0.0,0.0,0.0,0.0,0.0,0.0,0.0,0.0,0.0,0.0,0.0,0.0,0.0,0.0,0.0,0.0,0.0,0.0,0.0,0.0,0.0,0.0,0.0,0.0,0.0,0.0,0.0,0.0,0.0,0.0,0.0,0.0,0.0,0.0,0.0,0.0,0.0,0.0,0.0,0.0,0.0,0.0,0.0,0.0,0.0,-1.4891,-1.5127,0.0,0.0,0.0,0.0,0.0,0.0,0.0,0.0,0.0,0.0,0.0,0.0,0.0,0.0,0.0,0.0,0.0,0.0,0.0,0.0,0.0,0.0,0.0,0.0,0.0,0.0,0.0,0.0,0.0,0.0,0.0,0.0,0.0,0.0,0.0,0.0,0.0,0.0,0.0,0.0,-1.8204,-1.9145,-1.9798,-1.9798,-1.9798,-1.9798,-1.9798,-1.9221,-1.8668,-1.8229,-1.7576,0.0,0.0,0.0,0.0,0.0,0.0,0.0,0.0,0.0,0.0,0.0,0.0,0.0,0.0,0.0,0.0,0.0,0.0,0.0,0.0,0.0,0.0,0.0,0.0,0.0,0.0,0.0,0.0,0.0,0.0,0.0,0.0,0.0,0.0,0.0,0.0,0.0,0.0,0.0,0.0,0.0,0.0,0.0,0.0,0.0,0.0,0.0,0.0,0.0,0.0,0.0,0.0,0.0,0.0,0.0,0.0,0.0,0.0,0.0,-1.5363,-1.5608,0.0,0.0,0.0,0.0,0.0,0.0,0.0,0.0,0.0,0.0,0.0,0.0,0.0,0.0,0.0,0.0,0.0,0.0,0.0,0.0,0.0,0.0,0.0,0.0,0.0,0.0,0.0,0.0,0.0,0.0,0.0,0.0,0.0,0.0,0.0,0.0,0.0,0.0,0.0,0.0,-1.8204,-1.9145,-1.9798,-1.9798,-1.9798,-1.9798,-1.9798,-1.9334,-1.8635,-1.7823,-1.7223,0.0,0.0,0.0,0.0,0.0,0.0,0.0,0.0,0.0,0.0,0.0,0.0,0.0,0.0,0.0,0.0,0.0,0.0,0.0,0.0,0.0,0.0,0.0,0.0,0.0,0.0,0.0,0.0,0.0,0.0,0.0,0.0,0.0,0.0,0.0,0.0,0.0,0.0,0.0,0.0,0.0,0.0,0.0,0.0,0.0,0.0,0.0,0.0,0.0,0.0,0.0,0.0,0.0,-1.5893,-1.5736,-1.5831,-1.6186,-1.6145,-1.5819,-1.5467,-1.5768,-1.6484,-1.6019,0.0,0.0,0.0,0.0,0.0,0.0,0.0,0.0,0.0,0.0,0.0,0.0,0.0,0.0,0.0,0.0,0.0,0.0,0.0,0.0,0.0,0.0,-1.7187,-1.8129,-1.8342,-1.838,-1.8468,0.0,0.0,0.0,0.0,0.0,0.0,0.0,0.0,0.0,0.0,0.0,-1.8355,-1.9296,-1.9911,-1.9811,-1.9683,-1.9592,-1.9592,-1.9092,-1.8298,-1.7298,-1.6739,-1.5788,0.0,0.0,0.0,0.0,0.0,0.0,0.0,0.0,0.0,0.0,0.0,0.0,0.0,0.0,0.0,0.0,0.0,0.0,0.0,0.0,0.0,0.0,0.0,0.0,0.0,0.0,0.0,0.0,0.0,0.0,0.0,0.0,-1.0122,-1.1327,0.0,0.0,0.0,0.0,0.0,0.0,0.0,0.0,0.0,0.0,0.0,0.0,0.0,-1.5971,-1.5769,-1.6035,-1.6279,-1.6481,-1.6418,-1.6376,-1.6409,-1.6451,-1.6451,-1.6434,-1.6861,0.0,-1.6509,-1.6434,0.0,0.0,0.0,0.0,0.0,0.0,0.0,0.0,0.0,0.0,0.0,0.0,0.0,0.0,0.0,0.0,0.0,0.0,0.0,0.0,0.0,0.0,-1.8682,-1.8833,-1.887,-1.9045,-1.9497,-1.8857,-1.8179,-1.8116,-1.8091,-1.8078,0.0,0.0,0.0,0.0,0.0,0.0,-1.8933,-1.9874,-2.0363,-1.9861,-1.9202,-1.8874,-1.8874,-1.8174,-1.7546,-1.6879,-1.6789,-1.6457,-1.5748,-1.4832,0.0,0.0,0.0,0.0,0.0,0.0,0.0,0.0,0.0,0.0,0.0,0.0,0.0,0.0,0.0,0.0,0.0,0.0,0.0,0.0,0.0,0.0,0.0,0.0,0.0,0.0,0.0,0.0,0.0,-0.9839,-1.1101,-1.1958,-1.2118,-1.2382,0.0,0.0,0.0,0.0,0.0,0.0,0.0,0.0,0.0,-1.5369,-1.598,-1.6263,-1.6158,-1.6312,-1.6439,-1.6522,-1.6522,-1.6522,-1.6522,-1.6861,-1.6999,-1.7036,-1.7601,-1.7702,-1.7463,-1.7463,-1.7463,-1.7463,0.0,0.0,0.0,0.0,-1.7626,-1.7852,-1.7915,-1.789,-1.7852,-1.7915,0.0,0.0,0.0,0.0,0.0,0.0,0.0,-1.8279,-1.8581,-1.8795,-1.9058,-1.9397,-1.9459,-1.9522,-1.9748,-1.93,-1.8937,-1.9058,-1.8733,-1.8496,-1.8621,-1.8253,0.0,0.0,0.0,-1.9133,-1.9218,-1.9292,-1.925,-1.8971,-1.846,-1.8058,-1.8058,-1.7797,-1.7257,-1.6342,-1.631,-1.5882,-1.4966,-1.4501,-1.4133,0.0,0.0,0.0,0.0,0.0,0.0,0.0,0.0,0.0,0.0,0.0,0.0,0.0,0.0,0.0,0.0,0.0,0.0,0.0,0.0,0.0,0.0,0.0,0.0,0.0,0.0,0.0,0.0,-1.0873,-1.1995,-1.2739,-1.2758,-1.3106,0.0,0.0,0.0,0.0,0.0,0.0,-1.5944,-1.61,-1.6195,-1.6333,-1.6735,-1.6948,-1.6948,-1.6948,-1.6948,-1.6948,-1.6948,-1.6948,-1.6961,-1.74,-1.7589,-1.7614,-1.8179,-1.8417,-1.8405,-1.8267,-1.8204,-1.8204,-1.8204,-1.8204,-1.8204,-1.8204,-1.8292,-1.8455,-1.8719,-1.8643,-1.848,-1.8845,-1.8468,-1.7877,-1.8292,0.0,0.0,0.0,0.0,-1.8744,-1.9296,-1.9183,-1.9006,-1.9441,-1.9371,-1.9291,-1.9385,-1.928,-1.9215,-1.9601,-1.9305,-1.9066,-1.9285,-1.8782,0.0,-1.9224,-1.9054,-1.896,-1.9272,-1.8895,-1.8594,-1.8349,-1.7822,-1.7445,-1.7313,-1.7135,-1.6706,-1.5815,-1.5794,-1.5375,-1.4473,-1.4355,-1.415,-1.3838,0.0,0.0,0.0,0.0,0.0,0.0,0.0,0.0,0.0,0.0,0.0,0.0,0.0,0.0,0.0,0.0,0.0,0.0,0.0,0.0,0.0,0.0,0.0,0.0,0.0,0.0,0.0,0.0,0.0,-1.3862,-1.3956,0.0,0.0,0.0,0.0,-1.5646,-1.5655,-1.612,-1.7244,-1.732,-1.7539,-1.8066,-1.8103,-1.8116,-1.8116,-1.8116,-1.8116,-1.8116,-1.8116,-1.8116,-1.8129,-1.8154,-1.8166,-1.8191,-1.8744,-1.8933,-1.8895,-1.8417,-1.8204,-1.8204,-1.8204,-1.8204,-1.8204,-1.8204,-1.853,-1.892,-1.8417,-1.8581,-1.8945,-1.897,-1.8933,-1.8895,-1.8933,-1.8933,0.0,0.0,-1.9723,-1.9861,-2.0439,-1.9674,-1.8732,-1.8768,-1.8232,-1.7811,-1.8295,-1.835,-1.8601,-1.9309,-1.9811,-2.0143,-2.012,0.0,-2.0108,-2.0108,-1.9884,-1.9499,-1.8992,-1.9338,-1.9282,-1.8416,-1.7679,-1.7032,-1.6581,-1.5921,-1.5517,-1.5439,-1.5429,-1.5429,-1.5352,-1.4971,-1.4746,-1.4727,-1.3916,0.0,0.0,0.0,0.0,0.0,0.0,0.0,0.0,0.0,0.0,0.0,0.0,0.0,0.0,0.0,0.0,0.0,0.0,0.0,0.0,0.0,0.0,0.0,0.0,0.0,0.0,0.0,0.0,-1.3886,-1.4,0.0,-1.5037,-1.5279,-1.5781,-1.671,-1.6785,-1.7112,-1.7865,-1.7903,-1.8003,-1.8191,-1.8204,-1.8204,-1.8204,-1.8204,-1.8204,-1.8204,-1.8204,-1.8204,-1.8216,-1.8581,-1.8731,-1.8769,-1.9296,-1.9522,-1.951,-1.9309,-1.9233,-1.9233,-1.9233,-1.9233,-1.9233,-1.9233,-1.9359,-1.9497,-1.9309,-1.9043,-1.883,-1.883,-1.9152,-1.9522,-1.9522,-1.9786,-2.0125,-2.03,-2.0212,-2.0121,-2.0314,-1.9394,-1.852,-1.8783,-1.8442,-1.8192,-1.8614,-1.8561,-1.8483,-1.8779,-1.8982,-1.9276,-1.9814,-1.9449,-1.9276,-1.9814,-1.9357,-1.8966,-1.9158,-1.8636,-1.8119,-1.7738,-1.7203,-1.6738,-1.6277,-1.6009,-1.5713,-1.543,-1.541,-1.541,-1.541,-1.5264,-1.5059,-1.4795,-1.4482,-1.4062,0.0,0.0,0.0,0.0,0.0,0.0,0.0,0.0,0.0,0.0,0.0,0.0,0.0,0.0,0.0,0.0,0.0,0.0,0.0,0.0,0.0,0.0,0.0,0.0,0.0,-1.2027,-1.2807,-1.3822,-1.3925,-1.4193,-1.5019,-1.5416,-1.6034,-1.7004,-1.7272,-1.7702,-1.8442,-1.848,-1.8555,-1.8731,-1.8744,-1.8744,-1.8744,-1.8744,-1.8744,-1.8744,-1.8744,-1.8744,-1.8756,-1.912,-1.9284,-1.9309,-1.966,-1.9643,-1.9423,-1.9695,-1.9643,-1.9475,-1.9695,-1.9798,-1.9798,-1.9798,-1.9798,-1.9798,-1.9798,-1.9475,-1.9097,-1.9097,-1.9324,-1.9642,-1.9642,-1.9995,-2.0399,-2.0387,-2.0226,-2.0075,-2.0075,-1.9107,-1.818,-1.8485,-1.8154,-1.7888,-1.8286,-1.827,-1.8165,-1.8308,-1.8599,-1.8966,-1.9456,-1.9148,-1.8966,-1.9456,-1.8837,-1.8451,-1.8813,-1.8155,-1.7539,-1.7402,-1.7119,-1.6709,-1.6174,-1.6125,-1.5879,-1.5439,-1.541,-1.541,-1.541,-1.5273,-1.5137,-1.5,-1.5,-1.4648,-1.3936,0.0,0.0,0.0,0.0,0.0,0.0,0.0,0.0,0.0,0.0,0.0,0.0,0.0,0.0,0.0,0.0,0.0,0.0,0.0,0.0,0.0,0.0,0.0,-1.2425,-1.278,-1.3242,-1.3817,-1.3817,-1.3832,-1.3905,-1.4963,-1.5825,-1.6395,-1.7057,-1.7903,-1.8945,-1.8995,-1.9284,-1.9786,-1.9798,-1.9798,-1.9798,-1.9798,-1.9798,-1.9798,-1.9798,-1.9798,-1.9798,-1.9798,-1.9798,-1.9798,-1.9798,-1.9371,-1.8768,-1.9475,-1.9359,-1.8768,-1.9527,-1.9798,-1.9747,-1.9798,-1.9798,-1.9747,-1.9695,-1.9747,-1.9747,-1.9708,-1.958,-1.94,-1.9412,-1.9551,-1.9789,-1.9705,-1.9727,-1.9761,-1.9761,-1.8779,-1.776,-1.7771,-1.7232,-1.6875,-1.7314,-1.7402,-1.7529,-1.793,-1.8654,-1.9243,-1.9243,-1.9243,-1.9243,-1.9243,-1.8529,0.0,-1.8008,-1.8008,-1.7852,-1.7451,-1.7402,-1.7051,-1.6243,-1.6154,-1.5898,-1.5459,-1.542,-1.542,-1.543,-1.5039,-1.501,-1.542,-1.543,-1.5225,-1.4805,0.0,0.0,0.0,0.0,0.0,0.0,0.0,0.0,0.0,0.0,0.0,0.0,0.0,0.0,0.0,0.0,0.0,0.0,0.0,0.0,0.0,-1.1204,-1.2086,-1.2268,-1.2646,-1.3152,-1.3765,-1.3788,-1.3996,-1.4428,-1.5026,-1.5856,-1.6967,-1.7508,-1.8275,-1.9496,-1.9585,-1.966,-1.9798,-1.9798,-1.9798,-1.9798,-1.9798,-1.9798,-1.9798,-1.9798,-1.9798,-1.9798,-1.9798,-1.9798,-1.9747,-1.9254,-1.8874,-1.8715,-1.8927,-1.8874,-1.8768,-1.9527,-1.9475,-1.9097,-1.9579,-1.9475,-1.8874,-1.7797,-1.8124,-1.8893,-1.816,-1.86,-1.9347,-1.9136,-1.9336,-1.9705,-1.9705,-1.9594,-1.9436,-1.9436,-1.8462,-1.7591,-1.7899,-1.7553,-1.7324,-1.7744,-1.7842,-1.7871,-1.7988,-1.8202,-1.8327,-1.8327,-1.8327,-1.8327,-1.8327,-1.8134,-1.8008,-1.8008,-1.8008,-1.7969,-1.7852,-1.7842,-1.7617,-1.707,-1.6728,-1.6357,-1.5908,-1.5586,-1.5557,-1.5869,-1.5771,-1.5762,-1.5879,-1.5889,-1.5367,0.0,0.0,0.0,0.0,0.0,0.0,0.0,0.0,0.0,0.0,0.0,0.0,0.0,0.0,0.0,0.0,0.0,0.0,0.0,0.0,0.0,0.0,-1.1813,-1.25,-1.25,-1.2725,-1.3017,-1.3372,-1.342,-1.3635,-1.4148,-1.4634,-1.5411,-1.6616,-1.7151,-1.8001,-1.9282,-1.9319,-1.9319,-1.9319,-1.9643,-1.9643,-1.9359,-1.9319,-1.9319,-1.9319,-1.9319,-1.9319,-1.9319,-1.9319,-1.9319,-1.9319,-1.8555,-1.8058,-1.7852,-1.8447,-1.8328,-1.7895,0.0,0.0,0.0,0.0,-1.8608,-1.8167,-1.7633,-1.7933,-1.8492,-1.8226,-1.8536,-1.8985,-1.8779,-1.8827,-1.9008,-1.9008,-1.8903,-1.8787,-1.8787,-1.8215,-1.7705,-1.7949,-1.7822,-1.7715,-1.7959,-1.8008,-1.8008,-1.8008,-1.8008,0.0,-1.8008,-1.8008,-1.8008,-1.8008,-1.8008,-1.8008,-1.8008,-1.8008,-1.8008,-1.8008,-1.8008,-1.7842,-1.7422,-1.7148,0.0,0.0,0.0,-1.5996,-1.6125,-1.624,0.0,0.0,0.0,0.0,0.0,0.0,0.0,0.0,-1.4421,-1.4171,0.0,0.0,0.0,0.0,0.0,0.0,0.0,0.0,0.0,0.0,0.0,0.0,0.0,0.0,0.0,0.0,-1.254,-1.2881,-1.2881,-1.2881,-1.2881,-1.2881,-1.2881,-1.3047,-1.3467,-1.4023,-1.4789,-1.5816,-1.6417,-1.728,-1.8531,-1.8555,0.0,0.0,0.0,-1.9254,-1.8555,-1.8555,-1.8555,-1.8555,-1.8555,-1.8555,-1.8555,-1.8555,-1.8555,-1.8555,-1.7797,-1.709,-1.6595,-1.7895,-1.7688,-1.6652,-1.795,-1.8489,-1.8501,-1.7622,-1.7413,-1.7578,-1.8112,0.0,0.0,-1.8896,-1.8851,-1.8499,-1.8487,-1.8217,-1.8008,-1.8008,-1.8008,-1.8008,-1.8008,-1.8008,-1.8008,-1.8008,-1.8008,-1.8008,-1.8008,-1.8008,-1.8008,-1.8008,-1.8008,-1.8008,-1.8008,-1.8008,-1.8008,-1.8008,-1.8008,-1.8008,-1.8008,-1.8008,-1.8008,-1.8008,-1.8008,0.0,-1.749,-1.7412,-1.7217,-1.6836,-1.6807,-1.6621,-1.6292,-1.6505,-1.61,-1.4953,-1.5521,-1.5515,-1.4872,-1.5292,-1.5122,-1.4443,-1.3258,-1.3273,0.0,0.0,0.0,0.0,0.0,0.0,0.0,0.0,0.0,0.0,0.0,0.0,0.0,0.0,0.0,-1.1519,-1.233,-1.2881,-1.2881,-1.2881,-1.2881,-1.2881,-1.2881,-1.3047,-1.3467,-1.3913,-1.4626,-1.5794,-1.6293,-1.6937,-1.7786,-1.7797,-1.7797,-1.7797,-1.795,-1.7961,-1.7786,-1.7797,-1.7797,-1.7797,-1.7797,0.0,-1.7797,-1.7797,-1.7797,-1.7797,-1.7034,-1.6652,-1.6539,-1.6821,-1.6765,-1.6549,-1.681,-1.7302,-1.7633,-1.6301,-1.6197,-1.6652,-1.6187,-1.667,-1.7423,-1.7257,-1.7801,-1.8433,-1.8165,-1.8075,0.0,-1.8008,-1.8008,-1.8008,-1.8008,-1.8008,-1.8008,-1.8008,-1.8008,-1.8008,-1.8008,-1.8008,-1.8008,-1.8008,-1.8008,-1.8008,-1.8008,-1.8008,-1.8008,-1.8008,-1.8008,-1.8008,-1.8008,-1.8008,-1.8008,-1.8008,-1.8008,-1.7978,-1.79,-1.7578,-1.7344,-1.7266,-1.7256,-1.7217,-1.7129,-1.6835,-1.6442,-1.6088,-1.5831,-1.5162,-1.4216,-1.4622,-1.4416,-1.3777,-1.4057,-1.4016,0.0,0.0,0.0,0.0,0.0,0.0,0.0,0.0,0.0,0.0,0.0,-0.8482,-0.8889,0.0,-1.104,-1.1089,-1.2115,-1.2774,-1.2393,-1.2666,-1.2881,-1.2881,-1.2881,-1.3125,-1.376,-1.3951,-1.4557,-1.5583,-1.5847,-1.6255,-1.7034,-1.7034,-1.7034,-1.7034,-1.7413,-1.7413,-1.7034,-1.7034,-1.7034,-1.7034,-1.7034,-1.7034,-1.7034,-1.7034,-1.7034,-1.7034,-1.6255,-1.5921,-1.5921,-1.5921,-1.6151,-1.6482,-1.6093,-1.6197,-1.6415,-1.569,-1.5633,-1.5951,-1.6242,-1.6557,-1.7011,-1.7456,-1.79,-1.8238,-1.8075,-1.8008,-1.8008,-1.8008,-1.8008,-1.8008,-1.8008,-1.8008,-1.8008,-1.8008,-1.8008,-1.8008,-1.8008,-1.8008,-1.8008,-1.8008,-1.8008,-1.8008,-1.8008,-1.8008,-1.8008,-1.8008,-1.8008,-1.8008,-1.8008,-1.8008,-1.8008,-1.8008,-1.8008,-1.8008,-1.8008,-1.7388,-1.7079,-1.7217,-1.6733,-1.6526,-1.6723,-1.6471,-1.6057,-1.5479,-1.5209,-1.4637,-1.3817,-1.3964,-1.404,-1.3861,-1.4345,-1.4338,0.0,0.0,0.0,0.0,0.0,0.0,0.0,-0.6893,-0.7701,-0.7762,-0.8116,-0.8703,-0.9375,-1.0081,-1.0669,-1.0762,-1.1742,-1.2353,-1.1873,-1.2295,-1.2725,-1.2881,-1.2881,-1.3213,-1.4,-1.4077,-1.4437,-1.5342,-1.541,-1.5633,-1.6265,-1.6265,-1.6265,-1.6265,-1.6866,-1.6922,-1.6322,-1.6265,-1.6265,-1.6265,-1.6265,-1.6265,-1.6265,-1.6265,-1.6265,-1.6265,-1.5642,-1.541,-1.541,-1.541,-1.5798,-1.6341,-1.5771,-1.5586,-1.5654,-1.5566,-1.5596,-1.5772,-1.6777,-1.697,-1.6978,-1.7938,-1.8167,-1.8008,-1.8008,-1.8008,-1.8008,-1.8008,-1.8008,-1.8008,-1.8008,-1.8008,-1.8008,-1.8008,-1.8008,-1.8008,-1.8008,-1.8076,-1.8135,-1.8135,-1.8203,-1.8262,-1.8262,-1.8262,-1.8203,-1.8037,-1.8008,-1.8008,-1.8008,-1.8008,-1.8037,-1.8125,-1.8135,-1.8095,-1.7966,-1.7021,-1.6572,-1.6753,-1.6102,-1.5773,-1.5983,-1.5847,-1.5427,-1.4743,-1.4509,-1.4207,-1.3728,-1.3728,-1.3854,-1.4095,-1.4389,-1.4522,-0.3153,-0.4006,-0.4835,-0.5624,-0.6303,-0.6863,0.0,-0.7892,-0.8343,-0.8604,-0.8711,-0.896,-0.9614,-0.9843,-1.0115,-1.0712,-1.0914,-1.1216,-1.1715,-1.1864,-1.2187,-1.2822,-1.2881,-1.3213,-1.4,-1.4077,-1.4437,-1.5342,-1.541,-1.541,-1.5526,-1.5526,-1.5526,-1.5526,-1.5575,-1.5633,-1.5526,-1.5526,-1.5526,-1.5526,-1.5526,-1.5526,-1.5526,-1.5526,-1.5526,-1.5526,-1.541,-1.541,-1.541,-1.541,-1.5704,-1.6167,-1.6047,-1.623,-1.6533,-1.6133,-1.624,-1.6592,-1.6703,-1.7007,-1.7314,-1.7494,-1.7733,-1.8008,-1.8008,-1.8008,-1.8008,-1.8008,-1.8008,-1.8008,-1.8008,-1.8008,-1.8008,-1.8008,-1.8008,-1.8008,-1.8008,-1.8301,-1.8494,-1.8494,-1.8877,-1.9141,-1.9141,-1.9141,-1.8887,-1.8125,-1.8008,-1.8008,-1.8008,-1.8008,-1.8154,-1.8455,-1.8494,-1.8285,-1.777,-1.6721,-1.6045,-1.6086,-1.601,-1.5959,-1.6,-1.5173,-1.4859,-1.4998,-1.4142,-1.3817,-1.4041,-1.4041,-1.4055,-1.4095,-1.4389,-1.4522,-0.3529,-0.409,-0.4398,-0.4867,-0.5803,-0.6732,-0.69,-0.7847,-0.8657,-0.8784,-0.8804,-0.891,-0.9159,-0.951,-0.9762,-0.9666,-1.0312,-1.0914,-1.1166,-1.1566,-1.1922,-1.2236,-1.2878,-1.3477,-1.4019,-1.4077,-1.4437,-1.5342,-1.541,-1.541,-1.541,-1.541,-1.541,-1.541,-1.541,-1.541,-1.541,-1.541,-1.541,-1.541,-1.541,-1.541,-1.541,-1.541,-1.5547,-1.5811,-1.6064,-1.6182,-1.6182,-1.6182,-1.6289,-1.6455,-1.6455,-1.6728,-1.7061,-1.6611,-1.6572,-1.6768,-1.7021,-1.7227,-1.7422,-1.7666,-1.7871,-1.8008,-1.8008,-1.8008,-1.8008,-1.8008,-1.8008,-1.8008,-1.8008,-1.8008,-1.8076,-1.832,-1.8379,-1.8447,-1.8701,-1.8887,-1.9014,-1.9014,-1.916,-1.9287,-1.9287,-1.9287,-1.917,-1.8809,-1.875,-1.875,-1.875,-1.875,-1.8818,-1.8994,-1.8427,-1.7972,-1.7692,-1.6168,-1.5258,-1.5458,-1.4929,-1.47,-1.4889,-1.4505,-1.433,-1.4545,-1.4144,-1.3961,-1.4088,-1.4088,-1.4175,-1.4349,-1.4643,-1.487,-0.3488,-0.3846,-0.3901,-0.4115,-0.5259,-0.6323,-0.6435,-0.7372,-0.8262,-0.848,-0.848,-0.848,-0.848,-0.9047,-0.9361,-0.8857,-0.9614,-1.0312,-1.0517,-1.1116,-1.1516,-1.1516,-1.2397,-1.3269,-1.3752,-1.4131,-1.4619,-1.5352,-1.541,-1.541,-1.541,-1.541,-1.541,-1.541,-1.541,-1.541,-1.541,-1.541,-1.541,-1.541,-1.541,-1.5478,-1.5586,-1.5586,-1.583,-1.626,-1.6465,-1.6621,-1.6665,-1.6665,-1.6807,-1.6914,-1.6914,-1.7178,-1.7519,-1.7197,-1.709,-1.7129,-1.7451,-1.7559,-1.7607,-1.791,-1.8008,-1.8008,-1.8008,-1.8008,-1.8008,-1.8008,-1.8008,-1.8008,-1.8008,-1.8008,-1.8115,-1.8535,-1.8562,-1.876,-1.9189,-1.9375,-1.9463,-1.9463,-1.9561,-1.9639,-1.9639,-1.9639,-1.9639,-1.9639,-1.9639,-1.9551,-1.9316,-1.9394,-1.938,-1.9084,-1.8188,-1.7482,-1.7175,-1.5466,-1.4554,-1.4784,-1.4166,-1.3861,-1.4082,-1.4088,-1.4088,-1.4088,-1.4088,-1.4088,-1.4088,-1.4168,-1.4315,-1.4529,-1.4903,-1.5197,-0.2785,-0.316,-0.3545,-0.4085,-0.4881,-0.5706,-0.6416,-0.6637,-0.6858,-0.7563,-0.7723,-0.7723,-0.7723,-0.8315,-0.8804,-0.8804,-0.8857,-0.9113,-0.9762,-1.0415,-1.0813,-1.0813,-1.1425,-1.2199,-1.3068,-1.4117,-1.4941,-1.5381,-1.541,-1.541,-1.541,-1.541,-1.541,-1.541,-1.541,-1.541,-1.541,-1.541,-1.541,-1.541,-1.541,-1.5635,-1.6105,-1.6105,-1.6289,-1.6689,-1.626,-1.6328,-1.6665,-1.6665,-1.6982,-1.7363,-1.7363,-1.7627,-1.7988,-1.7978,-1.7969,-1.7978,-1.7988,-1.7988,-1.7988,-1.8008,-1.8008,-1.8008,-1.8008,-1.8008,-1.8008,-1.8008,-1.8008,-1.8008,-1.8008,-1.8008,-1.8115,-1.8535,-1.8562,-1.876,-1.9189,-1.9609,-1.9893,-1.9893,-2.0234,-2.0527,-2.0527,-2.0527,-2.0527,-2.0527,-2.0527,-2.0225,-1.9394,-1.9639,-1.9506,-1.842,-1.7732,-1.6895,-1.5831,-1.4789,-1.4146,-1.4153,-1.4075,-1.4075,-1.4088,-1.4088,-1.4088,-1.4088,-1.4088,-1.4088,-1.4088,-1.4369,-1.4509,-1.4536,-1.5117,-1.5391,-0.2918,-0.3179,-0.3411,-0.42,-0.4961,-0.5542,-0.5814,-0.6253,-0.6696,-0.6912,-0.6966,-0.7128,-0.761,-0.7883,-0.8209,-0.8699,-0.8804,-0.9061,-0.9718,-1.0012,-1.02,-1.0424,-1.1284,-1.1885,-1.193,-1.2958,-1.4138,-1.5293,-1.541,-1.541,-1.541,-1.541,-1.541,-1.541,-1.541,-1.541,-1.541,-1.541,-1.5557,-1.585,-1.6143,-1.6367,-1.6514,-1.6807,-1.7021,-1.7168,-1.7295,-1.7441,-1.7578,-1.7578,-1.7666,-1.7803,-1.7803,-1.7881,-1.8008,-1.8008,-1.8008,-1.8008,-1.8008,-1.8008,-1.8008,-1.8008,-1.8008,-1.8008,-1.8008,-1.8008,-1.8008,-1.8008,-1.8008,-1.8008,-1.8008,-1.8213,-1.8535,-1.8965,-1.9277,-1.96,-2.0039,-2.0244,-2.0342,-2.0342,-2.0469,-2.0566,-2.0566,-2.0566,-2.0323,-1.9678,-1.952,-1.9418,-1.9149,-1.859,-1.803,-1.7712,-1.6774,-1.6108,-1.5703,-1.4734,-1.4088,-1.4088,-1.4088,-1.4088,-1.4088,-1.4088,-1.4088,-1.4088,-1.4088,-1.4182,-1.4376,-1.4476,-1.4723,-1.511,-1.5304,-1.5504,-0.2259,-0.264,-0.2994,-0.3871,-0.4618,-0.5218,-0.5433,-0.5655,-0.5932,-0.615,-0.6199,-0.6421,-0.7182,-0.7509,-0.7937,-0.8699,-0.8804,-0.8956,-0.9361,-0.9761,-0.9969,-0.9911,-1.0806,-1.142,-1.13,-1.2003,-1.316,-1.4817,-1.4991,-1.5108,-1.5352,-1.541,-1.541,-1.541,-1.5566,-1.5644,-1.5644,-1.5801,-1.6025,-1.6309,-1.6758,-1.6963,-1.6973,-1.7256,-1.7461,-1.7607,-1.7734,-1.7871,-1.8008,-1.8008,-1.8008,-1.8008,-1.8008,-1.8008,-1.8008,-1.8008,-1.8008,-1.8008,-1.8008,-1.8008,-1.8008,-1.8008,-1.8008,-1.8008,-1.8008,-1.8008,-1.8008,-1.8008,-1.8008,-1.8047,-1.8193,-1.8437,-1.8779,-1.9375,-1.9717,-2.0029,-2.0469,-2.0566,-2.0566,-2.0566,-2.0566,-2.0566,-2.0566,-2.0245,-1.9678,-1.8559,-1.806,-1.798,-1.831,-1.7747,-1.7172,-1.6764,-1.6108,-1.5538,-1.5137,-1.4489,-1.4088,-1.4088,-1.4088,-1.4088,-1.4088,-1.4088,-1.4088,-1.4088,-1.4188,-1.4335,-1.4522,-1.473,-1.503,-1.5398,-1.5504,-1.5651,-0.0905,-0.1594,-0.2355,-0.3097,-0.3901,-0.4622,-0.5269,-0.4948,-0.468,-0.5324,-0.5433,-0.5651,-0.6421,-0.7128,-0.7889,-0.8665,-0.8765,-0.8811,-0.8831,-0.9646,-0.9995,-0.9314,-1.0066,-1.0834,-1.1212,-1.1242,-1.2027,-1.3965,-1.4154,-1.4519,-1.5323,-1.5381,-1.5381,-1.5381,-1.5809,-1.6033,-1.6033,-1.648,-1.6768,-1.6714,-1.7207,-1.7422,-1.7422,-1.7422,-1.7637,-1.7988,-1.7588,-1.7637,-1.8008,-1.8008,-1.8008,-1.8008,-1.8008,-1.8008,-1.8008,-1.8008,-1.8008,-1.8008,-1.8008,-1.8008,-1.8008,-1.8008,-1.8008,-1.8008,-1.8008,-1.8008,-1.8018,-1.8037,-1.8047,-1.8135,-1.8555,-1.8682,-1.8906,-1.9717,-1.9932,-2.0059,-2.0478,-2.0566,-2.0566,-2.0566,-2.0566,-2.0566,-2.0566,-1.9678,-1.855,-1.7415,-1.6355,-1.6108,-1.709,-1.718,-1.6764,-1.5703,-1.5621,-1.522,-1.4173,-1.4088,-1.4088,-1.4088,-1.4088,-1.4088,-1.4088,-1.4088,-1.4088,-1.4088,-1.4369,-1.4529,-1.4543,-1.5117,-1.5404,-1.5424,-1.5698,-1.5832,-0.0877,-0.1214,-0.1712,-0.3003,-0.3456,-0.3788,-0.4567,-0.4625,-0.4574,-0.4732,-0.4732,-0.4952,-0.5651,-0.6367,-0.7187,-0.8202,-0.8622,-0.8884,-0.9044,-0.9302,-0.9486,-0.9546,-0.9996,-1.0416,-1.0712,-1.0809,-1.1296,-1.2609,-1.3631,-1.4399,-1.4821,-1.5527,-1.5587,-1.49,-1.5294,-1.5496,-1.5496,-1.6651,-1.7217,-1.7227,-1.7646,-1.7852,-1.7852,-1.7852,-1.791,-1.8008,-1.79,-1.791,-1.8008,-1.8008,-1.8008,-1.8008,-1.8008,-1.8008,-1.8008,-1.8008,-1.8008,-1.8008,-1.8008,-1.8008,-1.8008,-1.8008,-1.8008,-1.8008,-1.8008,-1.8008,-1.8076,-1.8389,-1.8477,-1.8574,-1.9014,-1.9355,-1.9639,-1.9863,-2.0166,-2.043,-2.0537,-2.0566,-2.0566,-2.0566,-2.0566,-2.0323,-1.952,-1.9195,-1.831,-1.6437,-1.5861,-1.5779,-1.6108,-1.5387,-1.4817,-1.4573,-1.4496,-1.4412,-1.4088,-1.4088,-1.4088,-1.4088,-1.4088,-1.4088,-1.4088,-1.4088,-1.4088,-1.4088,-1.4369,-1.4629,-1.485,-1.5217,-1.5504,-1.5718,-1.5792,-1.5832,-0.0501,-0.0838,-0.1284,-0.212,-0.2843,-0.3456,-0.3901,-0.4236,-0.4519,-0.4519,-0.4519,-0.468,-0.5378,-0.6091,-0.69,-0.7807,-0.8524,-0.9051,-0.9163,-0.9402,-0.9686,-0.9853,-1.0134,-1.0374,-1.0611,-1.0739,-1.1057,-1.18,-1.2735,-1.3638,-1.4337,-1.4871,-1.4871,-1.4362,-1.4724,-1.5265,-1.5833,-1.6278,-1.6609,-1.7024,-1.725,-1.7354,-1.7432,-1.7794,-1.8008,-1.8008,-1.8008,-1.8008,-1.8008,-1.8008,-1.8008,-1.8008,-1.8008,-1.8008,-1.8008,-1.8008,-1.8008,-1.8008,-1.8008,-1.8135,-1.8252,-1.8076,-1.8008,-1.8047,-1.8223,-1.8281,-1.8379,-1.8809,-1.8926,-1.9023,-1.9453,-1.9736,-1.9961,-2.0156,-2.0391,-2.0566,-2.0566,-2.0566,-2.0566,-2.0566,-2.0245,-1.952,-1.847,-1.79,-1.7009,-1.522,-1.4977,-1.4977,-1.4977,-1.4489,-1.4088,-1.4088,-1.4088,-1.4088,-1.4088,-1.4088,-1.4088,-1.4088,-1.4088,-1.4088,-1.4088,-1.4088,-1.4148,-1.4275,-1.4569,-1.4856,-1.5157,-1.5444,-1.5671,-1.5832,-1.5832,-1.5832,0.0,-0.0448,-0.095,-0.1062,-0.212,-0.3121,-0.3287,-0.3846,-0.4349,-0.446,-0.4519,-0.468,-0.5273,-0.5982,-0.6701,-0.7495,-0.8379,-0.9039,-0.923,-0.974,-1.0074,-1.0114,-1.0381,-1.0624,-1.0624,-1.0822,-1.1109,-1.1403,-1.1871,-1.2644,-1.3749,-1.3891,-1.3981,-1.3897,-1.4187,-1.4972,-1.6201,-1.5517,-1.5587,-1.6419,-1.6567,-1.6636,-1.6636,-1.7432,-1.7862,-1.8008,-1.7872,-1.7862,-1.8008,-1.8008,-1.8008,-1.8008,-1.8008,-1.8008,-1.8008,-1.8008,-1.8008,-1.8008,-1.8008,-1.8281,-1.8574,-1.8213,-1.8135,-1.8252,-1.8613,-1.8721,-1.8818,-1.9248,-1.9375,-1.9473,-1.9893,-2.0,-2.0098,-2.0478,-2.0566,-2.0566,-2.0566,-2.0489,-2.0401,-2.0401,-1.952,-1.847,-1.7504,-1.6437,-1.5379,-1.425,-1.4088,-1.4088,-1.4088,-1.4088,-1.4088,-1.4088,-1.4088,-1.4088,-1.4088,-1.4088,-1.4088,-1.4088,-1.4122,-1.4142,-1.4142,-1.4182,-1.4322,-1.4576,-1.487,-1.5144,-1.5398,-1.5691,-1.5832,-1.5832,-1.5832,-1.5832,0.0,-0.0112,-0.0336,-0.095,-0.1284,-0.1842,-0.301,-0.34,-0.368,-0.4349,-0.4519,-0.4519,-0.468,-0.5218,-0.6037,-0.7053,-0.7626,-0.8324,-0.9482,-0.9693,-0.9846,-1.0087,-1.0381,-1.0624,-1.0624,-1.0822,-1.1109,-1.1403,-1.1742,-1.2354,-1.3177,-1.3989,-1.4186,-1.378,-1.3769,-1.3966,-1.4171,-1.4879,-1.5305,-1.5438,-1.6219,-1.6636,-1.6636,-1.6784,-1.7285,-1.794,-1.7207,-1.7285,-1.8008,-1.8008,-1.8008,-1.8008,-1.8008,-1.8008,-1.8008,-1.8008,-1.8008,-1.8008,-1.8008,-1.8281,-1.8623,-1.8555,-1.8769,-1.9082,-1.915,-1.918,-1.9258,-1.9687,-1.9805,-1.9902,-2.0342,-2.0449,-2.0469,-2.0547,-2.0566,-2.0566,-2.0566,-1.9923,-1.9283,-1.9283,-1.839,-1.7496,-1.7334,-1.6437,-1.5379,-1.425,-1.4088,-1.4088,-1.4088,-1.4088,-1.4088,-1.4088,-1.4088,-1.4088,-1.4088,-1.4088,-1.4088,-1.4088,-1.4309,-1.4442,-1.4442,-1.4683,-1.4836,-1.4883,-1.517,-1.5344,-1.5398,-1.5691,-1.5832,-1.5832,-1.5832,-1.5832,0.0,0.0,-0.0112,-0.0448,-0.0839,-0.1284,-0.2009,-0.2788,-0.3456,-0.379,-0.4236,-0.4519,-0.4519,-0.5058,-0.5681,-0.6165,-0.7246,-0.8225,-0.9028,-0.9204,-0.9519,-1.0246,-1.009,-1.011,-1.0561,-1.0962,-1.1276,-1.1416,-1.1837,-1.2308,-1.2662,-1.3078,-1.3215,-1.2945,-1.2952,-1.3237,-1.3673,-1.3665,-1.3947,-1.445,-1.4879,-1.5367,-1.586,-1.586,-1.6358,-1.7285,-1.6784,-1.6853,-1.7285,-1.7794,-1.8008,-1.8008,-1.8008,-1.8008,-1.8008,-1.8008,-1.8008,-1.8008,-1.8008,-1.8281,-1.8562,-1.8562,-1.8779,-1.8994,-1.9219,-1.9287,-1.9424,-2.0068,-2.0254,-2.0303,-2.0508,-2.0566,-2.0566,-2.0566,-2.0157,-1.9766,-1.9766,-1.8877,-1.8149,-1.8149,-1.7253,-1.6437,-1.6437,-1.5545,-1.465,-1.4166,-1.4088,-1.4088,-1.4088,-1.4088,-1.4088,-1.4088,-1.4088,-1.4088,-1.4088,-1.4088,-1.4155,-1.4302,-1.4442,-1.4589,-1.4743,-1.4883,-1.5037,-1.519,-1.5324,-1.5471,-1.5625,-1.5758,-1.5832,-1.5832,-1.5832,-1.5832,0.0,0.0,0.0,0.0,-0.0448,-0.0895,-0.1062,-0.2065,-0.301,-0.3234,-0.379,-0.4294,-0.446,-0.4948,-0.5324,-0.5487,-0.6719,-0.7847,-0.8504,-0.8531,-0.8977,-1.0206,-0.9808,-0.9633,-1.0406,-1.1075,-1.1523,-1.1523,-1.2004,-1.2305,-1.2305,-1.2305,-1.2305,-1.2305,-1.2305,-1.2666,-1.3382,-1.2659,-1.2659,-1.3382,-1.36,-1.4099,-1.4879,-1.4879,-1.5367,-1.6289,-1.607,-1.607,-1.6358,-1.7285,-1.7716,-1.7716,-1.794,-1.8008,-1.8008,-1.8008,-1.8008,-1.8008,-1.8008,-1.8281,-1.8623,-1.8535,-1.8691,-1.8975,-1.9316,-1.9492,-1.9697,-2.0371,-2.0566,-2.0566,-2.0566,-2.0566,-2.0566,-2.0323,-1.9599,-1.8877,-1.839,-1.7577,-1.6927,-1.6927,-1.6116,-1.5455,-1.5703,-1.481,-1.4088,-1.4088,-1.4088,-1.4088,-1.4088,-1.4088,-1.4088,-1.4088,-1.4088,-1.4088,-1.4088,-1.4088,-1.4182,-1.4409,-1.4482,-1.4656,-1.495,-1.5023,-1.5197,-1.5484,-1.5491,-1.5605,-1.5832,-1.5832,-1.5832,-1.5832,-1.5832,-1.5832,0.0,0.0,0.0,0.0,-0.0056,-0.028,-0.095,-0.1229,-0.1675,-0.301,-0.3345,-0.3622,-0.4349,-0.457,-0.4787,-0.5378,-0.5664,-0.6416,-0.8305,-0.7908,-0.7982,-0.9449,-0.9608,-0.9775,-0.9926,-1.1134,-1.183,-1.183,-1.2124,-1.2305,-1.2305,-1.2305,-1.2305,-1.2305,-1.2305,-1.2372,-1.2445,-1.2372,-1.2372,-1.2445,-1.331,-1.3745,-1.3818,-1.3818,-1.4378,-1.5305,-1.4378,-1.445,-1.5376,-1.6358,-1.6706,-1.6784,-1.7647,-1.8008,-1.8008,-1.8008,-1.8008,-1.8008,-1.8008,-1.8281,-1.8574,-1.8193,-1.8848,-1.9805,-1.9844,-2.0137,-2.0469,-2.0547,-2.0566,-2.0566,-2.0566,-2.0566,-2.0323,-1.9362,-1.9036,-1.847,-1.6429,-1.5944,-1.5869,-1.5869,-1.4977,-1.4573,-1.5538,-1.481,-1.4088,-1.4088,-1.4088,-1.4088,-1.4088,-1.4088,-1.4088,-1.4088,-1.4088,-1.4088,-1.4088,-1.4088,-1.4095,-1.4128,-1.4376,-1.4656,-1.495,-1.5217,-1.5491,-1.5785,-1.5792,-1.5805,-1.5832,-1.5832,-1.5832,-1.5832,-1.5832,-1.5832,0.0112,0.0,0.0,0.0,0.0,-0.0056,-0.0392,-0.0783,-0.1396,-0.2397,-0.301,-0.3566,-0.4349,-0.4519,-0.457,-0.4838,-0.5218,-0.5857,-0.6884,-0.6747,-0.7007,-0.8419,-0.8276,-0.824,-0.8943,-0.9603,-1.0394,-1.1144,-1.1931,-1.2305,-1.2305,-1.2305,-1.2305,-1.2305,-1.2305,-1.2305,-1.2305,-1.2305,-1.2305,-1.2305,-1.2666,-1.3164,-1.3673,-1.3091,-1.3382,-1.4243,-1.3882,-1.3954,-1.445,-1.593,-1.6289,-1.5939,-1.7432,-1.7647,-1.7217,-1.7794,-1.8008,-1.8008,-1.8008,-1.8115,-1.8232,-1.8066,-1.8701,-1.9541,-1.9541,-1.9834,-2.0225,-2.0498,-2.0566,-2.0566,-2.0566,-2.0566,-2.0323,-1.9283,-1.8479,-1.7577,-1.6026,-1.5213,-1.4734,-1.4734,-1.4412,-1.425,-1.465,-1.4412,-1.4088,-1.4088,-1.4088,-1.4088,-1.4088,-1.4088,-1.4088,-1.4088,-1.4088,-1.4088,-1.4088,-1.4088,-1.4162,-1.4335,-1.4623,-1.4917,-1.5211,-1.5504,-1.5712,-1.5825,-1.5832,-1.5832,-1.5832,-1.5832,-1.5832,-1.5832,-1.5832,-1.5832,0.0224,0.0,0.0,0.0,0.0,0.0,0.0,-0.0392,-0.1006,-0.173,-0.251,-0.3289,-0.4015,-0.4349,-0.4519,0.0,-0.4893,-0.5413,-0.5996,-0.5854,-0.615,-0.754,-0.7261,-0.7237,-0.8047,-0.8626,-0.9332,-1.0323,-1.1019,-1.1403,-1.1403,-1.1403,-1.17,-1.2305,-1.2305,-1.2305,-1.2305,-1.2305,-1.2305,-1.2305,-1.2305,-1.2666,-1.3237,-1.2592,-1.2666,-1.3317,-1.3317,-1.3317,-1.3382,-1.5084,-1.5367,-1.495,-1.6862,-1.7207,-1.6706,-1.7647,-1.8008,-1.8008,-1.8008,-1.8008,-1.8008,-1.8008,-1.8506,-1.9121,-1.9248,-1.9668,-2.0166,-2.0478,-2.0401,-2.0167,-2.0167,-1.9913,-1.9353,-1.8301,-1.7415,-1.6519,-1.5462,-1.465,-1.4088,-1.4088,-1.4088,-1.4088,-1.4088,-1.4088,-1.4088,-1.4088,-1.4088,-1.4088,-1.4088,-1.4162,-1.4215,-1.4215,-1.4295,-1.4275,-1.4102,-1.4168,-1.4302,-1.4502,-1.4803,-1.5097,-1.5384,-1.5591,-1.5745,-1.5832,-1.5832,-1.5832,-1.5832,-1.5832,-1.5832,-1.5832,-1.5832,-1.5832,0.0224,0.0,0.0,0.0,0.0,0.0,0.0,0.0,-0.0224,-0.095,-0.1675,-0.2454,-0.3176,-0.3956,-0.4519,-0.4519,-0.4519,-0.49,-0.6049,-0.5449,-0.5391,-0.6734,-0.701,-0.7229,-0.7453,-0.8562,-0.9296,-0.9296,-0.9296,-0.9296,-0.9296,-0.9296,-1.0276,-1.2224,-1.2305,-1.2305,-1.2305,-1.2305,-1.2305,-1.2305,-1.2305,-1.2305,-1.2298,-1.2305,-1.2305,-1.2298,-1.2298,-1.2298,-1.2372,-1.331,-1.3745,-1.3882,-1.586,-1.6636,-1.6706,-1.7647,-1.8008,-1.8008,-1.8008,-1.8008,-1.8008,-1.8008,-1.8301,-1.8721,-1.916,-1.9883,-2.0557,-2.0566,-1.9844,-1.9036,-1.9036,-1.8149,-1.709,-1.6026,-1.5703,-1.5462,-1.4334,-1.4088,-1.4088,-1.4088,-1.4088,-1.4088,-1.4088,-1.4088,-1.4088,-1.4088,-1.4088,-1.4088,-1.4088,-1.4342,-1.4516,-1.4516,-1.4776,-1.4716,-1.4135,-1.4349,-1.4516,-1.4522,-1.4803,-1.5097,-1.5384,-1.5398,-1.5538,-1.5818,-1.5832,-1.5832,-1.5832,-1.5832,-1.5832,-1.5832,-1.5832,-1.5832,0.0336,0.0,0.0,0.0,0.0,0.0,0.0,0.0,-0.0224,-0.095,-0.1675,-0.2454,-0.3231,-0.4015,-0.4553,-0.4602,-0.4619,-0.4803,-0.5242,-0.528,-0.5443,-0.5964,-0.636,-0.6603,-0.6707,-0.7672,-0.8313,-0.8313,-0.8917,-0.9296,-0.9296,-0.9296,-0.9895,-1.1242,-1.1236,-1.162,-1.2298,-1.2305,-1.2305,-1.2305,-1.2305,-1.2305,-1.2305,-1.2305,-1.2305,-1.2305,-1.2305,-1.2305,-1.2372,-1.331,-1.331,-1.3018,-1.557,-1.6219,-1.5799,-1.7442,-1.8008,-1.8008,-1.8008,-1.8008,-1.8008,-1.8008,-1.7995,-1.799,-1.8193,-1.9061,-2.0023,-1.9603,-1.9283,-1.8798,-1.8069,-1.7577,-1.7009,-1.5944,-1.5696,-1.5379,-1.4328,-1.4088,-1.4088,-1.4088,-1.4088,-1.4088,-1.4088,-1.4088,-1.4088,-1.4088,-1.4088,-1.4088,-1.4088,-1.4168,-1.4302,-1.4496,-1.4603,-1.4669,-1.4683,-1.477,-1.4823,-1.4823,-1.5097,-1.5297,-1.5391,-1.5585,-1.5732,-1.5832,-1.5832,-1.5832,-1.5832,-1.5832,-1.5832,-1.5832,-1.5832,-1.5832,0.0778,0.0224,0.0,0.0,0.0,0.0,0.0,0.0,-0.0112,-0.0616,-0.1284,-0.1952,-0.2454,-0.3345,-0.4098,-0.4185,-0.4477,-0.4745,-0.4897,-0.5176,-0.5416,-0.5572,-0.5884,-0.6067,-0.6013,-0.6704,-0.7151,-0.7151,-0.774,-0.8161,-0.8161,-0.8161,-0.8613,-0.9658,-1.0409,-1.1316,-1.2298,-1.2305,-1.2305,-1.2305,-1.2305,-1.2305,-1.2305,-1.2305,-1.2305,-1.2305,-1.2305,-1.2305,0.0,-1.2952,-1.2806,-1.2512,-1.4649,-1.5367,-1.5376,-1.6932,-1.7716,-1.8008,-1.8008,-1.8008,-1.794,-1.7579,-1.7341,-1.7186,-1.7258,-1.8348,-1.9505,-1.9131,-1.8718,-1.8069,-1.7009,-1.6363,-1.5959,-1.522,-1.5137,-1.4894,-1.425,-1.4088,-1.4088,-1.4088,-1.4088,-1.4088,-1.4088,-1.4088,-1.4088,-1.4088,-1.4088,-1.4088,-1.4088,-1.4182,-1.4362,-1.4656,-1.4783,-1.497,-1.5264,-1.519,-1.5124,-1.5124,-1.5398,-1.5558,-1.5558,-1.5732,-1.5832,-1.5832,-1.5832,-1.5832,-1.5832,-1.5832,-1.5832,-1.5832,-1.5832,-1.5832,0.0,0.0669,0.0056,0.0,0.0,0.0,0.0,0.0,0.0,0.0,-0.056,-0.1119,-0.1121,-0.2291,-0.3236,-0.3254,-0.4035,-0.4699,-0.4789,-0.5189,-0.5433,-0.5586,-0.5722,-0.5749,-0.5616,-0.585,-0.6017,-0.603,-0.6162,-0.6247,-0.6261,-0.6338,-0.6795,-0.7783,-0.9588,-1.1087,-1.215,-1.2224,-1.2305,-1.2305,-1.2305,-1.2305,-1.2305,-1.2305,-1.2305,-1.2305,-1.2305,-1.2305,-1.2305,-1.2305,-1.2305,-1.2372,-1.331,-1.4307,-1.5305,-1.621,-1.707,-1.7862,-1.7862,-1.7862,-1.7735,-1.6848,-1.634,-1.6149,-1.6534,-1.7697,-1.8877,-1.8798,-1.7989,-1.6927,-1.5861,-1.4817,-1.4088,-1.4088,-1.4088,-1.4088,-1.4088,-1.4088,-1.4088,-1.4088,-1.4088,-1.4088,-1.4088,-1.4088,-1.4095,-1.4115,-1.4122,-1.4122,-1.4122,-1.4376,-1.4656,-1.4937,-1.5224,-1.5518,-1.5805,-1.5585,-1.5431,-1.5431,-1.5678,-1.5832,-1.5832,-1.5832,-1.5832,-1.5832,-1.5832,-1.5832,-1.5832,-1.5832,-1.5832,-1.5832,-1.5832,-1.5832,0.2634,0.0,0.0597,0.0111,0.0,0.0,0.0,0.0,0.0,0.0,-0.056,-0.1126,-0.1098,-0.1817,-0.2495,-0.2684,-0.3447,-0.4055,-0.4173,-0.5008,-0.5589,-0.5735,-0.5779,-0.5789,-0.5755,-0.5813,-0.5905,-0.602,-0.6064,-0.6135,-0.6254,-0.6338,-0.6795,-0.7783,-0.8232,-0.9362,-1.1162,-1.1922,-1.2305,-1.2305,-1.2305,-1.2305,-1.2305,-1.2305,-1.2305,-1.2305,-1.2305,-1.2305,-1.2305,-1.2305,-1.2305,-1.2372,-1.331,-1.4307,-1.5234,-1.5446,-1.6149,-1.6922,-1.6922,-1.6922,-1.6815,-1.6306,-1.5643,-1.5133,-1.5728,-1.6774,-1.7496,-1.6683,-1.6273,-1.5869,-1.4734,-1.425,-1.4088,-1.4088,-1.4088,-1.4088,-1.4088,-1.4088,-1.4088,-1.4088,-1.4088,-1.4088,-1.4088,-1.4088,-1.4162,-1.4389,-1.4422,-1.4422,-1.4422,-1.4676,-1.4883,-1.4957,-1.5224,-1.5518,-1.5805,-1.5765,-1.5732,-1.5732,-1.5792,-1.5832,-1.5832,-1.5832,-1.5832,-1.5832,-1.5832,-1.5832,-1.5832,-1.5832,-1.5832,-1.5832,-1.5832,-1.5832,0.3044,0.1993,0.0859,0.0555,0.0224,0.0,0.0,0.0,0.0,0.0,-0.0336,-0.0619,-0.0573,-0.1203,-0.1733,-0.1856,-0.2954,-0.4006,-0.4644,-0.5209,-0.5616,-0.5694,-0.5705,-0.5677,-0.5606,-0.5661,-0.5766,-0.5915,-0.5989,-0.6098,-0.6251,-0.6338,-0.6567,-0.7099,-0.7553,-0.8761,-1.0783,-1.087,-1.1397,-1.2298,-1.1842,-1.1848,-1.2305,-1.2305,-1.2305,-1.2305,-1.2305,-1.2305,-1.2305,-1.2305,-1.2305,-1.2378,-1.2879,-1.3665,-1.4522,-1.4522,-1.5155,-1.593,-1.593,-1.5649,-1.527,-1.5328,-1.4724,-1.408,-1.4785,-1.5387,-1.5794,-1.5703,-1.5696,-1.5455,-1.4412,-1.4088,-1.4088,-1.4088,-1.4088,-1.4088,-1.4088,-1.4088,-1.4088,-1.4088,-1.4195,-1.4282,-1.4282,-1.4402,-1.4543,-1.4703,-1.4723,-1.4723,-1.4723,-1.4863,-1.5017,-1.515,-1.5304,-1.5518,-1.5805,-1.5832,-1.5832,-1.5832,-1.5832,-1.5832,-1.5832,-1.5832,-1.5832,-1.5832,-1.5832,-1.5832,-1.5832,-1.5832,-1.5832,-1.5825,-1.5242,-1.5242,0.315,0.2161,0.1172,0.1108,0.0615,0.0112,0.0,0.0,0.0,0.0,0.0,0.0,0.0,-0.052,-0.0941,-0.0946,-0.2475,-0.4113,-0.5378,-0.5555,-0.5555,-0.5555,-0.5555,-0.5504,-0.5439,-0.5481,-0.5613,-0.5759,-0.5908,-0.6061,-0.6217,-0.6247,-0.6338,-0.6338,-0.7099,-0.8461,-1.0335,-0.9669,-1.0121,-1.1848,-1.1168,-1.1242,-1.2077,-1.2224,-1.2305,-1.2305,-1.2305,-1.2305,-1.2305,-1.2305,-1.2305,-1.2305,-1.2305,-1.2879,-1.3673,-1.3528,-1.4099,-1.495,-1.495,-1.4386,-1.3769,-1.4379,-1.3931,-1.3313,-1.3854,-1.4048,-1.425,-1.522,-1.5455,-1.522,-1.4328,-1.4088,-1.4088,-1.4088,-1.4088,-1.4088,-1.4088,-1.4088,-1.4088,-1.4088,-1.4322,-1.4522,-1.4522,-1.477,-1.4977,-1.5023,-1.503,-1.503,-1.503,-1.507,-1.517,-1.5378,-1.5438,-1.5565,-1.5805,-1.5832,-1.5832,-1.5832,-1.5832,-1.5832,-1.5832,-1.5832,-1.573,-1.5534,-1.573,-1.573,-1.5534,-1.573,-1.573,-1.5439,-1.4364,-1.4364,0.3791,0.3229,0.237,0.1376,0.1006,0.0783,0.0168,0.0,0.0,0.0,0.0,0.0,0.0,-0.0117,-0.0178,-0.0183,-0.1696,-0.3436,-0.5169,-0.5463,-0.5463,-0.5463,-0.5463,-0.5456,-0.5428,-0.5449,-0.546,-0.561,-0.5755,-0.5905,-0.6057,-0.619,-0.6338,-0.6338,-0.6412,-0.7099,-0.8232,-0.8917,-0.9448,-0.975,-1.049,-1.0864,-1.1087,-1.1922,-1.2305,-1.2305,-1.2305,-1.2305,-1.2305,-1.2305,-1.2305,-1.2305,-1.2305,-1.2879,-1.36,-1.2806,-1.3098,-1.3954,-1.3954,-1.3818,-1.3732,-1.4119,-1.3754,-1.3273,-1.3607,-1.3888,-1.4166,-1.4334,-1.4334,-1.4334,-1.4173,-1.4088,-1.4088,-1.4088,-1.4088,-1.4088,-1.4088,-1.4088,-1.4088,-1.4088,-1.4322,-1.4522,-1.4522,-1.477,-1.505,-1.5291,-1.5331,-1.5331,-1.5331,-1.5545,-1.5618,-1.5418,-1.5618,-1.5785,-1.5825,-1.5832,-1.5832,-1.5832,-1.5832,-1.5832,-1.5832,-1.5832,-1.5337,-1.4166,-1.5242,-1.5242,-1.4166,-1.5242,-1.5242,-1.4166,-1.3974,-1.3392,0.3938,0.3767,0.3321,0.2468,0.1675,0.1006,0.0671,0.028,0.0,0.0,0.0,0.0,0.0,0.0,-0.0184,-0.0641,-0.1369,-0.2439,-0.3742,-0.435,-0.4619,-0.4619,-0.509,-0.5428,-0.5428,-0.5428,-0.5423,-0.5579,-0.565,-0.5786,-0.6017,-0.6098,-0.6173,-0.6257,-0.6338,-0.649,-0.6945,-0.748,-0.8237,-0.9296,-0.9744,-1.0265,-1.0858,-1.1842,-1.2305,-1.2305,-1.2305,-1.2305,-1.2305,-1.2305,-1.2305,-1.2305,-1.2305,-1.2592,-1.2879,-1.2445,-1.2592,-1.2952,-1.2952,-1.2952,-1.3029,-1.3522,-1.3478,-1.3293,-1.3748,-1.3981,-1.4088,-1.4088,-1.4088,-1.4088,-1.4088,-1.4088,-1.4088,-1.4088,-1.4088,-1.4088,-1.4088,-1.4088,-1.4088,-1.4088,-1.4449,-1.4763,-1.4763,-1.5137,-1.5478,-1.5611,-1.5631,-1.5631,-1.5631,-1.5745,-1.5778,-1.5645,-1.5752,-1.5832,-1.5832,-1.5146,-1.5045,-1.573,-1.5832,-1.5832,-1.5832,-1.514,-1.4459,-1.3878,-1.3782,-1.3397,-1.2813,-1.4172,-1.4076,-1.2813,-1.2813,-1.2522,0.3938,0.4019,0.3935,0.3673,0.0,0.1563,0.1174,0.0671,0.0225,0.0057,0.0,0.0,0.0,0.0,-0.0254,-0.113,-0.1273,-0.1608,-0.2544,-0.328,-0.3749,-0.3949,-0.4619,-0.516,-0.5362,-0.5428,-0.541,-0.5528,-0.5569,-0.5688,-0.5915,-0.5993,-0.6084,-0.6203,-0.624,-0.6338,-0.6338,-0.6338,-0.7099,-0.8618,-0.8841,-0.9442,-1.049,-1.1465,-1.2077,-1.2305,-1.2305,-1.2305,-1.2305,-1.2305,-1.2305,-1.2305,-1.2305,-1.2305,-1.2305,-1.2305,-1.2305,-1.2305,-1.2305,-1.2305,-1.2378,-1.2846,-1.3093,-1.3293,-1.3748,-1.3975,-1.4088,-1.4088,-1.4088,-1.4088,-1.4088,-1.4088,-1.4088,-1.4088,-1.4088,-1.4088,-1.4088,-1.4088,-1.4088,-1.4088,-1.4509,-1.4883,-1.495,-1.5391,-1.5752,-1.5818,-1.5832,-1.5832,-1.5832,-1.5832,-1.5832,-1.5832,-1.5832,-1.5635,-1.5343,-1.4172,-1.3878,-1.4854,-1.486,-1.486,-1.486,-1.3974,-1.3295,-1.3006,-1.2231,-1.175,-1.1463,-1.2813,-1.2716,-1.1463,-1.1463,-1.1263,0.3938,0.4019,0.409,0.4334,0.3846,0.2843,0.1452,0.1062,0.0846,0.0117,0.0,0.0,0.0,0.0,-0.026,-0.1134,-0.1273,-0.1608,-0.2544,-0.2744,-0.3078,-0.3882,-0.4082,-0.442,-0.5296,-0.5428,-0.5432,-0.5446,-0.5508,-0.5599,-0.562,-0.5881,-0.6034,-0.6047,-0.6186,-0.6338,-0.6338,-0.6338,-0.6338,-0.649,-0.748,-0.8466,-0.9448,-1.0415,-1.1391,-1.2305,-1.2305,-1.2305,-1.2305,-1.2305,-1.2305,-1.2305,-1.2305,-1.2305,-1.2305,-1.2305,-1.2305,-1.2305,-1.2305,-1.2305,-1.2311,-1.2351,-1.2746,-1.322,-1.326,-1.3654,-1.4088,-1.4088,-1.4088,-1.4088,-1.4088,-1.4088,-1.4088,-1.4088,-1.4088,-1.4088,-1.4088,-1.4088,-1.4088,-1.4088,-1.4342,-1.4636,-1.4917,-1.5224,-1.5518,-1.5792,-1.5832,-1.5832,-1.5832,-1.5832,-1.5832,-1.5832,-1.5832,-1.5343,-1.4166,-1.2818,-1.2042,-1.2139,-1.2139,-1.2139,-1.2139,-1.2042,-1.1458,-1.0288,-1.1361,-1.1361,-1.0096,-1.1458,-1.1361,-1.0096,-1.0096,-0.9509,0.3822,0.3948,0.407,0.4277,0.4175,0.0,0.0,0.2211,0.1908,0.1639,0.1134,0.0673,0.0126,0.0,-0.013,-0.0469,-0.0471,-0.0605,-0.0941,-0.1475,-0.1941,-0.2277,-0.2811,-0.3345,-0.368,-0.4217,-0.4553,-0.4553,-0.5142,-0.5491,-0.5586,-0.5694,-0.584,-0.6023,-0.6088,-0.6162,-0.6335,-0.6338,-0.6338,-0.6338,-0.7326,-0.8313,-0.9296,-1.034,-1.1316,-1.2305,-1.2305,-1.2305,-1.2305,-1.2305,-1.2305,-1.2305,-1.2305,-1.2305,-1.2305,-1.2305,-1.2305,-1.2305,-1.2305,-1.2305,-1.2331,-1.2518,-1.2866,-1.324,-1.3427,-1.3761,-1.4088,-1.4088,-1.4088,-1.4088,-1.4088,-1.4088,-1.4088,-1.4088,-1.4088,-1.4088,-1.4088,-1.4088,-1.4088,-1.4088,-1.4322,-1.4556,-1.4669,-1.5084,-1.5431,-1.5545,-1.5712,-1.5832,-1.5832,-1.5832,-1.5832,-1.5832,-1.5051,-1.3782,-1.1648,-1.097,-1.0386,-0.9509,-1.097,-1.1945,-1.1945,-1.117,-1.0485,-0.9998,-0.9604,-0.9213,-0.8726,-1.0096,-0.9998,-0.8825,-0.9608,-0.9316,0.4106,0.4122,0.4076,0.428,0.0,0.0,0.379,0.3261,0.2763,0.2554,0.2092,0.1401,0.0196,0.0196,0.0329,0.0067,0.0,0.0,0.0,-0.0538,-0.1006,-0.1274,-0.1876,-0.2342,-0.2678,-0.3211,-0.3613,-0.3613,-0.442,-0.4998,-0.5095,-0.5421,-0.5684,-0.5884,-0.5979,-0.6081,-0.6186,-0.6237,-0.6338,-0.6338,-0.7022,-0.7859,-0.8841,-0.9513,-1.0565,-1.1848,-1.1848,-1.1996,-1.2305,-1.2305,-1.2305,-1.2305,-1.2305,-1.2305,-1.2305,-1.2305,-1.2305,-1.2305,-1.2305,-1.2305,-1.2338,-1.2538,-1.2879,-1.3247,-1.3447,-1.3781,-1.4088,-1.4088,-1.4088,-1.4088,-1.4088,-1.4088,-1.4088,-1.4088,-1.4088,-1.4088,-1.4088,-1.4088,-1.4088,-1.4088,-1.4249,-1.4442,-1.4629,-1.499,-1.5317,-1.5504,-1.5705,-1.5832,-1.5832,-1.5832,-1.5635,-1.5242,-1.4076,-1.2425,-1.0194,-0.9608,-0.9019,-0.8038,-0.9702,-1.0681,-1.0681,-0.9801,-0.941,-0.941,-0.8432,-0.8038,-0.8038,-0.892,-0.8924,-0.8038,-0.892,-0.892,0.4853,0.4535,0.4227,0.4426,0.4515,0.4519,0.4519,0.4065,0.3431,0.269,0.264,0.2144,0.0337,0.0739,0.1006,0.0135,0.0,0.0,0.0,0.0,-0.0337,-0.1207,-0.1273,-0.1675,-0.2611,-0.2678,-0.2678,-0.2678,-0.348,-0.4015,-0.4015,-0.5021,-0.5586,-0.5589,-0.5874,-0.5952,-0.603,-0.6183,-0.6338,-0.6338,-0.6338,-0.6795,-0.7783,-0.7783,-0.8912,-1.0783,-1.0783,-1.1391,-1.2305,-1.2305,-1.2305,-1.2305,-1.2305,-1.2305,-1.2305,-1.2305,-1.2305,-1.2305,-1.2305,-1.2305,-1.2305,-1.2305,-1.2712,-1.3206,-1.3213,-1.3621,-1.4082,-1.4088,-1.4088,-1.4088,-1.4088,-1.4088,-1.4088,-1.4088,-1.4088,-1.4088,-1.4088,-1.4088,-1.4088,-1.4088,-1.4088,-1.4275,-1.4856,-1.4963,-1.5157,-1.5738,-1.5832,-1.5832,-1.5832,-1.5832,-1.5337,-1.3974,-1.2716,-1.1365,-1.0096,-0.8726,-0.8038,-0.8038,-0.8038,-0.8038,-0.8038,-0.8038,-0.8038,-0.8038,-0.8038,-0.8038,-0.8038,-0.8038,-0.8038,-0.8038,-0.8038,-0.8038,0.479,0.4409,0.4073,0.4273,0.4389,0.4519,0.4519,0.4487,0.4305,0.3685,0.3109,0.2344,0.1141,0.0605,0.0269,0.0067,0.0,0.0,0.0,0.0,-0.0067,-0.0337,-0.0404,-0.0471,-0.0807,-0.1342,-0.1742,-0.1742,-0.2544,-0.3347,-0.3949,-0.371,-0.4172,-0.5586,-0.5191,-0.5252,-0.6027,-0.6183,-0.6338,-0.6338,-0.6338,-0.6795,-0.7783,-0.7783,-0.8912,-1.0783,-1.0783,-1.1391,-1.2305,-1.2305,-1.2305,-1.2305,-1.2305,-1.2305,-1.2305,-1.2305,-1.2305,-1.2305,-1.2305,-1.2305,-1.2305,-1.2305,-1.2565,-1.2926,-1.314,-1.3474,-1.3814,-1.4028,-1.4088,-1.4088,-1.4088,-1.4088,-1.4088,-1.4088,-1.4088,-1.4088,-1.4088,-1.4088,-1.4088,-1.4088,-1.4088,-1.4208,-1.4589,-1.4823,-1.509,-1.5471,-1.5698,-1.5832,-1.5832,-1.5832,-1.4956,-1.2721,-1.2139,-1.097,-0.8825,-0.8233,-0.8038,-0.8038,-0.8038,-0.8038,-0.8038,-0.8038,-0.8038,-0.8038,-0.8038,-0.8038,-0.8038,-0.8038,-0.8038,-0.8038,-0.8038,-0.8038,0.4916,0.453,0.4219,0.4311,0.4399,0.4532,0.4538,0.4697,0.4648,0.3974,0.3721,0.3289,0.1977,0.1399,0.0941,0.0605,0.0202,0.0,0.0,0.0,0.0,0.0,0.0,0.0,0.0,-0.0471,-0.0806,-0.0806,-0.1609,-0.2342,-0.2878,-0.2811,-0.3372,-0.4944,-0.458,-0.4822,-0.5854,-0.6064,-0.6169,-0.6169,-0.623,-0.6644,-0.7176,-0.7176,-0.8309,-1.0265,-1.1019,-1.1768,-1.2305,-1.2305,-1.2305,-1.2305,-1.2305,-1.2305,-1.2305,-1.2305,-1.2305,-1.2305,-1.2305,-1.2305,-1.2305,-1.2305,-1.2505,-1.2856,-1.2966,-1.3233,-1.3507,-1.3687,-1.3821,-1.3908,-1.3908,-1.4001,-1.4088,-1.4088,-1.4088,-1.4088,-1.4088,-1.4088,-1.4088,-1.4088,-1.4088,-1.4215,-1.4623,-1.4843,-1.5104,-1.5504,-1.5233,-1.5045,-1.5045,-1.4561,-1.3499,-1.1365,-1.117,-1.0288,-0.8134,-0.8038,-0.8038,-0.8038,-0.8038,-0.8038,-0.8038,-0.8038,-0.8038,-0.8038,-0.8038,-0.8038,-0.8038,-0.8038,-0.8038,-0.8038,-0.8038,-0.8038,0.5298,0.4801,0.4501,0.4515,0.4519,0.4556,0.4636,0.467,0.4481,0.3843,0.4391,0.4472,0.2879,0.2615,0.2327,0.1402,0.0603,0.0067,0.0,0.0,0.0,0.0,0.0,0.0,0.0,0.0,0.0,0.0,-0.0739,-0.1207,-0.1273,-0.2009,-0.2878,-0.3882,-0.392,-0.4466,-0.5448,-0.5722,-0.5932,-0.601,-0.6166,-0.624,-0.624,-0.6254,-0.7326,-0.9296,-1.1397,-1.2224,-1.215,-1.2224,-1.2305,-1.2305,-1.2305,-1.2305,-1.2305,-1.2305,-1.2305,-1.2305,-1.2305,-1.2305,-1.2305,-1.2305,-1.2485,-1.2788,-1.2815,-1.2946,-1.3173,-1.32,-1.34,-1.3614,-1.3552,-1.3841,-1.4055,-1.4082,-1.4088,-1.4088,-1.4088,-1.4088,-1.4088,-1.4088,-1.4088,-1.4269,-1.483,-1.4854,-1.4969,-1.5354,-1.4465,-1.368,-1.368,-1.2619,-1.1365,-1.0096,-0.9998,-0.941,-0.8137,-0.8038,-0.8038,-0.8038,-0.8038,-0.8038,-0.8038,-0.8038,-0.8038,-0.8038,-0.8038,-0.8038,-0.8038,-0.8038,-0.8038,-0.8038,-0.8038,-0.8038,0.5726,0.4987,0.4321,0.4433,0.4519,0.4525,0.456,0.4567,0.4532,0.4619,0.4262,0.3781,0.3411,0.2806,0.2082,0.1294,0.0975,0.0656,0.0067,0.0,0.0,0.0,0.0,0.0,0.0,0.0,0.0,0.0,-0.0202,-0.0605,-0.1274,-0.0873,-0.1343,-0.2945,-0.2478,-0.2931,-0.4466,-0.475,-0.5189,-0.585,-0.6006,-0.6078,-0.6084,-0.6207,-0.6945,-0.8313,-1.1093,-1.1848,-1.1162,-1.1996,-1.2305,-1.2305,-1.2305,-1.2305,-1.2305,-1.2305,-1.2305,-1.2305,-1.2305,-1.2305,-1.2305,-1.2305,-1.2345,-1.2445,-1.2755,-1.2869,-1.2899,-1.314,-1.3253,-1.3353,-1.3587,-1.3687,-1.3801,-1.4035,-1.4088,-1.4088,-1.4088,-1.4088,-1.4088,-1.4088,-1.4088,-1.4202,-1.4556,-1.3983,-1.3291,-1.2844,-1.2528,-1.2334,-1.2334,-1.2042,-1.1365,-1.0096,-0.9998,-0.941,-0.8137,-0.8038,-0.8038,-0.8038,-0.8038,-0.8038,-0.8038,-0.8038,-0.8038,-0.8038,-0.8038,-0.8038,-0.8038,-0.8038,-0.8038,-0.8038,-0.8038,-0.8038,0.6017,0.5599,0.5108,0.5015,0.4732,0.4519,0.4519,0.4519,0.4563,0.4667,0.4398,0.4145,0.4145,0.3467,0.2716,0.2384,0.1638,0.0951,0.058,0.0194,0.0,0.0,0.0,0.0,0.0,0.0,0.0,0.0,0.0,-0.0202,-0.0672,-0.0269,-0.0605,-0.2009,-0.2105,-0.2737,-0.4104,-0.4708,-0.5271,-0.5701,-0.585,-0.5959,-0.6034,-0.7171,-0.7783,-0.7931,-1.1019,-1.1694,-1.0864,-1.1922,-1.2305,-1.2305,-1.2305,-1.2305,-1.2305,-1.2305,-1.2305,-1.2305,-1.2305,-1.2305,-1.2305,-1.2305,-1.2305,-1.2331,-1.2485,-1.2532,-1.2565,-1.2732,-1.2879,-1.306,-1.336,-1.354,-1.3714,-1.4015,-1.4088,-1.4088,-1.4088,-1.4088,-1.4088,-1.4088,-1.3646,-1.3291,-1.3654,-1.2948,-1.2264,-1.1844,-1.1298,-1.0974,-1.0974,-1.0386,-0.9801,-0.9118,-0.9019,-0.8726,-0.8038,-0.8038,-0.8038,-0.8038,-0.8038,-0.8038,-0.8038,-0.8038,-0.8038,-0.8038,-0.8038,-0.8038,-0.8038,-0.8038,-0.8038,-0.8038,-0.8038,-0.8038,0.6274,0.6233,0.6085,0.5599,0.5058,0.4625,0.4515,0.4519,0.4519,0.4519,0.4562,0.4653,0.4653,0.4157,0.3693,0.3593,0.2377,0.1406,0.1291,0.0678,0.0187,0.0192,0.0064,0.0,0.0,0.0,0.0,0.0,0.0,0.0,0.0,0.0,-0.0337,-0.1074,-0.1942,-0.2878,-0.3747,-0.4798,-0.5411,-0.5552,-0.5694,-0.5857,-0.6034,-0.8107,-0.8429,-0.7706,-1.072,-1.1471,-1.064,-1.1842,-1.2305,-1.2305,-1.2305,-1.2305,-1.2305,-1.2305,-1.2305,-1.2305,-1.2305,-1.2305,-1.2305,-1.2305,-1.2305,-1.2305,-1.2305,-1.2305,-1.2305,-1.2305,-1.2397,-1.2579,-1.3046,-1.302,-1.3048,-1.3593,-1.3613,-1.3652,-1.3997,-1.4088,-1.4088,-1.4088,-1.3118,-1.2232,-1.2224,-1.1699,-1.1239,-1.1029,-1.0233,-0.9669,-0.9604,-0.8726,-0.8038,-0.8038,-0.8038,-0.8038,-0.8038,-0.8038,-0.8038,-0.8038,-0.8038,-0.8038,-0.8038,-0.8038,-0.8038,-0.8038,-0.8038,-0.8038,-0.8038,-0.8038,-0.8038,-0.8038,-0.8038,-0.8038,0.6395,0.6293,0.6085,0.5599,0.5433,0.5218,0.4625,0.4519,0.4519,0.4519,0.4532,0.4549,0.4549,0.4452,0.4166,0.346,0.3123,0.2797,0.2143,0.1415,0.0925,0.0929,0.0381,0.0,0.0,0.0,0.0,0.0,0.0,0.0,0.0,0.0,-0.0067,-0.0202,-0.1006,-0.1941,-0.2878,-0.3763,-0.4645,-0.5459,-0.5545,-0.5762,-0.603,-0.7228,-0.725,-0.6641,-0.9658,-1.0415,-0.9674,-1.1552,-1.2305,-1.2305,-1.2305,-1.2305,-1.2305,-1.2305,-1.2305,-1.2305,-1.2305,-1.2305,-1.2305,-1.2305,-1.2305,-1.2305,-1.2305,-1.2305,-1.2305,-1.2305,-1.1719,-1.1352,-1.2573,-1.166,-1.0697,-1.194,-1.1663,-1.1649,-1.3652,-1.4088,-1.4088,-1.4088,-1.3118,-1.1716,-0.992,-0.9552,-0.9154,-0.8435,-0.8211,-0.8178,-0.8219,-0.8137,-0.8038,-0.8038,-0.8038,-0.8038,-0.8038,-0.8038,-0.8038,-0.8038,-0.8038,-0.8038,-0.8038,-0.8038,-0.8038,-0.8038,-0.8038,-0.8038,-0.8038,-0.8038,-0.8038,-0.8038,-0.8038,-0.8038,0.7163,0.7048,0.6824,0.6737,0.6086,0.5433,0.5109,0.4787,0.4519,0.4519,0.4519,0.4519,0.4519,0.4519,0.4373,0.4038,0.3648,0.3266,0.2907,0.2214,0.1586,0.1137,0.079,0.0435,0.0064,0.0,0.0,0.0,0.0,0.0,0.0,0.0,0.0,0.0,-0.0873,-0.1742,-0.2678,-0.3547,-0.4486,-0.5428,-0.543,-0.5576,-0.5786,-0.6292,-0.6474,-0.649,-0.9508,-1.0265,-0.9448,-1.1477,-1.2305,-1.2305,-1.2305,-1.2305,-1.2305,-1.2305,-1.2305,-1.2305,-1.2305,-1.2305,-1.2305,-1.2305,-1.2305,-1.2305,-1.2305,-1.2305,-1.2305,-1.2305,-1.162,-1.0998,-1.1738,-1.0892,-1.0075,-1.0885,-1.0783,-1.0869,-1.1912,-1.2169,-1.1912,-1.1311,-1.0788,-0.9859,-0.8282,-0.8114,-0.8077,-0.7753,-0.776,-0.7865,-0.8021,-0.8038,-0.8038,-0.8038,-0.8038,-0.8038,-0.8038,-0.8038,-0.8038,-0.8038,-0.8038,-0.8038,-0.8038,-0.8038,-0.8038,-0.8038,-0.8038,-0.8038,-0.8038,-0.8038,-0.8038,-0.8038,-0.8038,-0.8038,0.7716,0.7694,0.7476,0.7647,0.6848,0.6032,0.5814,0.5273,0.4732,0.4732,0.4625,0.4519,0.4519,0.4519,0.4519,0.4519,0.4015,0.368,0.368,0.301,0.2308,0.1733,0.1343,0.0901,0.0317,0.0129,0.0,0.0,0.0,0.0,0.0,0.0,0.0,0.0,-0.0873,-0.1742,-0.2678,-0.3816,-0.4688,-0.5428,-0.5428,-0.5443,-0.5593,-0.5698,-0.5915,-0.6353,-0.8959,-0.9739,-0.9448,-1.1168,-1.207,-1.2305,-1.2003,-1.1922,-1.1922,-1.1626,-1.1552,-1.1552,-1.1552,-1.1552,-1.1552,-1.1552,-1.1552,-1.1552,-1.1552,-1.1552,-1.1552,-1.1552,-1.0789,-1.0154,-1.0582,-0.99,-0.925,-0.9737,-0.9814,-0.9831,-1.0438,-1.0611,-1.0265,-0.9148,-0.889,-0.854,-0.7316,-0.7238,-0.7377,-0.757,-0.7689,-0.7824,-0.8014,-0.8038,-0.8038,-0.8038,-0.8038,-0.8038,-0.8038,-0.8038,-0.8038,-0.8038,-0.8038,-0.8038,-0.8038,-0.8038,-0.8038,-0.8038,-0.8038,-0.8038,-0.8038,-0.8038,-0.8038,-0.8038,-0.8038,-0.8038,0.7716,0.7895,0.784,0.7705,0.7664,0.7396,0.6696,0.5982,0.5433,0.5433,0.4948,0.4519,0.4519,0.4519,0.4519,0.4519,0.446,0.4463,0.4463,0.379,0.3289,0.3183,0.1955,0.1071,0.1046,0.0381,0.0,0.0,0.0,0.0,0.0,0.0,0.0,0.0,-0.0873,-0.1742,-0.2678,-0.442,-0.5359,-0.5428,-0.5428,-0.5443,-0.5589,-0.5596,-0.5762,-0.6125,-0.7403,-0.8466,-0.9372,-1.0415,-1.1465,-1.2224,-1.1242,-1.0864,-1.0789,-0.982,-0.9448,-0.9448,-0.9448,-0.9448,-0.9448,-0.9448,-0.9448,-0.9448,-0.9448,-0.9448,-0.9448,-0.9448,-0.8765,-0.8165,-0.916,-0.8141,-0.7109,-0.8098,-0.7773,-0.7925,-1.0091,-1.0611,-1.0265,-0.9148,-0.889,-0.854,-0.7316,-0.7146,-0.7255,-0.7553,-0.7607,-0.7712,-0.8001,-0.8038,-0.8038,-0.8038,-0.8038,-0.8038,-0.8038,-0.8038,-0.8038,-0.8038,-0.8038,-0.8038,-0.8038,-0.8038,-0.8038,-0.8038,-0.8038,-0.8038,-0.8038,-0.8038,-0.8038,-0.8038,-0.8038,-0.8038,0.7468,0.7776,0.7927,0.812,0.7921,0.7616,0.7343,0.6745,0.6091,0.5597,0.5328,0.5003,0.457,0.4519,0.4519,0.4519,0.4519,0.4519,0.4519,0.4294,0.3735,0.273,0.2141,0.1441,0.0477,0.0182,0.0,0.0,0.0,0.0,0.0,0.0,0.0,0.0,-0.0324,-0.1186,-0.2678,-0.4486,-0.5428,-0.5428,-0.5428,-0.5456,-0.5447,-0.5545,-0.5647,-0.5755,-0.6262,-0.7554,-0.9372,-1.0415,-1.1391,-1.2224,-1.1168,-1.0783,-1.0708,-0.9669,-0.9296,-0.9296,-0.9296,-0.9296,-0.9296,-0.9296,-0.9296,-0.9296,-0.9296,-0.9296,-0.9296,-0.9296,-0.8542,-0.7859,-0.8237,-0.7505,-0.6829,-0.7361,-0.732,-0.7312,-0.8181,-0.8356,-0.8269,-0.7837,-0.7753,-0.7577,-0.7139,-0.7139,-0.7244,-0.7553,-0.76,-0.7706,-0.8001,-0.8038,-0.8038,-0.8038,-0.8038,-0.8038,-0.8038,-0.8038,-0.8038,-0.8038,-0.8038,-0.8038,-0.8038,-0.8038,-0.8038,-0.8038,-0.8038,-0.8038,-0.8038,-0.8038,-0.8038,-0.8038,-0.8038,-0.8038,0.7352,0.7615,0.7869,0.8277,0.8152,0.7939,0.8031,0.7289,0.648,0.5982,0.5492,0.5003,0.457,0.4519,0.4519,0.4519,0.4519,0.4519,0.4519,0.4519,0.4125,0.3121,0.2732,0.2091,0.0879,0.0529,0.0239,0.0,0.0,0.0,0.0,0.0,0.0,0.0,-0.0566,-0.1414,-0.2704,-0.4421,-0.5311,-0.5428,-0.5428,-0.5428,-0.5432,-0.5467,-0.5542,-0.5596,-0.5691,-0.6801,-0.8704,-0.9363,-1.029,-1.112,-1.0157,-0.9809,-0.9658,-0.8689,-0.8313,-0.8313,-0.8313,-0.8313,-0.8313,-0.8313,-0.8313,-0.8313,-0.8313,-0.8313,-0.8313,-0.8313,-0.7783,-0.7342,-0.732,-0.7031,-0.6841,-0.7082,-0.7139,-0.7139,-0.7139,-0.7139,-0.7139,-0.7139,-0.7139,-0.7139,-0.7139,-0.7139,-0.7244,-0.7553,-0.76,-0.7706,-0.8001,-0.8038,-0.8038,-0.8038,-0.8038,-0.8038,-0.8038,-0.8038,-0.8038,-0.8038,-0.8038,-0.8038,-0.8038,-0.8038,-0.8038,-0.8038,-0.8038,-0.8038,-0.8038,-0.8038,-0.8038,-0.8038,-0.8038,-0.8038,0.0,0.0,0.0,0.8216,0.8377,0.8464,0.8744,0.767,0.6642,0.6588,0.55,0.4574,0.4519,0.4519,0.4519,0.4519,0.4519,0.4519,0.4519,0.4519,0.4519,0.446,0.379,0.2992,0.2217,0.1523,0.0773,0.0061,0.0,0.0,0.0,0.0,0.0,0.0,-0.1598,-0.2552,-0.2691,-0.4296,-0.5209,-0.5428,-0.5428,-0.5428,-0.5428,-0.5428,-0.5443,-0.5583,-0.5583,-0.6212,-0.7279,-0.7406,-0.8144,-0.8973,-0.8152,-0.7774,-0.7702,-0.6641,-0.6338,-0.6338,-0.6338,-0.6338,-0.6338,-0.6338,-0.6338,-0.6338,-0.6338,-0.6338,-0.6338,-0.6338,-0.6338,-0.6295,-0.6441,-0.6702,-0.6963,-0.7105,-0.7139,-0.7139,-0.7139,-0.7139,-0.7139,-0.7139,-0.7139,-0.7139,-0.7139,-0.7143,-0.7251,-0.7553,-0.7604,-0.7709,-0.8001,-0.8038,-0.8038,-0.8038,-0.8038,-0.8038,-0.8038,-0.8038,-0.8038,-0.8038,-0.8038,-0.8038,-0.8038,-0.8038,-0.8038,-0.8038,-0.8038,-0.8038,-0.8038,-0.8038,-0.8038,-0.8038,-0.8038,-0.8038,0.7041,0.0,0.0,0.0,0.0,0.0,0.8791,0.848,0.7883,0.6804,0.6312,0.5714,0.468,0.4519,0.4519,0.4519,0.4519,0.4519,0.4519,0.4519,0.4294,0.368,0.3456,0.2854,0.1527,0.1246,0.0797,0.0058,0.0,0.0,0.0,0.0,0.0,0.0,-0.1606,-0.2559,-0.2691,-0.4296,-0.5209,-0.5428,-0.5428,-0.5428,-0.5428,-0.5428,-0.5452,-0.5423,-0.5423,-0.5645,-0.5973,-0.695,-0.7927,-0.8801,-0.7937,-0.7575,-0.7443,-0.6597,-0.6338,-0.6338,-0.6338,-0.6338,-0.6338,-0.6338,-0.6338,-0.6338,-0.6338,-0.6338,-0.6338,-0.6338,-0.6338,-0.6318,-0.6573,-0.6783,-0.6963,-0.7105,-0.7139,-0.7139,-0.7139,-0.7139,-0.7139,-0.7139,-0.7139,-0.7139,-0.7139,-0.7234,-0.7373,-0.757,-0.7689,-0.7821,-0.8014,-0.8038,-0.8038,-0.8038,-0.8038,-0.8038,-0.8038,-0.8038,-0.8038,-0.8038,-0.8038,-0.8038,-0.8038,-0.8038,-0.8038,-0.8038,-0.8038,-0.8038,-0.8038,-0.8038,-0.8038,-0.8038,-0.8038,-0.8038,0.7128,0.7468,0.7802,0.8056,0.0,0.0,0.8402,0.8103,0.7557,0.6362,0.5932,0.55,0.4625,0.4519,0.4519,0.4519,0.4519,0.4519,0.4519,0.4519,0.4349,0.3846,0.3846,0.34,0.212,0.173,0.1229,0.0504,0.0168,0.0,0.0,0.0,0.0,0.0,-0.1266,-0.2119,-0.2595,-0.388,-0.4798,-0.5267,-0.5332,-0.5428,-0.5428,-0.5428,-0.5428,-0.5428,-0.5428,-0.5428,-0.5439,-0.6222,-0.6892,-0.7394,-0.6945,-0.6845,-0.6849,-0.6356,-0.6207,-0.6338,-0.6338,-0.6338,-0.6338,-0.6338,-0.6338,-0.6338,-0.6338,-0.6338,-0.6338,-0.6338,-0.6302,-0.6403,-0.6637,-0.6814,-0.6963,-0.7105,-0.7139,-0.7139,-0.7139,-0.7139,-0.7139,-0.7139,-0.7139,-0.7139,-0.7139,-0.7268,-0.7424,-0.7577,-0.7719,-0.7865,-0.8021,-0.8038,-0.8038,-0.8038,-0.8038,-0.8038,-0.8038,-0.8038,-0.8038,-0.8038,-0.8038,-0.8038,-0.8038,-0.8038,-0.8038,-0.8038,-0.8038,-0.8038,-0.8038,-0.8038,-0.8038,-0.8038,-0.8038,-0.8038,0.7448,0.7587,0.7742,0.8293,0.8397,0.0,0.7941,0.7295,0.6632,0.5842,0.5245,0.4765,0.4601,0.4546,0.4553,0.4515,0.4519,0.4519,0.4519,0.4519,0.4519,0.4519,0.4519,0.4181,0.3398,0.273,0.2009,0.1174,0.0392,0.0,0.0,0.0,0.0,0.0,-0.0727,-0.1533,-0.2463,-0.3375,-0.4224,-0.5131,-0.527,-0.5345,-0.5428,-0.5428,-0.5428,-0.5428,-0.5428,-0.5428,-0.5428,-0.5428,-0.5443,-0.5579,-0.5722,-0.5871,-0.6006,-0.6023,-0.6129,-0.6338,-0.6338,-0.6338,-0.6338,-0.6338,-0.6338,-0.6338,-0.6338,-0.6338,-0.6338,-0.6338,-0.6363,-0.6508,-0.6661,-0.6814,-0.6963,-0.7105,-0.7139,-0.7139,-0.7139,-0.7139,-0.7139,-0.7139,-0.7139,-0.7139,-0.7139,-0.7282,-0.7444,-0.758,-0.7736,-0.7885,-0.8021,-0.8038,-0.8038,-0.8038,-0.8038,-0.8038,-0.8038,-0.8038,-0.8038,-0.8038,-0.8038,-0.8038,-0.8038,-0.8038,-0.8038,-0.8038,-0.8038,-0.8038,-0.8038,-0.8038,-0.8038,-0.8038,-0.8038,-0.8038,0.7822,0.8016,0.8272,0.8393,0.855,0.0,0.8633,0.848,0.8094,0.7143,0.684,0.6369,0.5217,0.4959,0.49,0.4553,0.4519,0.4519,0.4519,0.4519,0.4519,0.4519,0.4519,0.4184,0.3456,0.3176,0.2508,0.1174,0.0392,0.0,0.0,0.0,0.0,0.0,-0.0727,-0.1533,-0.2463,-0.3243,-0.4137,-0.5131,-0.5162,-0.524,-0.5428,-0.5428,-0.5428,-0.5428,-0.5428,-0.5428,-0.5428,-0.5428,-0.5446,-0.542,-0.5572,-0.5718,-0.5861,-0.5983,-0.6129,-0.6338,-0.6338,-0.6338,-0.6338,-0.6338,-0.6338,-0.6338,-0.6338,-0.6338,-0.6338,-0.6338,-0.6363,-0.6508,-0.6661,-0.6814,-0.6963,-0.7105,-0.7139,-0.7139,-0.7139,-0.7139,-0.7139,-0.7139,-0.7139,-0.7139,-0.7139,-0.737,-0.7563,-0.7594,-0.7824,-0.8007,-0.8035,-0.8038,-0.8038,-0.8038,-0.8038,-0.8038,-0.8038,-0.8038,-0.8038,-0.8038,-0.8038,-0.8038,-0.8038,-0.8038,-0.8038,-0.8038,-0.8038,-0.8038,-0.8038,-0.8038,-0.8038,-0.8038,-0.8038,-0.8038,0.815,0.8263,0.841,0.8557,0.8697,0.0,0.0,0.7943,0.7469,0.6596,0.6072,0.5539,0.4811,0.4655,0.4579,0.4395,0.4416,0.4519,0.4519,0.4519,0.4519,0.4519,0.4519,0.4349,0.3959,0.3231,0.212,0.0671,0.0224,0.0,0.0,0.0,0.0,0.0,-0.0336,-0.0958,-0.1775,-0.2617,-0.3512,-0.4357,-0.4869,-0.5172,-0.525,-0.5325,-0.5428,-0.5428,-0.5428,-0.5428,-0.5428,-0.5428,-0.5428,-0.5435,-0.5447,-0.5566,-0.5705,-0.5783,-0.5952,-0.6146,-0.6146,-0.6196,-0.6338,-0.6338,-0.6338,-0.6338,-0.6338,-0.6338,-0.6338,-0.6338,-0.6312,-0.6417,-0.6644,-0.6756,-0.6868,-0.7088,-0.7139,-0.7139,-0.7139,-0.7139,-0.7139,-0.7139,-0.7139,-0.7139,-0.7139,-0.7333,-0.7512,-0.7587,-0.7787,-0.7953,-0.8028,-0.8038,-0.8038,-0.8038,-0.8038,-0.8038,-0.8038,-0.8038,-0.8038,-0.8038,-0.8038,-0.8038,-0.8038,-0.8038,-0.8038,-0.8038,-0.8038,-0.8038,-0.8038,-0.8038,-0.8038,-0.8038,-0.8038,-0.8038,0.8457,0.8457,0.8517,0.8751,0.8699,0.848,0.0,0.0,0.0,0.5927,0.5169,0.4557,0.44,0.4327,0.4327,0.428,0.4365,0.4429,0.4515,0.4519,0.4519,0.4519,0.4519,0.4519,0.4519,0.3121,0.173,0.0504,0.0168,0.0,0.0,0.0,0.0,0.0,0.0,-0.0336,-0.1118,-0.2007,-0.2855,-0.3637,-0.4562,-0.5077,-0.5135,-0.526,-0.5332,-0.5428,-0.5428,-0.5428,-0.5428,-0.5428,-0.5428,-0.5428,-0.5428,-0.5454,-0.5589,-0.5589,-0.5776,-0.603,-0.603,-0.6132,-0.6338,-0.6338,-0.6338,-0.6338,-0.6338,-0.6338,-0.6338,-0.6338,-0.6338,-0.6329,-0.6624,-0.6702,-0.6773,-0.7068,-0.7139,-0.7139,-0.7139,-0.7139,-0.7139,-0.7139,-0.7139,-0.7139,-0.7139,-0.7292,-0.7458,-0.758,-0.7746,-0.7899,-0.8024,-0.8038,-0.8038,-0.8038,-0.8038,-0.8038,-0.8038,-0.8038,-0.8038,-0.8038,-0.8038,-0.8038,-0.8038,-0.8038,-0.8038,-0.8038,-0.8038,-0.8038,-0.8038,-0.8038,-0.8038,-0.8038,-0.8038,-0.8038,0.8758,0.8758,0.8764,0.8798,0.8315,0.7996,0.8533,0.0,0.6694,0.7012,0.0,0.578,0.5112,0.0,0.0,0.4504,0.4345,0.4317,0.4498,0.4519,0.4519,0.4519,0.4519,0.4519,0.4519,0.3121,0.212,0.1952,0.0727,0.0,0.0,0.0,0.0,0.0,0.0,-0.0336,-0.1118,-0.1849,-0.2675,-0.3632,-0.437,-0.4877,-0.5131,-0.5148,-0.5233,-0.5428,-0.5428,-0.5428,-0.5428,-0.5428,-0.5428,-0.5428,-0.5428,-0.5454,-0.5589,-0.5589,-0.5776,-0.603,-0.603,-0.6132,-0.6338,-0.6338,-0.6338,-0.6338,-0.6338,-0.6338,-0.6338,-0.6338,-0.6338,-0.6329,-0.6624,-0.6702,-0.6773,-0.7068,-0.7139,-0.7139,-0.7139,-0.7139,-0.7139,-0.7139,-0.7139,-0.7139,-0.7139,-0.738,-0.758,-0.7597,-0.7834,-0.8021,-0.8038,-0.8038,-0.8038,-0.8038,-0.8038,-0.8038,-0.8038,-0.8038,-0.8038,-0.8038,-0.8038,-0.8038,-0.8038,-0.8038,-0.8038,-0.8038,-0.8038,-0.8038,-0.8038,-0.8038,-0.8038,-0.8038,-0.8038,-0.8038,0.8804,0.8804,0.8804,0.8804,0.8262,0.7777,0.8103,0.7015,0.6013,0.6192,0.0,0.0,0.0,0.0,0.0,0.0,0.4358,0.4365,0.4341,0.4409,0.4519,0.4519,0.4519,0.4349,0.3901,0.2843,0.2009,0.1619,0.0616,0.0,0.0,0.0,0.0,0.0,0.0,-0.0168,-0.0448,-0.1619,-0.2415,-0.279,-0.4065,-0.4755,-0.488,-0.5053,-0.5165,-0.5233,-0.5321,-0.5428,-0.5428,-0.5428,-0.5428,-0.5428,-0.5428,-0.5466,-0.5457,-0.5457,-0.5644,-0.5898,-0.5898,-0.6057,-0.6338,-0.6338,-0.6338,-0.6338,-0.6338,-0.6338,-0.6338,-0.6338,-0.6338,-0.6329,-0.6624,-0.6702,-0.6773,-0.7068,-0.7139,-0.7139,-0.7139,-0.7139,-0.7139,-0.7139,-0.7139,-0.7139,-0.7139,-0.7322,-0.7499,-0.7587,-0.7777,-0.794,-0.8028,-0.8038,-0.8038,-0.8038,-0.8038,-0.8038,-0.8038,-0.8038,-0.8038,-0.8038,-0.8038,-0.8038,-0.8038,-0.8038,-0.8038,-0.8038,-0.8038,-0.8038,-0.8038,-0.8038,-0.8038,-0.8038,-0.8038,-0.8038,0.8804,0.8804,0.8752,0.8533,0.7937,0.7396,0.7396,0.6253,0.5273,0.5487,0.4858,0.0,0.0,0.0,0.4207,0.4247,0.0,0.4379,0.4317,0.4362,0.4402,0.4402,0.444,0.4184,0.3456,0.2676,0.1898,0.1174,0.0392,0.0,0.0,0.0,0.0,0.0,0.0,0.0,0.0,-0.1285,-0.2009,-0.2232,-0.3656,-0.4474,-0.4701,-0.4955,-0.5094,-0.5138,-0.5294,-0.5428,-0.5428,-0.5428,-0.5428,-0.5428,-0.5428,-0.5428,-0.5428,-0.5428,-0.5549,-0.58,-0.58,-0.6003,-0.6338,-0.6338,-0.6338,-0.6338,-0.6338,-0.6338,-0.6338,-0.6338,-0.6288,-0.6376,-0.6634,-0.6732,-0.6827,-0.7082,-0.7139,-0.7139,-0.7139,-0.7139,-0.7139,-0.7139,-0.7139,-0.7139,-0.7139,-0.7302,-0.7472,-0.7584,-0.7756,-0.7913,-0.8024,-0.8038,-0.8038,-0.8038,-0.8038,-0.8038,-0.8038,-0.8038,-0.8038,-0.8038,-0.8038,-0.8038,-0.8038,-0.8038,-0.8038,-0.8038,-0.8038,-0.8038,-0.8038,-0.8038,-0.8038,-0.8038,-0.8038,-0.8038,0.8804,0.8804,0.8646,0.7937,0.7182,0.6642,0.6642,0.5555,0.4736,0.5378,0.4944,0.4512,0.4512,0.4341,0.4241,0.4433,0.4341,0.0,0.0,0.4338,0.4204,0.4204,0.4379,0.4184,0.3456,0.2676,0.1898,0.1174,0.0392,0.0,0.0,0.0,0.0,0.0,0.0,0.0,0.0,-0.0727,-0.1507,-0.223,-0.307,-0.3863,-0.4697,-0.4853,-0.4999,-0.5138,-0.5294,-0.5428,-0.5428,-0.5428,-0.5428,-0.5428,-0.5428,-0.5428,-0.5428,-0.5428,-0.5549,-0.58,-0.58,-0.6003,-0.6338,-0.6338,-0.6338,-0.6338,-0.6338,-0.6338,-0.6338,-0.6338,-0.6359,-0.6502,-0.6661,-0.681,-0.6959,-0.7105,-0.7139,-0.7139,-0.7139,-0.7139,-0.7139,-0.7139,-0.7139,-0.7139,-0.7139,-0.739,-0.7594,-0.76,-0.7845,-0.8035,-0.8038,-0.8038,-0.8038,-0.8038,-0.8038,-0.8038,-0.8038,-0.8038,-0.8038,-0.8038,-0.8038,-0.8038,-0.8038,-0.8038,-0.8038,-0.8038,-0.8038,-0.8038,-0.8038,-0.8038,-0.8038,-0.8038,-0.8038,-0.8038,0.8804,0.8804,0.8752,0.848,0.7503,0.6588,0.6588,0.55,0.457,0.4787,0.468,0.4519,0.4519,0.4423,0.4406,0.4512,0.4423,0.4338,0.0,0.4039,0.4022,0.417,0.4237,0.4031,0.3392,0.2621,0.1898,0.1174,0.0392,0.0,0.0,0.0,0.0,0.0,0.0,0.0,0.0,-0.0727,-0.1452,-0.223,-0.2954,-0.3758,-0.4545,-0.4697,-0.485,-0.4999,-0.5145,-0.5267,-0.5428,-0.5428,-0.5428,-0.5428,-0.5428,-0.5024,-0.4553,-0.516,-0.5488,-0.5688,-0.5884,-0.6088,-0.6338,-0.6338,-0.6338,-0.6338,-0.6338,-0.6338,-0.6338,-0.6338,-0.6295,-0.639,-0.6637,-0.6739,-0.6841,-0.7082,-0.7139,-0.7139,-0.7139,-0.7139,-0.7139,-0.7139,-0.7139,-0.7139,-0.7139,-0.7397,-0.76,-0.76,-0.7767,-0.7926,-0.8028,-0.8038,-0.8038,-0.8038,-0.8038,-0.8038,-0.8038,-0.8038,-0.8038,-0.8038,-0.8038,-0.8038,-0.8038,-0.8038,-0.8038,-0.8038,-0.8038,-0.8038,-0.8038,-0.8038,-0.8038,-0.8038,-0.8038,-0.8038,0.8804,0.8804,0.8752,0.848,0.767,0.6853,0.6308,0.5496,0.4838,0.4838,0.468,0.4625,0.5171,0.4846,0.457,0.4842,0.468,0.4358,0.0,0.3982,0.4009,0.41,0.4164,0.3871,0.3,0.2452,0.1786,0.0783,0.028,0.0,0.0,0.0,0.0,0.0,0.0,0.0,0.0,-0.0448,-0.1062,-0.184,-0.2565,-0.3345,-0.4128,-0.4505,-0.4775,-0.4925,-0.5067,-0.5216,-0.5428,-0.5428,-0.5226,-0.4891,-0.4891,-0.435,-0.368,-0.4553,-0.5009,-0.5268,-0.5494,-0.5591,-0.5786,-0.618,-0.6025,-0.5786,-0.618,-0.6338,-0.6338,-0.6338,-0.6298,-0.6393,-0.6637,-0.6742,-0.6844,-0.7085,-0.7139,-0.7139,-0.7139,-0.7139,-0.7139,-0.7139,-0.7139,-0.7139,-0.7139,-0.6982,-0.697,-0.7496,-0.7767,-0.7929,-0.8028,-0.8038,-0.8038,-0.8038,-0.8038,-0.8038,-0.8038,-0.8038,-0.8038,-0.8038,-0.8038,-0.8038,-0.8038,-0.8038,-0.8038,-0.8038,-0.8038,-0.8038,-0.8038,-0.8038,-0.8038,-0.8038,-0.8038,-0.8038]},{"header":{"parameterUnit":"m.s-1","parameterCategory":1,"la1":30.6,"la2":29.2853,"lo1":-89.7004,"lo2":-87.6739,"dy":0.0162,"dx":0.0183,"nx":112,"ny":82,"refTime":"2024-08-14T18:00:00:Z","depth":0,"parameterNumber":3,"parameterNumberName":"V-component_of_WINDS"},"data":[0.0,0.0,0.0,0.0,0.0,0.0,0.0,0.0,0.0,0.0,0.0,0.0,0.0,0.0,0.0,0.0,0.0,0.0,0.0,0.0,0.0,0.0,0.0,0.0,0.0,0.0,0.0,0.0,0.0,0.0,0.0,0.0,0.0,0.0,0.0,0.0,0.0,0.0,0.0,0.0,0.0,0.0,0.0,0.0,0.0,0.0,0.0,0.0,0.0,0.0,0.0,0.0,0.0,0.0,0.0,0.0,0.0,0.0,0.0,0.0,0.0,0.0,0.0,0.0,0.0,0.0,0.0,0.0,0.0,0.0,0.0,0.0,0.0,0.0,0.0,0.0,0.0,0.0,0.0,0.0,0.0,0.0,0.0,0.0,0.0,0.0,0.0,0.0,0.0,0.0,1.9729,1.9453,1.9825,2.0093,2.0093,2.0584,2.0439,1.9237,0.0,0.0,0.0,0.0,0.0,0.0,0.0,0.0,0.0,0.0,0.0,0.0,0.0,0.0,0.0,0.0,0.0,0.0,0.0,0.0,0.0,0.0,0.0,0.0,0.0,0.0,0.0,0.0,0.0,0.0,0.0,0.0,0.0,0.0,0.0,0.0,0.0,0.0,0.0,0.0,0.0,0.0,0.0,0.0,0.0,0.0,0.0,0.0,0.0,0.0,0.0,0.0,0.0,0.0,0.0,0.0,0.0,0.0,0.0,0.0,0.0,0.0,0.0,0.0,0.0,0.0,0.0,0.0,0.0,0.0,0.0,0.0,0.0,0.0,0.0,0.0,0.0,0.0,0.0,0.0,0.0,0.0,0.0,0.0,0.0,0.0,0.0,0.0,0.0,0.0,0.0,0.0,0.0,0.0,0.0,0.0,0.0,0.0,0.0,0.0,0.0,0.0,0.0,0.0,1.976,2.1131,2.1356,2.1411,2.1411,2.1506,2.106,1.9853,0.0,0.0,0.0,0.0,0.0,0.0,0.0,0.0,0.0,0.0,0.0,0.0,0.0,0.0,0.0,0.0,0.0,0.0,0.0,0.0,0.0,0.0,0.0,0.0,0.0,0.0,0.0,0.0,0.0,0.0,0.0,0.0,0.0,0.0,0.0,0.0,0.0,0.0,0.0,0.0,0.0,0.0,0.0,0.0,0.0,0.0,0.0,0.0,0.0,0.0,0.0,0.0,0.0,0.0,0.0,0.0,0.0,0.0,0.0,0.0,0.0,0.0,0.0,0.0,0.0,0.0,0.0,0.0,0.0,0.0,0.0,0.0,0.0,0.0,0.0,0.0,0.0,0.0,0.0,0.0,0.0,0.0,0.0,0.0,0.0,0.0,0.0,0.0,0.0,0.0,0.0,0.0,0.0,0.0,0.0,0.0,0.0,0.0,0.0,0.0,0.0,0.0,0.0,2.0069,2.0424,2.1566,2.1697,2.1697,2.1697,2.2039,2.1716,2.0415,2.0174,0.0,0.0,0.0,0.0,0.0,0.0,0.0,0.0,0.0,0.0,0.0,0.0,0.0,0.0,0.0,0.0,0.0,0.0,0.0,0.0,0.0,0.0,0.0,0.0,0.0,0.0,0.0,0.0,0.0,0.0,0.0,0.0,0.0,0.0,0.0,0.0,0.0,0.0,0.0,0.0,0.0,0.0,0.0,0.0,0.0,0.0,0.0,0.0,0.0,0.0,0.0,0.0,0.0,0.0,0.0,0.0,0.0,0.0,0.0,0.0,0.0,0.0,0.0,0.0,0.0,0.0,0.0,0.0,0.0,0.0,0.0,0.0,0.0,0.0,0.0,0.0,0.0,0.0,0.0,0.0,0.0,0.0,0.0,0.0,0.0,0.0,0.0,0.0,0.0,0.0,0.0,0.0,0.0,0.0,0.0,0.0,0.0,0.0,0.0,0.0,0.0,0.0,2.1465,2.164,2.2076,2.2179,2.2179,2.2179,2.2491,2.2178,2.1032,2.0884,0.0,0.0,0.0,0.0,0.0,0.0,0.0,0.0,0.0,0.0,0.0,0.0,0.0,0.0,0.0,0.0,0.0,0.0,0.0,0.0,0.0,0.0,0.0,0.0,0.0,0.0,0.0,0.0,0.0,0.0,0.0,0.0,0.0,0.0,0.0,0.0,0.0,0.0,0.0,0.0,0.0,0.0,0.0,0.0,0.0,0.0,0.0,0.0,0.0,0.0,0.0,0.0,0.0,0.0,0.0,0.0,0.0,0.0,0.0,0.0,0.0,0.0,0.0,0.0,0.0,0.0,0.0,0.0,0.0,0.0,0.0,0.0,0.0,0.0,0.0,0.0,0.0,0.0,0.0,0.0,0.0,0.0,0.0,0.0,0.0,0.0,0.0,0.0,0.0,0.0,0.0,0.0,0.0,0.0,0.0,0.0,0.0,0.0,0.0,0.0,0.0,0.0,2.2392,2.3405,2.345,2.345,2.345,2.345,2.2986,2.2402,2.17,2.1034,0.0,0.0,0.0,0.0,0.0,0.0,0.0,0.0,0.0,0.0,0.0,0.0,0.0,0.0,0.0,0.0,0.0,0.0,0.0,0.0,0.0,0.0,0.0,0.0,0.0,0.0,0.0,0.0,0.0,0.0,0.0,0.0,0.0,0.0,0.0,0.0,0.0,0.0,0.0,0.0,0.0,0.0,0.0,0.0,0.0,0.0,0.0,0.0,0.0,0.0,0.0,0.0,0.0,0.0,0.0,0.0,0.0,0.0,0.0,0.0,0.0,0.0,0.0,0.0,0.0,0.0,0.0,0.0,0.0,0.0,0.0,0.0,0.0,0.0,0.0,0.0,0.0,0.0,0.0,0.0,0.0,0.0,0.0,0.0,0.0,0.0,0.0,0.0,0.0,0.0,0.0,0.0,0.0,0.0,0.0,0.0,0.0,0.0,0.0,0.0,0.0,0.0,2.2375,2.3176,2.355,2.3595,2.3595,2.3595,2.3385,2.2802,2.1769,0.0,0.0,0.0,0.0,0.0,0.0,0.0,0.0,0.0,0.0,0.0,0.0,0.0,0.0,0.0,0.0,0.0,0.0,0.0,0.0,0.0,0.0,0.0,0.0,0.0,0.0,0.0,0.0,0.0,0.0,0.0,0.0,0.0,0.0,0.0,0.0,0.0,0.0,0.0,0.0,0.0,0.0,0.0,0.0,0.0,0.0,0.0,0.0,0.0,0.0,0.0,0.0,0.0,0.0,0.0,0.0,0.0,0.0,0.0,0.0,0.0,0.0,0.0,0.0,0.0,0.0,0.0,0.0,0.0,0.0,0.0,0.0,0.0,0.0,0.0,0.0,0.0,0.0,0.0,0.0,0.0,0.0,0.0,0.0,0.0,0.0,0.0,0.0,0.0,0.0,0.0,0.0,0.0,0.0,0.0,0.0,0.0,0.0,0.0,0.0,0.0,0.0,2.1595,2.2443,2.3131,2.355,2.3595,2.3595,2.3595,2.3236,2.2622,2.1754,0.0,0.0,0.0,0.0,0.0,0.0,0.0,0.0,0.0,0.0,0.0,0.0,0.0,0.0,0.0,0.0,0.0,0.0,0.0,0.0,0.0,0.0,0.0,0.0,0.0,0.0,0.0,0.0,0.0,0.0,0.0,0.0,0.0,0.0,0.0,0.0,0.0,0.0,0.0,0.0,0.0,0.0,0.0,0.0,0.0,0.0,0.0,0.0,0.0,0.0,0.0,0.0,0.0,0.0,0.0,0.0,0.0,0.0,0.0,0.0,0.0,0.0,0.0,0.0,0.0,0.0,0.0,0.0,0.0,0.0,0.0,0.0,0.0,0.0,0.0,0.0,0.0,0.0,0.0,0.0,0.0,0.0,0.0,0.0,0.0,0.0,0.0,0.0,0.0,0.0,0.0,0.0,0.0,0.0,0.0,0.0,0.0,0.0,0.0,0.0,0.0,0.0,2.1695,2.2817,2.3595,2.3595,2.3595,2.3595,2.3595,2.2443,2.171,0.0,0.0,0.0,0.0,0.0,0.0,0.0,0.0,0.0,0.0,0.0,0.0,0.0,0.0,0.0,0.0,0.0,0.0,0.0,0.0,0.0,0.0,0.0,0.0,0.0,0.0,0.0,0.0,0.0,0.0,0.0,0.0,0.0,0.0,0.0,0.0,0.0,0.0,0.0,0.0,0.0,0.0,0.0,0.0,0.0,0.0,0.0,0.0,0.0,0.0,0.0,0.0,0.0,0.0,0.0,0.0,0.0,0.0,0.0,0.0,0.0,0.0,0.0,0.0,0.0,0.0,0.0,0.0,0.0,0.0,0.0,0.0,0.0,0.0,0.0,0.0,0.0,0.0,0.0,0.0,0.0,0.0,0.0,0.0,0.0,0.0,0.0,0.0,0.0,0.0,0.0,0.0,0.0,0.0,0.0,0.0,0.0,0.0,0.0,0.0,0.0,0.0,0.0,2.1695,2.2817,2.3595,2.3595,2.3595,2.3595,2.3595,2.2862,2.2188,2.1724,0.0,0.0,0.0,0.0,0.0,0.0,0.0,0.0,0.0,0.0,0.0,0.0,0.0,0.0,0.0,0.0,0.0,0.0,0.0,0.0,0.0,0.0,0.0,0.0,0.0,0.0,0.0,0.0,0.0,0.0,0.0,0.0,0.0,0.0,0.0,0.0,0.0,0.0,0.0,0.0,0.0,0.0,0.0,0.0,0.0,0.0,0.0,0.0,0.0,0.0,0.0,0.0,0.0,0.0,0.0,0.0,0.0,0.0,0.0,0.0,0.0,0.0,0.0,0.0,0.0,0.0,0.0,0.0,0.0,0.0,0.0,0.0,0.0,0.0,0.0,0.0,0.0,0.0,0.0,0.0,0.0,0.0,0.0,0.0,0.0,0.0,0.0,0.0,0.0,0.0,0.0,0.0,0.0,0.0,0.0,0.0,0.0,0.0,0.0,0.0,0.0,0.0,2.1695,2.2817,2.3595,2.3595,2.3595,2.3595,2.3595,2.2787,2.2113,2.1724,0.0,0.0,0.0,0.0,0.0,0.0,0.0,0.0,0.0,0.0,0.0,0.0,0.0,0.0,0.0,0.0,0.0,0.0,0.0,0.0,0.0,0.0,0.0,0.0,0.0,0.0,0.0,0.0,0.0,0.0,0.0,0.0,0.0,0.0,0.0,0.0,0.0,0.0,0.0,0.0,0.0,0.0,0.0,0.0,0.0,0.0,0.0,0.0,0.0,0.0,0.0,0.0,0.0,0.0,0.0,0.0,0.0,0.0,0.0,0.0,0.0,0.0,0.0,0.0,0.0,0.0,0.0,0.0,0.0,0.0,0.0,0.0,0.0,0.0,0.0,0.0,0.0,0.0,0.0,0.0,0.0,0.0,0.0,0.0,0.0,0.0,0.0,0.0,0.0,0.0,0.0,0.0,0.0,0.0,0.0,0.0,0.0,0.0,0.0,0.0,0.0,0.0,2.1695,2.2817,2.3595,2.3595,2.3595,2.3595,2.3595,2.2488,2.1754,2.1695,0.0,0.0,0.0,0.0,0.0,0.0,0.0,0.0,0.0,0.0,0.0,0.0,0.0,0.0,0.0,0.0,0.0,0.0,0.0,0.0,0.0,0.0,0.0,0.0,0.0,0.0,0.0,0.0,0.0,0.0,0.0,0.0,0.0,0.0,0.0,0.0,0.0,0.0,0.0,0.0,0.0,0.0,0.0,0.0,0.0,0.0,0.0,0.0,0.0,0.0,0.0,0.0,0.0,0.0,0.0,0.0,0.0,0.0,0.0,0.0,1.6684,1.6364,0.0,0.0,0.0,0.0,0.0,0.0,0.0,0.0,0.0,0.0,0.0,0.0,0.0,0.0,0.0,0.0,0.0,0.0,0.0,0.0,0.0,0.0,0.0,0.0,0.0,0.0,0.0,0.0,0.0,0.0,0.0,0.0,0.0,0.0,0.0,0.0,0.0,0.0,0.0,0.0,2.1695,2.2817,2.3595,2.3595,2.3595,2.3595,2.3595,2.2906,2.2248,2.1724,2.0946,0.0,0.0,0.0,0.0,0.0,0.0,0.0,0.0,0.0,0.0,0.0,0.0,0.0,0.0,0.0,0.0,0.0,0.0,0.0,0.0,0.0,0.0,0.0,0.0,0.0,0.0,0.0,0.0,0.0,0.0,0.0,0.0,0.0,0.0,0.0,0.0,0.0,0.0,0.0,0.0,0.0,0.0,0.0,0.0,0.0,0.0,0.0,0.0,0.0,0.0,0.0,0.0,0.0,0.0,0.0,0.0,0.0,0.0,0.0,1.7752,1.7641,0.0,0.0,0.0,0.0,0.0,0.0,0.0,0.0,0.0,0.0,0.0,0.0,0.0,0.0,0.0,0.0,0.0,0.0,0.0,0.0,0.0,0.0,0.0,0.0,0.0,0.0,0.0,0.0,0.0,0.0,0.0,0.0,0.0,0.0,0.0,0.0,0.0,0.0,0.0,0.0,2.1695,2.2817,2.3595,2.3595,2.3595,2.3595,2.3595,2.3041,2.2505,2.2009,2.1364,0.0,0.0,0.0,0.0,0.0,0.0,0.0,0.0,0.0,0.0,0.0,0.0,0.0,0.0,0.0,0.0,0.0,0.0,0.0,0.0,0.0,0.0,0.0,0.0,0.0,0.0,0.0,0.0,0.0,0.0,0.0,0.0,0.0,0.0,0.0,0.0,0.0,0.0,0.0,0.0,0.0,0.0,0.0,0.0,0.0,0.0,0.0,0.0,0.0,0.0,0.0,0.0,0.0,1.7806,1.8023,1.8867,1.8538,1.8573,1.8852,1.8433,1.8792,1.9645,1.9091,0.0,0.0,0.0,0.0,0.0,0.0,0.0,0.0,0.0,0.0,0.0,0.0,0.0,0.0,0.0,0.0,0.0,0.0,0.0,0.0,0.0,0.0,2.0483,2.1605,2.1859,2.1904,2.2009,0.0,0.0,0.0,0.0,0.0,0.0,0.0,0.0,0.0,0.0,0.0,2.1874,2.2996,2.3729,2.361,2.3666,2.3767,2.3767,2.3368,2.3004,2.2645,2.2113,2.1434,0.0,0.0,0.0,0.0,0.0,0.0,0.0,0.0,0.0,0.0,0.0,0.0,0.0,0.0,0.0,0.0,0.0,0.0,0.0,0.0,0.0,0.0,0.0,0.0,0.0,0.0,0.0,0.0,0.0,0.0,0.0,0.0,1.1852,1.3263,0.0,0.0,0.0,0.0,0.0,0.0,0.0,0.0,0.0,0.0,0.0,0.0,0.0,1.7127,1.8382,1.8124,1.8481,1.9468,1.9394,1.943,1.9555,1.9519,1.9519,1.9585,2.0094,0.0,1.9675,1.9585,0.0,0.0,0.0,0.0,0.0,0.0,0.0,0.0,0.0,0.0,0.0,0.0,0.0,0.0,0.0,0.0,0.0,0.0,0.0,0.0,0.0,0.0,2.2364,2.2544,2.2589,2.2697,2.3236,2.2473,2.1665,2.159,2.156,2.1545,0.0,0.0,0.0,0.0,0.0,0.0,2.2664,2.3684,2.4268,2.367,2.4032,2.4266,2.4266,2.4673,2.4598,2.3994,2.3866,2.3503,2.2806,2.2622,0.0,0.0,0.0,0.0,0.0,0.0,0.0,0.0,0.0,0.0,0.0,0.0,0.0,0.0,0.0,0.0,0.0,0.0,0.0,0.0,0.0,0.0,0.0,0.0,0.0,0.0,0.0,0.0,0.0,1.2537,1.3955,1.4315,1.4766,1.5155,0.0,0.0,0.0,0.0,0.0,0.0,0.0,0.0,0.0,1.8235,1.8302,1.8626,1.9256,1.9099,1.9248,1.969,1.969,1.969,1.969,2.0094,2.0258,2.0303,2.0976,2.1096,2.0812,2.0812,2.0812,2.0812,0.0,0.0,0.0,0.0,2.1006,2.1276,2.135,2.1321,2.1276,2.135,0.0,0.0,0.0,0.0,0.0,0.0,0.0,2.1784,2.2143,2.2499,2.2813,2.3116,2.3191,2.3266,2.3535,2.3728,2.3594,2.2915,2.3031,2.3046,2.2389,2.254,0.0,0.0,0.0,2.4162,2.4269,2.5029,2.543,2.5176,2.4948,2.4855,2.4855,2.5067,2.4992,2.4574,2.4525,2.4339,2.3951,2.3779,2.3522,0.0,0.0,0.0,0.0,0.0,0.0,0.0,0.0,0.0,0.0,0.0,0.0,0.0,0.0,0.0,0.0,0.0,0.0,0.0,0.0,0.0,0.0,0.0,0.0,0.0,0.0,0.0,0.0,1.4428,1.5562,1.5317,1.6256,1.6851,0.0,0.0,0.0,0.0,0.0,0.0,1.8022,1.8767,1.9301,1.9465,1.9944,2.0198,2.0198,2.0198,2.0198,2.0198,2.0198,2.0198,2.0213,2.0737,2.0961,2.0991,2.1665,2.1949,2.1934,2.1769,2.1695,2.1695,2.1695,2.1695,2.1695,2.1695,2.1799,2.1994,2.2308,2.2218,2.2024,2.2559,2.2009,2.1306,2.1799,0.0,0.0,0.0,0.0,2.2338,2.2996,2.3167,2.3262,2.3688,2.3921,2.4036,2.4261,2.5014,2.5383,2.4313,2.4599,2.4735,2.3815,2.404,0.0,2.3739,2.472,2.5623,2.5926,2.649,2.6679,2.6326,2.5931,2.5621,2.5427,2.5524,2.5481,2.5309,2.5276,2.5213,2.5067,2.4864,2.4509,2.3968,0.0,0.0,0.0,0.0,0.0,0.0,0.0,0.0,0.0,0.0,0.0,0.0,0.0,0.0,0.0,0.0,0.0,0.0,0.0,0.0,0.0,0.0,0.0,0.0,0.0,0.0,0.0,0.0,0.0,1.6593,1.7624,0.0,0.0,0.0,0.0,1.8563,1.8657,1.9211,2.046,2.055,2.0902,2.153,2.1575,2.159,2.159,2.159,2.159,2.159,2.159,2.159,2.1605,2.1635,2.165,2.168,2.2338,2.2664,2.2619,2.1949,2.1695,2.1695,2.1695,2.1695,2.1695,2.1695,2.2084,2.2547,2.1949,2.2143,2.2679,2.2709,2.2664,2.2619,2.2664,2.2664,0.0,0.0,2.3505,2.367,2.4358,2.4405,2.4302,2.4348,2.4752,2.532,2.6007,2.6206,2.6077,2.5508,2.5936,2.637,2.6339,0.0,2.6324,2.6324,2.7367,2.7977,2.7377,2.7875,2.7795,2.6423,2.671,2.6735,2.6026,2.6367,2.6607,2.6607,2.659,2.659,2.659,2.593,2.5541,2.5507,2.4103,0.0,0.0,0.0,0.0,0.0,0.0,0.0,0.0,0.0,0.0,0.0,0.0,0.0,0.0,0.0,0.0,0.0,0.0,0.0,0.0,0.0,0.0,0.0,0.0,0.0,0.0,0.0,0.0,1.7853,1.8748,0.0,1.808,1.8208,1.8807,1.9914,2.0004,2.0393,2.1291,2.1335,2.1455,2.168,2.1695,2.1695,2.1695,2.1695,2.1695,2.1695,2.1695,2.1695,2.171,2.2143,2.2323,2.2368,2.2996,2.3266,2.3251,2.3011,2.2921,2.2921,2.2921,2.2921,2.2921,2.2921,2.3071,2.3236,2.3011,2.3307,2.3779,2.3779,2.3546,2.3266,2.3266,2.358,2.3984,2.4193,2.4849,2.5523,2.5768,2.5737,2.5726,2.6211,2.6094,2.6102,2.6832,2.7648,2.8192,2.7972,2.8142,2.8178,2.7778,2.8035,2.8178,2.7778,2.843,2.9066,2.9221,2.9395,2.9281,2.8805,2.849,2.7995,2.7224,2.7314,2.7215,2.6725,2.6691,2.6691,2.6691,2.6437,2.6082,2.5625,2.5084,2.4357,0.0,0.0,0.0,0.0,0.0,0.0,0.0,0.0,0.0,0.0,0.0,0.0,0.0,0.0,0.0,0.0,0.0,0.0,0.0,0.0,0.0,0.0,0.0,0.0,0.0,1.9154,1.9722,1.9024,1.9887,2.0176,1.9223,1.9208,1.9712,2.0812,2.0768,2.1096,2.1979,2.2024,2.2113,2.2323,2.2338,2.2338,2.2338,2.2338,2.2338,2.2338,2.2338,2.2338,2.2353,2.2787,2.2981,2.3011,2.343,2.3724,2.3879,2.3681,2.3724,2.3837,2.3681,2.3595,2.3595,2.3595,2.3595,2.3595,2.3595,2.3837,2.4116,2.4116,2.4185,2.4255,2.4255,2.5024,2.5876,2.586,2.6479,2.713,2.713,2.7035,2.7081,2.7535,2.7427,2.7414,2.8158,2.8956,2.9642,2.9876,2.9764,2.9486,2.9118,2.9344,2.9486,2.9118,2.9568,3.0109,3.0551,3.0516,3.0378,3.0142,2.9651,2.8941,2.7874,2.7789,2.7503,2.6742,2.6691,2.6691,2.6691,2.6454,2.6218,2.5981,2.5981,2.5372,2.4137,0.0,0.0,0.0,0.0,0.0,0.0,0.0,0.0,0.0,0.0,0.0,0.0,0.0,0.0,0.0,0.0,0.0,0.0,0.0,0.0,0.0,0.0,0.0,1.9503,2.0157,2.0488,2.0104,2.0975,2.1199,2.0138,2.0222,2.0624,2.127,2.097,2.1335,2.2679,2.2739,2.2981,2.358,2.3595,2.3595,2.3595,2.3595,2.3595,2.3595,2.3595,2.3595,2.3595,2.3595,2.3595,2.3595,2.3595,2.3921,2.4348,2.3837,2.3906,2.4348,2.3794,2.3595,2.3638,2.3595,2.3595,2.3638,2.3681,2.3638,2.3638,2.3696,2.4506,2.5512,2.5528,2.6909,2.8394,2.8405,2.8437,2.8485,2.8485,2.8372,2.8285,2.8301,2.8678,2.9228,2.9989,3.0142,3.0362,3.1055,3.074,3.0351,3.0351,3.0351,3.0351,3.0351,3.0838,0.0,3.119,3.119,3.092,3.0226,3.0142,2.9533,2.7992,2.784,2.7537,2.6776,2.6708,2.6708,2.6725,2.6048,2.5998,2.6708,2.6725,2.637,2.5642,0.0,0.0,0.0,0.0,0.0,0.0,0.0,0.0,0.0,0.0,0.0,0.0,0.0,0.0,0.0,0.0,0.0,0.0,0.0,0.0,0.0,2.0006,2.0829,2.0723,2.1362,2.1673,2.1196,2.1437,2.1348,2.0798,2.1261,2.1724,2.2013,2.2409,2.2873,2.3338,2.334,2.343,2.3595,2.3595,2.3595,2.3595,2.3595,2.3595,2.3595,2.3595,2.3595,2.3595,2.3595,2.3595,2.3638,2.3991,2.4266,2.4389,2.4225,2.4266,2.4348,2.3794,2.3837,2.4116,2.3752,2.3837,2.4266,2.5067,2.4831,2.44,2.5695,2.5837,2.5675,2.6582,2.7614,2.8405,2.8405,2.9049,2.9786,2.9786,2.9689,2.9715,3.0236,3.0099,3.0006,3.0734,3.0903,3.0954,3.1157,3.1055,3.0958,3.0958,3.0958,3.0958,3.0958,3.1095,3.119,3.119,3.119,3.1123,3.092,3.0903,3.0514,2.9567,2.8975,2.8332,2.7554,2.6996,2.6945,2.7486,2.7317,2.73,2.7503,2.752,2.73,0.0,0.0,0.0,0.0,0.0,0.0,0.0,0.0,0.0,0.0,0.0,0.0,0.0,0.0,0.0,0.0,0.0,0.0,0.0,0.0,0.0,0.0,2.0986,2.1651,2.1651,2.204,2.2209,2.1928,2.1899,2.1927,2.1995,2.2215,2.2634,2.3294,2.3607,2.3779,2.3918,2.3964,2.3964,2.3964,2.3724,2.3724,2.3906,2.3964,2.3964,2.3964,2.3964,2.3964,2.3964,2.3964,2.3964,2.3964,2.4511,2.4855,2.5028,2.4592,2.4657,2.4973,0.0,0.0,0.0,0.0,2.4471,2.4776,2.5182,2.5258,2.5336,2.615,2.672,2.724,2.7972,2.8854,2.9551,2.9551,3.0104,3.0658,3.0658,3.0616,3.0666,3.1089,3.0869,3.0683,3.1106,3.119,3.119,3.119,3.119,0.0,3.119,3.119,3.119,3.119,3.119,3.119,3.119,3.119,3.119,3.119,3.119,3.0903,3.0176,2.9702,0.0,0.0,0.0,2.7706,2.7789,2.8129,0.0,0.0,0.0,0.0,0.0,0.0,0.0,0.0,3.0751,3.1275,0.0,0.0,0.0,0.0,0.0,0.0,0.0,0.0,0.0,0.0,0.0,0.0,0.0,0.0,0.0,0.0,2.183,2.231,2.231,2.231,2.231,2.231,2.231,2.2598,2.3325,2.3109,2.3439,2.4707,2.4571,2.4451,2.448,2.4511,0.0,0.0,0.0,2.3991,2.4511,2.4511,2.4511,2.4511,2.4511,2.4511,2.4511,2.4511,2.4511,2.4511,2.5067,2.5577,2.5924,2.4973,2.5144,2.5888,2.4934,2.4536,2.4552,2.5166,2.5335,2.5221,2.4816,0.0,0.0,2.6009,2.7428,2.932,2.9443,3.0319,3.119,3.119,3.119,3.119,3.119,3.119,3.119,3.119,3.119,3.119,3.119,3.119,3.119,3.119,3.119,3.119,3.119,3.119,3.119,3.119,3.119,3.119,3.119,3.119,3.119,3.119,3.119,0.0,3.0294,3.0159,2.982,2.9161,2.911,2.8789,2.8076,2.8878,2.9195,2.8878,3.0299,3.1635,3.2823,3.3555,3.4572,3.5747,3.2814,3.306,0.0,0.0,0.0,0.0,0.0,0.0,0.0,0.0,0.0,0.0,0.0,0.0,0.0,0.0,0.0,2.1437,2.1905,2.231,2.231,2.231,2.231,2.231,2.231,2.2598,2.3325,2.3857,2.4342,2.4791,2.533,2.5468,2.5051,2.5067,2.5067,2.5067,2.4934,2.495,2.5051,2.5067,2.5067,2.5067,2.5067,0.0,2.5067,2.5067,2.5067,2.5067,2.5615,2.5888,2.5961,2.5779,2.5815,2.5977,2.5762,2.5411,2.5182,2.6087,2.6175,2.5888,2.6158,2.6548,2.7087,2.8023,2.8766,2.9499,3.0532,3.0993,0.0,3.119,3.119,3.119,3.119,3.119,3.119,3.119,3.119,3.119,3.119,3.119,3.119,3.119,3.119,3.119,3.119,3.119,3.119,3.119,3.119,3.119,3.119,3.119,3.119,3.119,3.119,3.114,3.1004,3.0446,3.004,2.9905,2.9888,2.982,2.9668,3.0685,3.1251,3.1237,3.2458,3.3463,3.4109,3.4871,3.5905,3.7094,3.546,3.5581,0.0,0.0,0.0,0.0,0.0,0.0,0.0,0.0,0.0,0.0,0.0,2.1534,2.1327,0.0,2.2387,2.2363,2.2314,2.2349,2.2473,2.2388,2.231,2.231,2.231,2.2733,2.3833,2.4286,2.4837,2.5681,2.6115,2.6139,2.5615,2.5615,2.5615,2.5615,2.5335,2.5335,2.5615,2.5615,2.5615,2.5615,2.5615,2.5615,2.5615,2.5615,2.5615,2.5615,2.6139,2.6367,2.6367,2.6367,2.6227,2.5997,2.6262,2.6175,2.6016,2.6505,2.6539,2.6417,2.6766,2.742,2.8172,2.8908,2.9644,3.0352,3.0993,3.119,3.119,3.119,3.119,3.119,3.119,3.119,3.119,3.119,3.119,3.119,3.119,3.119,3.119,3.119,3.119,3.119,3.119,3.119,3.119,3.119,3.119,3.119,3.119,3.119,3.119,3.119,3.119,3.119,3.119,3.1049,3.1131,3.1545,3.1804,3.2088,3.247,3.3036,3.3477,3.377,3.4363,3.5119,3.5994,3.6377,3.7058,3.8083,3.7862,3.8094,0.0,0.0,0.0,0.0,0.0,0.0,0.0,2.0307,2.1016,2.1181,2.2299,2.3123,2.2775,2.3048,2.3277,2.3212,2.2798,2.2517,2.2686,2.2527,2.2377,2.231,2.231,2.2885,2.4371,2.4506,2.5133,2.6573,2.6691,2.6539,2.6156,2.6156,2.6156,2.6156,2.5726,2.5689,2.612,2.6156,2.6156,2.6156,2.6156,2.6156,2.6156,2.6156,2.6156,2.6156,2.6556,2.6691,2.6691,2.6691,2.6554,2.6407,2.6774,2.6996,2.7114,2.6962,2.7012,2.7181,2.7378,2.8243,2.9259,2.9415,3.0235,3.119,3.119,3.119,3.119,3.119,3.119,3.119,3.119,3.119,3.119,3.119,3.119,3.119,3.119,3.1309,3.141,3.141,3.1529,3.163,3.163,3.163,3.1529,3.1241,3.119,3.119,3.119,3.119,3.1241,3.1393,3.141,3.1501,3.1754,3.2182,3.2701,3.3419,3.3759,3.4215,3.4871,3.4976,3.527,3.5814,3.591,3.6534,3.7716,3.7716,3.8065,3.8726,3.9533,3.99,1.9097,1.9913,2.1154,2.1745,2.1802,2.2103,0.0,2.3248,2.2923,2.3639,2.3933,2.3966,2.3648,2.3617,2.3544,2.3236,2.3141,2.2996,2.2746,2.2669,2.2563,2.2321,2.231,2.2885,2.4371,2.4506,2.5133,2.6573,2.6691,2.6691,2.6624,2.6624,2.6624,2.6624,2.6573,2.6539,2.6624,2.6624,2.6624,2.6624,2.6624,2.6624,2.6624,2.6624,2.6624,2.6624,2.6691,2.6691,2.6691,2.6691,2.7063,2.7584,2.7654,2.8112,2.8636,2.7943,2.8129,2.8738,2.8786,2.931,2.9989,2.9998,3.056,3.119,3.119,3.119,3.119,3.119,3.119,3.119,3.119,3.119,3.119,3.119,3.119,3.119,3.119,3.1698,3.2195,3.2195,3.2696,3.3152,3.3152,3.3152,3.2713,3.1393,3.119,3.119,3.119,3.119,3.1444,3.2127,3.2195,3.265,3.3775,3.4284,3.4606,3.4694,3.4729,3.4817,3.4906,3.5316,3.5872,3.666,3.7082,3.7704,3.8579,3.8579,3.8615,3.8726,3.9533,3.99,2.1668,2.2066,2.2365,2.3146,2.3493,2.3671,2.3866,2.3798,2.3786,2.4135,2.419,2.4151,2.4016,2.3837,2.3714,2.3774,2.3437,2.3141,2.3021,2.2822,2.266,2.2537,2.2762,2.3342,2.4404,2.4506,2.5133,2.6573,2.6691,2.6691,2.6691,2.6691,2.6691,2.6691,2.6691,2.6691,2.6691,2.6691,2.6691,2.6691,2.6691,2.6691,2.6691,2.6691,2.6928,2.7385,2.7824,2.8027,2.8027,2.8027,2.8213,2.8501,2.8501,2.8975,2.955,2.8772,2.8704,2.9042,2.9482,2.9837,3.0176,3.0598,3.0954,3.119,3.119,3.119,3.119,3.119,3.119,3.119,3.119,3.119,3.1309,3.1732,3.1833,3.1952,3.2391,3.2713,3.2933,3.2933,3.3186,3.3406,3.3406,3.3406,3.3203,3.2577,3.2476,3.2476,3.2476,3.2476,3.2594,3.2899,3.3242,3.3623,3.4168,3.4871,3.5513,3.598,3.6266,3.6612,3.7084,3.7298,3.7575,3.789,3.8083,3.8358,3.8707,3.8707,3.8946,3.9423,4.023,4.0855,2.2999,2.3298,2.3309,2.3946,2.448,2.4671,2.4016,2.4113,2.4339,2.4284,2.4284,2.4284,2.4284,2.4037,2.3917,2.417,2.3795,2.3437,2.3346,2.3045,2.2848,2.2848,2.3072,2.3573,2.4556,2.4723,2.5321,2.659,2.6691,2.6691,2.6691,2.6691,2.6691,2.6691,2.6691,2.6691,2.6691,2.6691,2.6691,2.6691,2.6691,2.681,2.6996,2.6996,2.7418,2.8163,2.8518,2.8789,2.9011,2.9011,2.911,2.9296,2.9296,2.9753,3.0345,2.9786,2.96,2.9668,3.0226,3.0412,3.0497,3.1021,3.119,3.119,3.119,3.119,3.119,3.119,3.119,3.119,3.119,3.119,3.1376,3.2104,3.2313,3.2493,3.3237,3.3558,3.3711,3.3711,3.388,3.4015,3.4015,3.4015,3.4015,3.4015,3.4015,3.3863,3.3457,3.3592,3.3736,3.3904,3.457,3.5063,3.5214,3.5998,3.6712,3.7293,3.7637,3.8083,3.8689,3.8707,3.8707,3.8707,3.8707,3.8707,3.8707,3.8927,3.9331,3.9918,4.0946,4.1754,2.1894,2.2849,2.4076,2.409,2.4539,2.4962,2.4809,2.4771,2.4731,2.4545,2.4495,2.4495,2.4495,2.4321,2.419,2.419,2.417,2.4054,2.3714,2.3392,2.3189,2.3189,2.2915,2.3309,2.4838,2.5337,2.5879,2.664,2.6691,2.6691,2.6691,2.6691,2.6691,2.6691,2.6691,2.6691,2.6691,2.6691,2.6691,2.6691,2.6691,2.708,2.7755,2.7755,2.8213,2.8907,2.8163,2.8281,2.9011,2.9011,2.9414,3.0074,3.0074,3.0531,3.1157,3.114,3.1123,3.114,3.1157,3.1157,3.1157,3.119,3.119,3.119,3.119,3.119,3.119,3.119,3.119,3.119,3.119,3.119,3.1376,3.2104,3.2313,3.2493,3.3237,3.3964,3.4455,3.4455,3.5047,3.5554,3.5554,3.5554,3.5554,3.5554,3.5554,3.503,3.3592,3.4015,3.4653,3.5198,3.6355,3.7288,3.7753,3.8277,3.8603,3.8621,3.867,3.867,3.8707,3.8707,3.8707,3.8707,3.8707,3.8707,3.8707,3.9478,3.9863,3.9937,4.1534,4.2286,2.3767,2.4147,2.4273,2.4764,2.4941,2.4998,2.4937,2.485,2.4775,2.4716,2.47,2.4654,2.451,2.4444,2.4357,2.4228,2.419,2.4074,2.3753,2.3588,2.3741,2.4262,2.4477,2.5059,2.633,2.5708,2.5637,2.6623,2.6691,2.6691,2.6691,2.6691,2.6691,2.6691,2.6691,2.6691,2.6691,2.6691,2.6945,2.7452,2.796,2.8349,2.8602,2.911,2.9482,2.9736,2.9956,3.0209,3.0446,3.0446,3.0598,3.0835,3.0835,3.097,3.119,3.119,3.119,3.119,3.119,3.119,3.119,3.119,3.119,3.119,3.119,3.119,3.119,3.119,3.119,3.119,3.119,3.1546,3.2104,3.2848,3.3389,3.3947,3.4709,3.5064,3.5233,3.5233,3.5453,3.5622,3.5622,3.5622,3.5739,3.6054,3.6139,3.595,3.5452,3.5902,3.6361,3.6517,3.7236,3.772,3.7911,3.8382,3.8707,3.8707,3.8707,3.8707,3.8707,3.8707,3.8707,3.8707,3.8707,3.8964,3.9496,3.9772,4.0451,4.1515,4.2047,4.2598,2.4584,2.4605,2.4387,2.5153,2.5225,2.5088,2.5022,2.4993,2.4949,2.4896,2.4864,2.4828,2.4639,2.4561,2.4426,2.4228,2.419,2.4113,2.3917,2.4009,2.4368,2.5002,2.5458,2.6108,2.7114,2.6339,2.6109,2.6869,2.6906,2.6841,2.6725,2.6691,2.6691,2.6691,2.6962,2.7097,2.7097,2.7368,2.7757,2.8247,2.9025,2.9381,2.9397,2.9888,3.0243,3.0497,3.0717,3.0954,3.119,3.119,3.119,3.119,3.119,3.119,3.119,3.119,3.119,3.119,3.119,3.119,3.119,3.119,3.119,3.119,3.119,3.119,3.119,3.119,3.119,3.1258,3.1512,3.1935,3.2527,3.3558,3.415,3.4692,3.5453,3.5622,3.5622,3.5622,3.5622,3.5622,3.5622,3.5783,3.6054,3.662,3.6825,3.6865,3.6724,3.6999,3.7248,3.7433,3.772,3.798,3.8183,3.8496,3.8707,3.8707,3.8707,3.8707,3.8707,3.8707,3.8707,3.8707,3.8982,3.9386,3.99,4.0469,4.1295,4.2304,4.2598,4.3002,2.4378,2.4323,2.4457,2.5221,2.5346,2.5244,2.5057,2.5163,2.5253,2.5046,2.5022,2.4974,2.4828,2.4654,2.4462,2.4302,2.4246,2.4208,2.4263,2.4644,2.5052,2.5417,2.5885,2.6483,2.7236,2.7308,2.7334,2.7409,2.7334,2.7164,2.6809,2.6775,2.6775,2.6775,2.7521,2.791,2.791,2.8689,2.9042,2.9096,2.9803,3.0176,3.0176,3.0176,3.0548,3.1157,3.0463,3.0548,3.119,3.119,3.119,3.119,3.119,3.119,3.119,3.119,3.119,3.119,3.119,3.119,3.119,3.119,3.119,3.119,3.119,3.119,3.1207,3.1241,3.1258,3.141,3.2138,3.2357,3.2747,3.415,3.4523,3.4742,3.547,3.5622,3.5622,3.5622,3.5622,3.5622,3.5622,3.6054,3.6603,3.7135,3.7614,3.772,3.7285,3.7266,3.7433,3.7911,3.7946,3.815,3.8676,3.8707,3.8707,3.8707,3.8707,3.8707,3.8707,3.8707,3.8707,3.8707,3.9478,3.9918,3.9955,4.1534,4.2323,4.2378,4.313,4.3497,2.5102,2.5264,2.5274,2.537,2.5391,2.5343,2.5254,2.5264,2.5293,2.5224,2.5224,2.5182,2.4974,2.4842,2.4861,2.5244,2.469,2.441,2.5017,2.5214,2.5541,2.6227,2.6915,2.7675,2.8461,2.8529,2.8676,2.8998,2.7947,2.7514,2.8021,2.7726,2.7692,2.8023,2.8765,2.9144,2.9144,2.9581,2.982,2.9837,3.0565,3.092,3.092,3.092,3.1021,3.119,3.1004,3.1021,3.119,3.119,3.119,3.119,3.119,3.119,3.119,3.119,3.119,3.119,3.119,3.119,3.119,3.119,3.119,3.119,3.119,3.119,3.1309,3.185,3.2002,3.2171,3.2933,3.3525,3.4015,3.4404,3.4928,3.5385,3.5571,3.5622,3.5622,3.5622,3.5622,3.5739,3.6139,3.6291,3.6724,3.7578,3.7825,3.7859,3.772,3.8083,3.835,3.8465,3.8515,3.8546,3.8707,3.8707,3.8707,3.8707,3.8707,3.8707,3.8707,3.8707,3.8707,3.8707,3.9478,4.0194,4.0799,4.1809,4.2598,4.3185,4.3387,4.3497,2.5522,2.5611,2.5573,2.5517,2.5447,2.5391,2.5346,2.5312,2.5303,2.5303,2.5303,2.5253,2.5034,2.4891,2.4881,2.5144,2.4931,2.4869,2.5348,2.6009,2.6612,2.7071,2.7842,2.8503,2.8957,2.9305,2.9771,3.0345,2.9114,2.8594,2.9232,2.903,2.903,2.9285,3.0021,3.045,3.0578,3.094,3.1074,3.0871,3.1281,3.147,3.1449,3.1291,3.119,3.119,3.119,3.119,3.119,3.119,3.119,3.119,3.119,3.119,3.119,3.119,3.119,3.119,3.119,3.141,3.1613,3.1309,3.119,3.1258,3.1562,3.1664,3.1833,3.2577,3.278,3.2949,3.3694,3.4184,3.4573,3.4912,3.5318,3.5622,3.5622,3.5622,3.5622,3.5622,3.5783,3.6139,3.6643,3.6904,3.7323,3.815,3.8267,3.8267,3.8267,3.8496,3.8707,3.8707,3.8707,3.8707,3.8707,3.8707,3.8707,3.8707,3.8707,3.8707,3.8707,3.8707,3.8872,3.9221,4.0029,4.0818,4.1644,4.2433,4.3057,4.3497,4.3497,4.3497,2.5703,2.566,2.5607,2.5603,2.5517,2.5415,2.5394,2.5354,2.5313,2.5293,2.5303,2.5253,2.5077,2.4917,2.4794,2.4708,2.5042,2.5351,2.5531,2.6759,2.7677,2.7787,2.8521,2.8994,2.8994,2.9732,3.0522,3.1329,3.0527,3.0152,3.0523,3.048,3.0503,3.067,3.1311,3.1744,3.1969,3.235,3.2316,3.188,3.1825,3.1789,3.1789,3.1449,3.1252,3.119,3.1269,3.1252,3.119,3.119,3.119,3.119,3.119,3.119,3.119,3.119,3.119,3.119,3.119,3.1664,3.2171,3.1546,3.141,3.1613,3.2239,3.2425,3.2594,3.3339,3.3558,3.3728,3.4455,3.4641,3.481,3.547,3.5622,3.5622,3.5622,3.5667,3.5694,3.5694,3.6139,3.6643,3.7114,3.7578,3.8065,3.8627,3.8707,3.8707,3.8707,3.8707,3.8707,3.8707,3.8707,3.8707,3.8707,3.8707,3.8707,3.8707,3.8799,3.8854,3.8854,3.8964,3.935,4.0047,4.0855,4.1607,4.2304,4.3112,4.3497,4.3497,4.3497,4.3497,2.5703,2.5683,2.5662,2.5607,2.5573,2.5539,2.5428,2.5398,2.5379,2.5313,2.5303,2.5303,2.5253,2.5088,2.5145,2.5649,2.5138,2.506,2.6229,2.6631,2.7053,2.7714,2.8521,2.8994,2.8994,2.9732,3.0522,3.1329,3.1829,3.1974,3.1812,3.1421,3.1676,3.2661,3.2835,3.2901,3.2983,3.2648,3.2451,3.2366,3.2004,3.1789,3.1789,3.1733,3.1507,3.123,3.1528,3.1507,3.119,3.119,3.119,3.119,3.119,3.119,3.119,3.119,3.119,3.119,3.119,3.1664,3.2256,3.2138,3.251,3.3051,3.3169,3.322,3.3355,3.41,3.4303,3.4472,3.5233,3.5419,3.5453,3.5588,3.5622,3.5622,3.5622,3.5941,3.6266,3.6266,3.6684,3.7097,3.7173,3.7578,3.8065,3.8627,3.8707,3.8707,3.8707,3.8707,3.8707,3.8707,3.8707,3.8707,3.8707,3.8707,3.8707,3.8707,3.9313,3.968,3.968,4.0341,4.0763,4.0891,4.168,4.2158,4.2304,4.3112,4.3497,4.3497,4.3497,4.3497,2.5703,2.5703,2.5683,2.566,2.5631,2.5573,2.5526,2.5453,2.5391,2.5363,2.5312,2.5303,2.5303,2.5141,2.5107,2.5435,2.5271,2.5503,2.6595,2.7113,2.7645,2.8342,2.8894,2.9156,2.9017,3.0118,3.098,3.1366,3.2522,3.314,3.2985,3.278,3.2915,3.3504,3.3522,3.339,3.3214,3.3196,3.3057,3.284,3.2648,3.24,3.2161,3.2161,3.1933,3.1507,3.1733,3.1696,3.1507,3.1291,3.119,3.119,3.119,3.119,3.119,3.119,3.119,3.119,3.119,3.1664,3.2313,3.2313,3.2527,3.2899,3.3288,3.3406,3.3643,3.4759,3.5081,3.5165,3.552,3.5622,3.5622,3.5622,3.581,3.6028,3.6028,3.6457,3.6803,3.6803,3.721,3.7578,3.7578,3.7998,3.8415,3.8658,3.8707,3.8707,3.8707,3.8707,3.8707,3.8707,3.8707,3.8707,3.8707,3.8707,3.8891,3.9294,3.968,4.0084,4.0506,4.0891,4.1313,4.1735,4.2103,4.2506,4.2928,4.3296,4.3497,4.3497,4.3497,4.3497,2.5703,2.5703,2.5703,2.5703,2.566,2.5629,2.5603,2.5522,2.5428,2.542,2.5363,2.5322,2.5293,2.5163,2.5046,2.501,2.5295,2.5867,2.6767,2.7475,2.8257,2.9226,2.9527,2.9646,2.9591,3.0846,3.1659,3.1659,3.2981,3.3807,3.3807,3.3807,3.3807,3.3807,3.3807,3.3652,3.3332,3.3634,3.3634,3.3332,3.3243,3.3014,3.2648,3.2648,3.24,3.1968,3.2057,3.2057,3.1933,3.1507,3.1312,3.1312,3.123,3.119,3.119,3.119,3.119,3.119,3.119,3.1664,3.2256,3.2104,3.2374,3.2865,3.3457,3.3761,3.4117,3.5284,3.5622,3.5622,3.5622,3.5622,3.5622,3.5739,3.6097,3.6457,3.6684,3.7058,3.736,3.736,3.7738,3.8013,3.7911,3.8332,3.8707,3.8707,3.8707,3.8707,3.8707,3.8707,3.8707,3.8707,3.8707,3.8707,3.8707,3.8707,3.8964,3.9588,3.979,4.0267,4.1075,4.1277,4.1754,4.2543,4.2561,4.2873,4.3497,4.3497,4.3497,4.3497,4.3497,4.3497,2.5703,2.5703,2.5703,2.5703,2.5703,2.5662,2.5607,2.5595,2.5551,2.5428,2.5406,2.5368,2.5313,2.5274,2.5214,2.5034,2.5031,2.5494,2.6748,2.7133,2.8067,3.0197,3.0474,3.077,3.148,3.2109,3.2504,3.2504,3.3311,3.3807,3.3807,3.3807,3.3807,3.3807,3.3807,3.3762,3.3734,3.3762,3.3762,3.3734,3.3361,3.3184,3.3154,3.3154,3.2872,3.2451,3.2872,3.284,3.2417,3.1933,3.1752,3.1733,3.1351,3.119,3.119,3.119,3.119,3.119,3.119,3.1664,3.2171,3.1512,3.2645,3.4303,3.437,3.4878,3.5453,3.5588,3.5622,3.5622,3.5622,3.5622,3.5739,3.6224,3.6374,3.6643,3.756,3.779,3.7843,3.7843,3.8267,3.8465,3.798,3.8332,3.8707,3.8707,3.8707,3.8707,3.8707,3.8707,3.8707,3.8707,3.8707,3.8707,3.8707,3.8707,3.8726,3.8817,3.9496,4.0267,4.1075,4.1809,4.2561,4.3369,4.3387,4.3424,4.3497,4.3497,4.3497,4.3497,4.3497,4.3497,2.5683,2.5703,2.5703,2.5703,2.5703,2.5683,2.5661,2.5633,2.5567,2.5473,2.5428,2.5376,2.5313,2.5303,2.5274,2.5184,2.5088,2.5368,2.6382,2.7062,2.8104,2.9851,3.062,3.1297,3.1976,3.2681,3.3216,3.3549,3.3692,3.3807,3.3807,3.3807,3.3807,3.3807,3.3807,3.3807,3.3807,3.3807,3.3807,3.3807,3.3652,3.3419,3.3214,3.3447,3.3332,3.2952,3.3105,3.3075,3.284,3.2127,3.1968,3.2144,3.1449,3.1351,3.1545,3.1291,3.119,3.119,3.119,3.1376,3.1579,3.1292,3.2391,3.3846,3.3846,3.4353,3.503,3.5504,3.5622,3.5622,3.5622,3.5622,3.5739,3.6266,3.6661,3.7058,3.7755,3.8132,3.8382,3.8382,3.8546,3.8627,3.8415,3.8546,3.8707,3.8707,3.8707,3.8707,3.8707,3.8707,3.8707,3.8707,3.8707,3.8707,3.8707,3.8707,3.8909,3.9386,4.0175,4.0983,4.1791,4.2598,4.3167,4.3479,4.3497,4.3497,4.3497,4.3497,4.3497,4.3497,4.3497,4.3497,2.5683,2.5703,2.5703,2.5703,2.5703,2.5703,2.5703,2.5661,2.5605,2.5547,2.5482,2.5413,2.5348,2.5313,2.5303,0.0,2.5173,2.5466,2.6498,2.7249,2.8324,2.9964,3.0836,3.1664,3.2576,3.3356,3.3936,3.43,3.4165,3.408,3.408,3.408,3.3979,3.3807,3.3807,3.3807,3.3807,3.3807,3.3807,3.3807,3.3807,3.3652,3.339,3.368,3.3652,3.3379,3.3379,3.3379,3.3332,3.2533,3.24,3.2616,3.1714,3.1528,3.1752,3.1351,3.119,3.119,3.119,3.119,3.119,3.119,3.2053,3.3119,3.3339,3.4066,3.4928,3.547,3.5694,3.5827,3.5827,3.5924,3.6207,3.6706,3.7135,3.7542,3.8032,3.8415,3.8707,3.8707,3.8707,3.8707,3.8707,3.8707,3.8707,3.8707,3.8707,3.8707,3.8707,3.8909,3.9056,3.9056,3.9276,3.9221,3.8744,3.8927,3.9294,3.9845,4.0671,4.1479,4.2268,4.2837,4.3259,4.3497,4.3497,4.3497,4.3497,4.3497,4.3497,4.3497,4.3497,4.3497,2.5683,2.5703,2.5703,2.5703,2.5703,2.5703,2.5703,2.5703,2.5683,2.5607,2.5551,2.5488,2.5408,2.5337,2.5303,2.5303,2.5303,2.5808,2.7287,2.7711,2.8737,3.1016,3.1295,3.1946,3.3617,3.4339,3.4694,3.4694,3.4694,3.4694,3.4694,3.4694,3.4416,3.3815,3.3807,3.3807,3.3807,3.3807,3.3807,3.3807,3.3807,3.3807,3.3788,3.3807,3.3807,3.3788,3.3788,3.3788,3.3762,3.3361,3.3184,3.3105,3.2161,3.1789,3.1752,3.1351,3.119,3.119,3.119,3.119,3.119,3.119,3.1698,3.2425,3.3186,3.4438,3.5605,3.5622,3.5985,3.6374,3.6374,3.6803,3.7285,3.7755,3.7911,3.8032,3.8596,3.8707,3.8707,3.8707,3.8707,3.8707,3.8707,3.8707,3.8707,3.8707,3.8707,3.8707,3.8707,3.9405,3.9882,3.9882,4.0598,4.0432,3.8836,3.9423,3.9882,3.99,4.0671,4.1479,4.2268,4.2304,4.269,4.3461,4.3497,4.3497,4.3497,4.3497,4.3497,4.3497,4.3497,4.3497,2.5662,2.5703,2.5703,2.5703,2.5703,2.5703,2.5703,2.5703,2.5683,2.5607,2.5551,2.5488,2.5401,2.5348,2.5495,2.6101,2.6197,2.6561,2.7612,2.8837,3.0098,3.1411,3.3105,3.4371,3.4908,3.4969,3.4963,3.4963,3.4793,3.4694,3.4694,3.4694,3.4508,3.4093,3.4074,3.3986,3.3788,3.3807,3.3807,3.3807,3.3807,3.3807,3.3807,3.3807,3.3807,3.3807,3.3807,3.3807,3.3762,3.3361,3.3361,3.3476,3.2281,3.2004,3.2213,3.1466,3.119,3.119,3.119,3.119,3.119,3.119,3.2298,3.3658,3.3859,3.4387,3.5033,3.5917,3.6266,3.6498,3.6843,3.7058,3.7323,3.779,3.7893,3.8065,3.8578,3.8707,3.8707,3.8707,3.8707,3.8707,3.8707,3.8707,3.8707,3.8707,3.8707,3.8707,3.8707,3.8927,3.9294,3.9827,4.012,4.0304,4.0341,4.0579,4.0726,4.0726,4.1479,4.2029,4.2286,4.2818,4.3222,4.3497,4.3497,4.3497,4.3497,4.3497,4.3497,4.3497,4.3497,4.3497,2.5457,2.5683,2.5703,2.5703,2.5703,2.5703,2.5703,2.5703,2.5683,2.5657,2.5573,2.5511,2.5488,2.5406,2.5513,2.6053,2.64,2.6909,2.7775,2.9352,3.0717,3.1602,3.3372,3.441,3.4103,3.4491,3.476,3.476,3.4914,3.4999,3.4999,3.4999,3.487,3.4534,3.4315,3.4068,3.3788,3.3807,3.3807,3.3807,3.3807,3.3807,3.3807,3.3807,3.3807,3.3807,3.3807,3.3807,0.0,3.3522,3.3578,3.3689,3.2709,3.24,3.2417,3.1677,3.1312,3.119,3.119,3.119,3.123,3.1389,3.2786,3.4469,3.4804,3.5059,3.5369,3.617,3.6539,3.6843,3.7323,3.7632,3.7826,3.815,3.8183,3.83,3.8627,3.8707,3.8707,3.8707,3.8707,3.8707,3.8707,3.8707,3.8707,3.8707,3.8707,3.8707,3.8707,3.8964,3.946,4.0267,4.0616,4.113,4.1937,4.1735,4.1552,4.1552,4.2304,4.2745,4.2745,4.3222,4.3497,4.3497,4.3497,4.3497,4.3497,4.3497,4.3497,4.3497,4.3497,4.3497,0.0,2.5558,2.5625,2.5684,2.5703,2.5703,2.5703,2.5703,0.0,2.5703,2.5658,2.562,2.5679,2.5542,2.5439,2.5575,2.6215,2.6996,2.7873,2.9429,3.0814,3.1679,3.2449,3.2602,3.1852,3.3179,3.4122,3.4199,3.4949,3.543,3.5507,3.5493,3.5369,3.5105,3.4574,3.4123,3.3842,3.3815,3.3807,3.3807,3.3807,3.3807,3.3807,3.3807,3.3807,3.3807,3.3807,3.3807,3.3807,3.3807,3.3807,3.3762,3.3361,3.2903,3.2451,3.1986,3.1603,3.1252,3.1252,3.1252,3.1346,3.1854,3.3318,3.5031,3.5864,3.6285,3.6457,3.6498,3.6882,3.736,3.7825,3.835,3.8707,3.8707,3.8707,3.8707,3.8707,3.8707,3.8707,3.8707,3.8707,3.8707,3.8707,3.8707,3.8726,3.8781,3.8799,3.8799,3.8799,3.9496,4.0267,4.1038,4.1827,4.2635,4.3424,4.2818,4.2396,4.2396,4.3075,4.3497,4.3497,4.3497,4.3497,4.3497,4.3497,4.3497,4.3497,4.3497,4.3497,4.3497,4.3497,4.3497,2.4055,0.0,2.4876,2.5527,2.5703,2.5703,0.0,2.5703,2.5703,2.5703,2.5658,2.5796,2.6462,2.5991,2.5915,2.7251,2.7578,2.7969,2.8781,3.0332,3.1698,3.2526,3.2776,3.2833,3.2641,3.2968,3.3487,3.4141,3.4391,3.4795,3.5468,3.5493,3.5369,3.5105,3.4962,3.4636,3.4099,3.3902,3.3807,3.3807,3.3807,3.3807,3.3807,3.3807,3.3807,3.3807,3.3807,3.3807,3.3807,3.3807,3.3807,3.3762,3.3361,3.2903,3.2484,3.2384,3.2039,3.166,3.166,3.166,3.196,3.3617,3.4725,3.5652,3.7054,3.7236,3.7097,3.747,3.7649,3.7843,3.8382,3.8627,3.8707,3.8707,3.8707,3.8707,3.8707,3.8707,3.8707,3.8707,3.8707,3.8707,3.8707,3.8707,3.8909,3.9533,3.9625,3.9625,3.9625,4.0322,4.0891,4.1093,4.1827,4.2635,4.3424,4.3314,4.3222,4.3222,4.3387,4.3497,4.3497,4.3497,4.3497,4.3497,4.3497,4.3497,4.3497,4.3497,4.3497,4.3497,4.3497,4.3497,2.3121,2.398,2.4594,2.5443,2.5683,2.5703,2.5703,2.5703,2.5703,2.5703,2.5662,2.5793,2.6263,2.6242,2.6447,2.7398,2.8107,2.8962,3.0172,3.113,3.1852,3.2295,3.2352,3.2199,3.1795,3.2102,3.2699,3.3545,3.3968,3.4584,3.5449,3.5493,3.5432,3.5289,3.5155,3.4813,3.42,3.4213,3.4062,3.3788,3.391,3.3928,3.3807,3.3807,3.3807,3.3807,3.3807,3.3807,3.3807,3.3807,3.3807,3.378,3.355,3.3196,3.2809,3.2809,3.25,3.2127,3.2127,3.2264,3.2747,3.463,3.5548,3.6206,3.7776,3.8083,3.7895,3.7911,3.7893,3.8013,3.8546,3.8707,3.8707,3.8707,3.8707,3.8707,3.8707,3.8707,3.8707,3.8707,3.9001,3.9239,3.9239,3.957,3.9955,4.0396,4.0451,4.0451,4.0451,4.0836,4.1258,4.1625,4.2047,4.2635,4.3424,4.3497,4.3497,4.3497,4.3497,4.3497,4.3497,4.3497,4.3497,4.3497,4.3497,4.3497,4.3497,4.3497,4.3497,4.3479,4.3646,4.3646,2.2416,2.3514,2.4405,2.5366,2.5637,2.5683,2.5703,0.0,0.0,0.0,0.0,2.5742,2.5879,2.646,2.6956,2.7093,2.829,2.9736,3.1299,3.1506,3.1506,3.1506,3.1506,3.1218,3.0456,3.1083,3.1833,3.266,3.3506,3.4372,3.5257,3.543,3.5493,3.5493,3.5289,3.4907,3.4338,3.4572,3.4442,3.3928,3.4117,3.4093,3.3868,3.3815,3.3807,3.3807,3.3807,3.3807,3.3807,3.3807,3.3807,3.3807,3.3807,3.355,3.3214,3.3273,3.3014,3.2616,3.2616,3.289,3.3448,3.4929,3.5824,3.6578,3.8065,3.8597,3.8627,3.815,3.8013,3.815,3.8578,3.8707,3.8707,3.8707,3.8707,3.8707,3.8707,3.8707,3.8707,3.8707,3.935,3.99,3.99,4.0579,4.1148,4.1277,4.1295,4.1295,4.1295,4.1405,4.168,4.2249,4.2415,4.2763,4.3424,4.3497,4.3497,4.3497,4.3497,4.3497,4.3497,4.3497,4.3513,4.3563,4.3513,4.3513,4.3563,4.3513,4.3513,4.3597,4.3881,4.3881,2.2357,2.2977,2.3533,2.5197,2.5605,2.5633,2.5683,2.5703,0.0,0.0,2.5703,2.5937,2.666,2.6894,2.7226,2.7968,2.8759,2.9586,3.0483,3.059,3.059,3.059,3.059,3.0552,3.0398,3.0513,3.0968,3.1814,3.2641,3.3487,3.4353,3.5103,3.5493,3.5493,3.546,3.5289,3.4962,3.4793,3.4653,3.4569,3.4311,3.4195,3.4123,3.3902,3.3807,3.3807,3.3807,3.3807,3.3807,3.3807,3.3807,3.3807,3.3807,3.355,3.3243,3.3578,3.3465,3.3075,3.3075,3.3154,3.3358,3.4297,3.5369,3.6468,3.7386,3.8157,3.8658,3.8596,3.8596,3.8596,3.8676,3.8707,3.8707,3.8707,3.8707,3.8707,3.8707,3.8707,3.8707,3.8707,3.935,3.99,3.99,4.0579,4.135,4.2011,4.2121,4.2121,4.2121,4.2708,4.291,4.2359,4.291,4.3369,4.3479,4.3497,4.3497,4.3497,4.3497,4.3497,4.3497,4.3497,4.3612,4.3924,4.3646,4.3646,4.3924,4.3646,4.3646,4.3924,4.3986,4.4146,2.2331,2.2816,2.326,2.5054,2.5551,2.5605,2.5636,2.5662,2.5703,2.5703,2.5703,2.582,2.6211,2.707,2.8124,2.9387,2.9871,3.0155,3.0474,3.0472,3.0452,3.0452,3.0417,3.0398,3.0398,3.0398,3.0756,3.1641,3.2045,3.2814,3.4122,3.4584,3.5007,3.5488,3.5493,3.5446,3.532,3.519,3.4981,3.4694,3.4551,3.4379,3.4176,3.391,3.3807,3.3807,3.3807,3.3807,3.3807,3.3807,3.3807,3.3807,3.3807,3.368,3.355,3.3734,3.368,3.3522,3.3522,3.3522,3.3723,3.4998,3.5809,3.6523,3.7771,3.8414,3.8707,3.8707,3.8707,3.8707,3.8707,3.8707,3.8707,3.8707,3.8707,3.8707,3.8707,3.8707,3.8707,3.8707,3.9698,4.0561,4.0561,4.1589,4.2525,4.2892,4.2947,4.2947,4.2947,4.3259,4.3351,4.2983,4.3277,4.3497,4.3497,4.3679,4.3693,4.3513,4.3497,4.3497,4.3497,4.366,4.3849,4.4016,4.4046,4.4165,4.4318,4.3943,4.3974,4.4318,4.4318,4.4401,2.2331,2.2793,2.3204,2.4946,0.0,2.5558,2.5598,2.5636,2.5741,2.5957,2.5996,2.6074,2.6269,2.7578,2.9061,3.0467,3.0696,3.068,3.0617,3.0567,3.0532,3.0507,3.0452,3.0425,3.041,3.0398,3.0679,3.1352,3.1583,3.2256,3.3545,3.3987,3.4507,3.518,3.5391,3.5493,3.5493,3.5493,3.5289,3.4889,3.4813,3.4634,3.4311,3.4018,3.3868,3.3807,3.3807,3.3807,3.3807,3.3807,3.3807,3.3807,3.3807,3.3807,3.3807,3.3807,3.3807,3.3807,3.3807,3.3807,3.4009,3.5293,3.5973,3.6523,3.7771,3.8395,3.8707,3.8707,3.8707,3.8707,3.8707,3.8707,3.8707,3.8707,3.8707,3.8707,3.8707,3.8707,3.8707,3.8707,3.9863,4.0891,4.1075,4.2286,4.3277,4.3461,4.3497,4.3497,4.3497,4.3497,4.3497,4.3497,4.3497,4.3548,4.3631,4.3943,4.4016,4.3758,4.3777,4.3777,4.3777,4.3986,4.4175,4.4261,4.4482,4.4631,4.4726,4.4318,4.4346,4.4726,4.4726,4.4757,2.2331,2.2793,2.3197,2.4899,2.5354,2.5447,2.5564,2.5603,2.5845,2.6738,2.6914,2.7148,2.7969,2.8887,2.9764,3.0565,3.0696,3.068,3.0617,3.06,3.0568,3.0516,3.049,3.0482,3.0421,3.0398,3.0417,3.0494,3.1237,3.1756,3.1872,3.3353,3.4218,3.4295,3.5084,3.5493,3.5493,3.5493,3.5493,3.5446,3.519,3.4926,3.4653,3.4334,3.4043,3.3807,3.3807,3.3807,3.3807,3.3807,3.3807,3.3807,3.3807,3.3807,3.3807,3.3807,3.3807,3.3807,3.3807,3.3807,3.3825,3.3935,3.5018,3.6321,3.6431,3.7514,3.8707,3.8707,3.8707,3.8707,3.8707,3.8707,3.8707,3.8707,3.8707,3.8707,3.8707,3.8707,3.8707,3.8707,3.9405,4.0212,4.0983,4.1827,4.2635,4.3387,4.3497,4.3497,4.3497,4.3497,4.3497,4.3497,4.3497,4.3631,4.3924,4.4337,4.4553,4.4527,4.4527,4.4527,4.4527,4.4553,4.4707,4.5011,4.4732,4.4732,4.5074,4.4707,4.4732,4.5074,4.5074,4.5222,2.1677,2.2389,2.3081,2.4255,2.4946,0.0,0.0,2.5921,2.6455,2.6805,2.734,2.8039,2.8945,2.9375,2.9863,3.068,3.0817,3.0814,3.0786,3.0707,3.0642,3.0638,3.0594,3.054,3.0521,3.0491,3.0462,3.0462,3.0725,3.1141,3.1679,3.2295,3.3122,3.416,3.4526,3.4949,3.5474,3.5493,3.5493,3.5493,3.5223,3.4963,3.4694,3.4357,3.4068,3.3807,3.3807,3.3807,3.3807,3.3807,3.3807,3.3807,3.3807,3.3807,3.3807,3.3807,3.3807,3.3807,3.3807,3.3807,3.388,3.4394,3.5349,3.6376,3.689,3.7808,3.8707,3.8707,3.8707,3.8707,3.8707,3.8707,3.8707,3.8707,3.8707,3.8707,3.8707,3.8707,3.8707,3.8707,3.935,3.9992,4.0304,4.1442,4.2396,4.2708,4.3167,4.3497,4.3497,4.3497,4.3497,4.3497,4.3712,4.4046,4.4638,4.483,4.4988,4.5222,4.483,4.458,4.458,4.48,4.4966,4.5096,4.5182,4.5283,4.5419,4.5074,4.5096,4.54,4.5201,4.5282,2.1625,2.2516,2.3417,2.4274,0.0,0.0,2.5363,2.6086,2.685,2.7146,2.8145,2.9166,2.9882,2.998,3.0154,3.0801,3.0898,3.0898,3.0898,3.0816,3.0745,3.0716,3.0665,3.0614,3.0606,3.0554,3.0529,3.0529,3.0482,3.0689,3.1287,3.1549,3.2237,3.3372,3.391,3.4487,3.5084,3.5372,3.5493,3.5493,3.5304,3.5088,3.4813,3.4595,3.4288,3.3928,3.3928,3.3876,3.3807,3.3807,3.3807,3.3807,3.3807,3.3807,3.3807,3.3807,3.3807,3.3807,3.3807,3.3807,3.3899,3.4449,3.5385,3.6395,3.6945,3.7863,3.8707,3.8707,3.8707,3.8707,3.8707,3.8707,3.8707,3.8707,3.8707,3.8707,3.8707,3.8707,3.8707,3.8707,3.9148,3.968,4.0194,4.1185,4.2084,4.2598,4.3149,4.3497,4.3497,4.3497,4.3548,4.3646,4.3974,4.4428,4.5052,4.5201,4.5342,4.5586,4.5161,4.4919,4.4919,4.514,4.5243,4.5243,4.5495,4.5586,4.5586,4.5362,4.5381,4.5586,4.5362,4.5362,2.235,2.3333,2.4283,2.5101,2.5284,2.5303,2.5303,2.6032,2.697,2.7937,2.9433,3.0667,3.0857,3.0792,3.0745,3.0879,3.0898,3.0898,3.0898,3.0898,3.0857,3.0718,3.0696,3.0677,3.0611,3.0606,3.0606,3.0606,3.0545,3.0498,3.0498,3.1259,3.1679,3.1698,3.3314,3.4193,3.4199,3.5064,3.5493,3.5493,3.5493,3.5369,3.5105,3.5105,3.4774,3.42,3.42,3.4043,3.3807,3.3807,3.3807,3.3807,3.3807,3.3807,3.3807,3.3807,3.3807,3.3807,3.3807,3.3807,3.3807,3.3807,3.4926,3.6285,3.6303,3.7422,3.8689,3.8707,3.8707,3.8707,3.8707,3.8707,3.8707,3.8707,3.8707,3.8707,3.8707,3.8707,3.8707,3.8707,3.8707,3.9221,4.0818,4.1111,4.1644,4.324,4.3497,4.3497,4.3497,4.3497,4.3612,4.3986,4.4346,4.4751,4.5074,4.5419,4.5586,4.5586,4.5586,4.5586,4.5586,4.5586,4.5586,4.5586,4.5586,4.5586,4.5586,4.5586,4.5586,4.5586,4.5586,4.5586,2.1604,2.2422,2.3398,2.4235,2.4889,2.5303,2.5303,2.6458,2.7971,2.9478,3.0212,3.0633,3.074,3.0795,3.0858,3.0898,3.0898,3.0898,3.0898,3.0898,3.0898,3.0857,3.0837,3.0836,3.081,3.0732,3.0673,3.0673,3.0617,3.0559,3.0507,3.0773,3.1167,3.1679,3.2775,3.3635,3.418,3.5064,3.5493,3.5493,3.5493,3.5369,3.5105,3.5105,3.4774,3.42,3.42,3.4043,3.3807,3.3807,3.3807,3.3807,3.3807,3.3807,3.3807,3.3807,3.3807,3.3807,3.3807,3.3807,3.3807,3.3807,3.4523,3.5514,3.6101,3.7019,3.7955,3.8542,3.8707,3.8707,3.8707,3.8707,3.8707,3.8707,3.8707,3.8707,3.8707,3.8707,3.8707,3.8707,3.8707,3.9038,4.0084,4.0726,4.146,4.2506,4.313,4.3497,4.3497,4.3497,4.3744,4.4364,4.4527,4.483,4.54,4.5531,4.5586,4.5586,4.5586,4.5586,4.5586,4.5586,4.5586,4.5586,4.5586,4.5586,4.5586,4.5586,4.5586,4.5586,4.5586,4.5586,2.2176,2.3035,2.3928,2.4447,2.4947,2.538,2.5736,2.664,2.7778,2.9203,2.9768,3.0035,3.017,3.0515,3.0786,3.0814,3.0878,3.0898,3.0898,3.0898,3.0898,3.0898,3.0898,3.0898,3.0898,3.0836,3.0771,3.0771,3.07,3.0614,3.0587,3.0594,3.0792,3.1212,3.2077,3.2752,3.3199,3.4391,3.4988,3.4988,3.5334,3.5417,3.5273,3.5273,3.4944,3.4379,3.4165,3.3935,3.3807,3.3807,3.3807,3.3807,3.3807,3.3807,3.3807,3.3807,3.3807,3.3807,3.3807,3.3807,3.3807,3.3807,3.4357,3.5082,3.5624,3.6358,3.711,3.7606,3.7973,3.8212,3.8212,3.8469,3.8707,3.8707,3.8707,3.8707,3.8707,3.8707,3.8707,3.8707,3.8707,3.9056,4.0175,4.0781,4.1497,4.2598,4.3317,4.3693,4.3693,4.3836,4.4154,4.4751,4.48,4.5011,4.5549,4.5586,4.5586,4.5586,4.5586,4.5586,4.5586,4.5586,4.5586,4.5586,4.5586,4.5586,4.5586,4.5586,4.5586,4.5586,4.5586,4.5586,2.3412,2.4415,2.5207,2.5284,2.5303,2.5514,2.6294,2.6486,2.6776,2.7782,2.8531,2.9052,2.9233,2.9886,3.0419,3.0573,3.0697,3.0801,3.0898,3.0898,3.0898,3.0898,3.0898,3.0898,3.0898,3.0898,3.0898,3.0898,3.0792,3.0718,3.0696,3.0657,3.0587,3.0516,3.1357,3.1777,3.1703,3.3301,3.4077,3.4083,3.4968,3.5391,3.5391,3.5468,3.5223,3.4694,3.4062,3.3815,3.3842,3.3815,3.3807,3.3807,3.3807,3.3807,3.3807,3.3807,3.3807,3.3807,3.3807,3.3807,3.3807,3.3807,3.4302,3.4899,3.4972,3.5569,3.6193,3.6266,3.6817,3.7404,3.7489,3.8028,3.8615,3.8689,3.8707,3.8707,3.8707,3.8707,3.8707,3.8707,3.8707,3.9203,4.0744,4.1089,4.1691,4.3358,4.3868,4.4058,4.4058,4.4373,4.4751,4.5074,4.5096,4.5243,4.5568,4.5586,4.5586,4.5586,4.5586,4.5586,4.5586,4.5586,4.5586,4.5586,4.5586,4.5586,4.5586,4.5586,4.5586,4.5586,4.5586,4.5586,2.2546,2.346,2.4505,2.5139,2.5303,2.5341,2.5534,2.5572,2.6034,2.7604,2.8097,2.8244,2.8291,2.8495,2.887,2.964,2.9789,3.0051,3.0801,3.0898,3.0898,3.0898,3.0898,3.0898,3.0898,3.0898,3.0898,3.0898,3.0878,3.0814,3.0716,3.0788,3.0752,3.0581,3.1485,3.1897,3.1777,3.2763,3.323,3.3179,3.4064,3.4468,3.4507,3.5199,3.532,3.4963,3.4141,3.3928,3.4099,3.3876,3.3807,3.3807,3.3807,3.3807,3.3807,3.3807,3.3807,3.3807,3.3807,3.3807,3.3807,3.3807,3.3917,3.4192,3.4807,3.5119,3.544,3.6101,3.6413,3.6688,3.7331,3.7606,3.7918,3.856,3.8707,3.8707,3.8707,3.8707,3.8707,3.8707,3.8707,3.9019,3.9992,4.0898,4.2153,4.4065,4.4419,4.4474,4.4474,4.4553,4.4751,4.5074,4.5096,4.5243,4.5568,4.5586,4.5586,4.5586,4.5586,4.5586,4.5586,4.5586,4.5586,4.5586,4.5586,4.5586,4.5586,4.5586,4.5586,4.5586,4.5586,4.5586,2.2652,2.3322,2.4033,2.493,2.5224,2.5303,2.5303,2.5303,2.5553,2.6467,2.7007,2.7324,2.7324,2.7733,2.8209,2.869,2.884,2.9047,2.9545,2.9628,2.9805,3.0234,3.0273,3.0449,3.0859,3.0898,3.0898,3.0898,3.0898,3.0878,3.0793,3.0858,3.0814,3.0657,3.1081,3.1287,3.1176,3.1979,3.2366,3.2333,3.3179,3.3795,3.4218,3.4856,3.5105,3.5051,3.4165,3.3961,3.4195,3.3902,3.3807,3.3807,3.3807,3.3807,3.3807,3.3807,3.3807,3.3807,3.3807,3.3807,3.3807,3.3807,3.3807,3.388,3.4302,3.4431,3.4523,3.4981,3.5385,3.5881,3.6707,3.7202,3.7679,3.8505,3.8707,3.8707,3.8707,3.8707,3.8707,3.8707,3.8803,3.9153,3.9937,4.1381,4.2769,4.3818,4.4486,4.4849,4.4849,4.4988,4.514,4.5322,4.5342,4.5419,4.5586,4.5586,4.5586,4.5586,4.5586,4.5586,4.5586,4.5586,4.5586,4.5586,4.5586,4.5586,4.5586,4.5586,4.5586,4.5586,4.5586,4.5586,2.2623,2.3261,2.3744,2.4745,2.5141,2.5264,2.5284,2.5303,2.5303,2.5303,2.587,2.639,2.639,2.7006,2.7586,2.7757,2.7868,2.7992,2.8154,2.8234,2.8554,2.9277,2.9492,2.9883,3.0605,3.0801,3.0898,3.0898,3.0898,3.0898,3.0898,3.0898,3.0857,3.0743,3.0661,3.0587,3.0513,3.1176,3.1492,3.1487,3.2295,3.3218,3.4218,3.4429,3.4774,3.5122,3.426,3.4037,3.4265,3.391,3.3807,3.3807,3.3807,3.3807,3.3807,3.3807,3.3807,3.3807,3.3807,3.3807,3.3807,3.3807,3.3807,3.3807,3.3807,3.3807,3.3807,3.3807,3.4293,3.5037,3.5844,3.6767,3.7626,3.8387,3.8711,3.8822,3.8719,3.8707,3.8707,3.8707,3.8923,3.9394,4.0296,4.1832,4.3069,4.3426,4.4322,4.5008,4.5182,4.5419,4.5586,4.5586,4.5586,4.5586,4.5586,4.5586,4.5586,4.5586,4.5586,4.5586,4.5586,4.5586,4.5586,4.5586,4.5586,4.5586,4.5586,4.5586,4.5586,4.5586,4.5586,4.5586,2.1083,2.2313,2.3744,2.4745,2.5022,2.5088,2.5264,2.5303,2.5303,2.5303,2.538,2.5476,2.5476,2.5572,2.5937,2.673,2.6889,2.7181,2.8004,2.8168,2.8266,2.8364,2.9099,2.9648,2.9766,3.0469,3.0898,3.0898,3.0898,3.0898,3.0898,3.0898,3.0898,3.0878,3.0745,3.0642,3.0587,3.0649,3.0626,3.0571,3.1448,3.2679,3.4199,3.4006,3.448,3.5398,3.4534,3.4334,3.4591,3.403,3.3807,3.3807,3.3807,3.3807,3.3807,3.3807,3.3807,3.3807,3.3807,3.3807,3.3807,3.3807,3.3807,3.3807,3.3807,3.3807,3.3807,3.3807,3.4035,3.4427,3.5018,3.6154,3.7305,3.7869,3.8752,3.9327,3.8822,3.8707,3.8707,3.8707,3.8923,3.9551,4.0924,4.1373,4.2162,4.3904,4.4304,4.4668,4.5454,4.5568,4.5586,4.5586,4.5586,4.5586,4.5586,4.5586,4.5586,4.5586,4.5586,4.5586,4.5586,4.5586,4.5586,4.5586,4.5586,4.5586,4.5586,4.5586,4.5586,4.5586,4.5586,4.5586,2.1102,2.2353,2.3604,2.4501,2.4872,2.5022,2.5111,2.5214,2.5303,2.5303,2.5303,2.5303,2.5303,2.5303,2.5447,2.5858,2.5956,2.6125,2.654,2.6646,2.6887,2.7418,2.784,2.8493,2.9492,2.9941,3.0371,3.0859,3.0898,3.0898,3.0898,3.0898,3.0898,3.0898,3.0769,3.0673,3.0606,3.0537,3.0472,3.0398,3.0794,3.1621,3.2814,3.3138,3.4098,3.5446,3.4576,3.4379,3.4653,3.4055,3.3807,3.3807,3.3807,3.3807,3.3807,3.3807,3.3807,3.3807,3.3807,3.3807,3.3807,3.3807,3.3807,3.3807,3.3807,3.3807,3.3807,3.3807,3.3986,3.4357,3.508,3.6189,3.7276,3.7962,3.8884,3.9529,3.9268,3.9189,3.9268,3.9445,3.9571,3.9914,4.0709,4.126,4.2044,4.3415,4.4008,4.4605,4.549,4.5586,4.5586,4.5586,4.5586,4.5586,4.5586,4.5586,4.5586,4.5586,4.5586,4.5586,4.5586,4.5586,4.5586,4.5586,4.5586,4.5586,4.5586,4.5586,4.5586,4.5586,4.5586,4.5586,2.1343,2.2345,2.318,2.4253,2.4693,2.4885,2.4937,2.5077,2.5224,2.5224,2.5264,2.5303,2.5303,2.5303,2.5303,2.5303,2.5348,2.5379,2.5379,2.5428,2.5736,2.6447,2.6744,2.7524,2.91,2.9453,2.9961,3.082,3.0898,3.0898,3.0898,3.0898,3.0898,3.0898,3.0769,3.0673,3.0606,3.0524,3.0462,3.0398,3.0398,3.0871,3.1718,3.2314,3.3545,3.5133,3.4641,3.4532,3.4653,3.4117,3.385,3.3807,3.3895,3.3902,3.3902,3.4005,3.403,3.403,3.403,3.403,3.403,3.403,3.403,3.403,3.403,3.403,3.403,3.403,3.4218,3.4555,3.5161,3.6311,3.7449,3.7991,3.8999,3.98,3.9645,3.9599,3.969,4.0022,4.0101,4.0177,4.0457,4.1046,4.1835,4.2931,4.3605,4.4374,4.5451,4.5586,4.5586,4.5586,4.5586,4.5586,4.5586,4.5586,4.5586,4.5586,4.5586,4.5586,4.5586,4.5586,4.5586,4.5586,4.5586,4.5586,4.5586,4.5586,4.5586,4.5586,4.5586,4.5586,2.1343,2.1839,2.2294,2.407,2.4493,2.4575,2.4775,2.4917,2.5022,2.5022,2.5163,2.5303,2.5303,2.5303,2.5303,2.5303,2.5293,2.5313,2.5313,2.5363,2.5413,2.5466,2.6314,2.7264,2.8184,2.9079,2.9961,3.082,3.0898,3.0898,3.0898,3.0898,3.0898,3.0898,3.0769,3.0673,3.0606,3.0482,3.039,3.0398,3.0398,3.0871,3.1698,3.1737,3.2679,3.4301,3.4827,3.4926,3.4674,3.4334,3.4018,3.3815,3.4093,3.4195,3.4218,3.4529,3.4653,3.4653,3.4653,3.4653,3.4653,3.4653,3.4653,3.4653,3.4653,3.4653,3.4653,3.4653,3.4832,3.5018,3.4791,3.6345,3.7894,3.7695,3.9078,4.0302,3.9735,3.9599,3.969,4.0022,4.0101,4.0177,4.0457,4.0527,4.1143,4.2835,4.3143,4.3739,4.5374,4.5586,4.5586,4.5586,4.5586,4.5586,4.5586,4.5586,4.5586,4.5586,4.5586,4.5586,4.5586,4.5586,4.5586,4.5586,4.5586,4.5586,4.5586,4.5586,4.5586,4.5586,4.5586,4.5586,2.0519,2.1363,2.2077,2.3252,2.4021,2.4528,2.4591,2.4741,2.4891,2.4986,2.5065,2.5152,2.5274,2.5303,2.5303,2.5303,2.5303,2.5303,2.5303,2.5322,2.5371,2.544,2.5771,2.6386,2.734,2.7734,2.8281,2.918,2.9238,2.9238,2.9238,2.9238,2.9238,2.9238,2.9725,3.0191,3.0606,3.0472,3.0398,3.0398,3.0398,3.0552,3.0891,3.1448,3.2025,3.2641,3.3382,3.4075,3.4674,3.4334,3.4043,3.3815,3.4117,3.42,3.4223,3.4572,3.4694,3.4694,3.4694,3.4694,3.4694,3.4694,3.4694,3.4694,3.4694,3.4694,3.4694,3.4694,3.4908,3.5088,3.4981,3.6482,3.8243,3.9237,3.998,4.0438,4.0211,4.0175,4.0193,4.0319,4.0356,4.0389,4.0489,4.0489,4.1085,4.2835,4.3104,4.3701,4.5374,4.5586,4.5586,4.5586,4.5586,4.5586,4.5586,4.5586,4.5586,4.5586,4.5586,4.5586,4.5586,4.5586,4.5586,4.5586,4.5586,4.5586,4.5586,4.5586,4.5586,4.5586,4.5586,4.5586,2.0063,2.0923,2.162,2.274,2.3509,2.4076,2.4355,2.4607,2.4832,2.4917,2.503,2.5152,2.5274,2.5303,2.5303,2.5303,2.5303,2.5303,2.5303,2.5303,2.533,2.5415,2.5459,2.5853,2.6841,2.6948,2.7343,2.8223,2.8301,2.8301,2.8301,2.8301,2.8301,2.8301,2.8823,2.9439,3.0152,3.0028,3.0121,3.0398,3.0398,3.0398,3.0417,3.1006,3.1429,3.1737,3.2275,3.3058,3.3961,3.4049,3.3923,3.3722,3.4289,3.4492,3.4534,3.4851,3.4963,3.4963,3.4963,3.4963,3.4963,3.4963,3.4963,3.4963,3.4963,3.4963,3.4963,3.4963,3.5105,3.5299,3.5583,3.7034,3.8796,4.0162,4.0489,4.0489,4.0489,4.0489,4.0489,4.0489,4.0489,4.0489,4.0489,4.0489,4.1085,4.2835,4.3104,4.3701,4.5374,4.5586,4.5586,4.5586,4.5586,4.5586,4.5586,4.5586,4.5586,4.5586,4.5586,4.5586,4.5586,4.5586,4.5586,4.5586,4.5586,4.5586,4.5586,4.5586,4.5586,4.5586,4.5586,4.5586,0.0,0.0,0.0,2.2575,2.3015,2.3254,2.4025,2.4512,2.479,2.4804,2.5068,2.5293,2.5303,2.5303,2.5303,2.5303,2.5303,2.5303,2.5303,2.5303,2.5303,2.5293,2.5363,2.5764,2.6685,2.6812,2.7235,2.8144,2.8223,2.8223,2.8223,2.8223,2.8242,2.8262,2.8138,2.846,2.9291,2.9178,2.9544,3.0398,3.0398,3.0398,3.0398,3.0398,3.0871,3.166,3.166,3.196,3.2496,3.3408,3.3597,3.3487,3.462,3.5066,3.5102,3.5398,3.5493,3.5493,3.5493,3.5493,3.5493,3.5493,3.5493,3.5493,3.5493,3.5493,3.5493,3.5493,3.5493,3.5699,3.6526,3.8007,3.9488,4.0296,4.0489,4.0489,4.0489,4.0489,4.0489,4.0489,4.0489,4.0489,4.0489,4.0508,4.1123,4.2835,4.3124,4.372,4.5374,4.5586,4.5586,4.5586,4.5586,4.5586,4.5586,4.5586,4.5586,4.5586,4.5586,4.5586,4.5586,4.5586,4.5586,4.5586,4.5586,4.5586,4.5586,4.5586,4.5586,4.5586,4.5586,4.5586,1.9344,0.0,0.0,0.0,0.0,0.0,2.4153,2.4284,2.4444,2.4746,2.4855,2.5,2.5253,2.5303,2.5303,2.5303,2.5303,2.5303,2.5303,2.5303,2.5322,2.5379,2.5391,2.5544,2.5892,2.5947,2.6082,2.6406,2.6426,2.6426,2.6426,2.6426,2.6719,2.7344,2.7238,2.7851,2.9291,2.9178,2.9544,3.0398,3.0398,3.0398,3.0398,3.0398,3.0533,3.0756,3.0756,3.0835,3.1092,3.2348,3.2705,3.2562,3.3707,3.417,3.4279,3.5168,3.5493,3.5493,3.5493,3.5493,3.5493,3.5493,3.5493,3.5493,3.5493,3.5493,3.5493,3.5493,3.5493,3.5834,3.7276,3.8469,3.9488,4.0296,4.0489,4.0489,4.0489,4.0489,4.0489,4.0489,4.0489,4.0489,4.0489,4.1027,4.1816,4.2931,4.3605,4.4355,4.5451,4.5586,4.5586,4.5586,4.5586,4.5586,4.5586,4.5586,4.5586,4.5586,4.5586,4.5586,4.5586,4.5586,4.5586,4.5586,4.5586,4.5586,4.5586,4.5586,4.5586,4.5586,4.5586,4.5586,1.9583,2.0519,2.1437,2.2134,0.0,0.0,2.4229,2.4393,2.4526,2.4823,2.4949,2.5068,2.5264,2.5303,2.5303,2.5303,2.5303,2.5303,2.5303,2.5303,2.5313,2.5354,2.5354,2.5398,2.5517,2.5547,2.5595,2.5659,2.5683,2.5703,2.5703,2.5703,2.5937,2.6445,2.6356,2.6928,2.824,2.8507,2.906,2.9871,3.0237,3.0398,3.0398,3.0398,3.0398,3.0398,3.0398,3.0398,3.0456,3.1282,3.1741,3.2029,3.3028,3.3647,3.4044,3.4716,3.5199,3.5493,3.5493,3.5493,3.5493,3.5493,3.5493,3.5493,3.5493,3.5493,3.5493,3.5493,3.5738,3.6315,3.7642,3.8642,3.9488,4.0296,4.0489,4.0489,4.0489,4.0489,4.0489,4.0489,4.0489,4.0489,4.0489,4.1219,4.2104,4.297,4.3778,4.4605,4.549,4.5586,4.5586,4.5586,4.5586,4.5586,4.5586,4.5586,4.5586,4.5586,4.5586,4.5586,4.5586,4.5586,4.5586,4.5586,4.5586,4.5586,4.5586,4.5586,4.5586,4.5586,4.5586,4.5586,2.0464,2.0704,2.1126,2.263,2.307,0.0,2.4261,2.4626,2.4752,2.481,2.4943,2.5098,2.5129,2.5139,2.5178,2.5284,2.5303,2.5303,2.5303,2.5303,2.5303,2.5303,2.5303,2.5321,2.5379,2.544,2.5526,2.5598,2.5661,2.5703,2.5703,2.5703,2.5703,2.5703,2.5634,2.599,2.6801,2.7489,2.826,2.9102,2.989,3.0314,3.0398,3.0398,3.0398,3.0398,3.0398,3.0398,3.0398,3.0398,3.0871,3.1641,3.2449,3.3295,3.4064,3.416,3.4757,3.5493,3.5493,3.5493,3.5493,3.5493,3.5493,3.5493,3.5493,3.5493,3.5493,3.5493,3.6084,3.6911,3.7777,3.8642,3.9488,4.0296,4.0489,4.0489,4.0489,4.0489,4.0489,4.0489,4.0489,4.0489,4.0489,4.1296,4.222,4.2989,4.3874,4.472,4.549,4.5586,4.5586,4.5586,4.5586,4.5586,4.5586,4.5586,4.5586,4.5586,4.5586,4.5586,4.5586,4.5586,4.5586,4.5586,4.5586,4.5586,4.5586,4.5586,4.5586,4.5586,4.5586,4.5586,2.1492,2.2024,2.2575,2.2905,2.3492,0.0,2.421,2.4284,2.419,2.3733,2.366,2.3771,2.403,2.4105,2.4356,2.5178,2.5303,2.5303,2.5303,2.5303,2.5303,2.5303,2.5303,2.534,2.5391,2.5408,2.5463,2.5598,2.5661,2.5703,2.5703,2.5703,2.5703,2.5703,2.5634,2.599,2.6801,2.6895,2.7681,2.9102,2.9275,2.9717,3.0398,3.0398,3.0398,3.0398,3.0398,3.0398,3.0398,3.0398,3.0494,3.0737,3.1602,3.2429,3.3237,3.393,3.4757,3.5493,3.5493,3.5493,3.5493,3.5493,3.5493,3.5493,3.5493,3.5493,3.5493,3.5493,3.6084,3.6911,3.7777,3.8642,3.9488,4.0296,4.0489,4.0489,4.0489,4.0489,4.0489,4.0489,4.0489,4.0489,4.0489,4.1797,4.2893,4.3066,4.4374,4.5413,4.5566,4.5586,4.5586,4.5586,4.5586,4.5586,4.5586,4.5586,4.5586,4.5586,4.5586,4.5586,4.5586,4.5586,4.5586,4.5586,4.5586,4.5586,4.5586,4.5586,4.5586,4.5586,4.5586,4.5586,2.2391,2.2703,2.3107,2.3511,2.3896,0.0,0.0,2.4445,2.4431,2.4195,2.3909,2.3757,2.3915,2.3946,2.412,2.4611,2.5043,2.5303,2.5303,2.5303,2.5303,2.5303,2.5303,2.5313,2.5357,2.5401,2.5517,2.5636,2.5683,2.5703,2.5703,2.5703,2.5703,2.5703,2.5662,2.5822,2.6209,2.6571,2.7137,2.7904,2.8711,2.9333,2.9775,3.0198,3.0398,3.0398,3.0398,3.0398,3.0398,3.0398,3.0398,3.0436,3.0891,3.1564,3.2352,3.2795,3.3757,3.4853,3.4853,3.5141,3.5493,3.5493,3.5493,3.5493,3.5493,3.5493,3.5493,3.5493,3.5795,3.6392,3.768,3.8315,3.895,4.02,4.0489,4.0489,4.0489,4.0489,4.0489,4.0489,4.0489,4.0489,4.0489,4.1585,4.2604,4.3028,4.4162,4.5105,4.5528,4.5586,4.5586,4.5586,4.5586,4.5586,4.5586,4.5586,4.5586,4.5586,4.5586,4.5586,4.5586,4.5586,4.5586,4.5586,4.5586,4.5586,4.5586,4.5586,4.5586,4.5586,4.5586,4.5586,2.3235,2.3235,2.34,2.4043,2.4228,2.4284,0.0,0.0,0.0,2.4689,2.432,2.4005,2.4034,2.3928,2.3928,2.4274,2.4755,2.512,2.5284,2.5303,2.5303,2.5303,2.5303,2.5303,2.5303,2.5415,2.5547,2.5659,2.5683,2.5703,2.5703,2.5703,2.5703,2.5703,2.5703,2.5662,2.5601,2.6232,2.6605,2.6726,2.801,2.8794,2.9121,2.9833,3.0237,3.0398,3.0398,3.0398,3.0398,3.0398,3.0398,3.0398,3.0398,3.0929,3.1698,3.1698,3.2756,3.4199,3.4199,3.4776,3.5493,3.5493,3.5493,3.5493,3.5493,3.5493,3.5493,3.5493,3.5493,3.5892,3.7565,3.8007,3.8411,4.0085,4.0489,4.0489,4.0489,4.0489,4.0489,4.0489,4.0489,4.0489,4.0489,4.1354,4.2297,4.2989,4.3932,4.4797,4.5509,4.5586,4.5586,4.5586,4.5586,4.5586,4.5586,4.5586,4.5586,4.5586,4.5586,4.5586,4.5586,4.5586,4.5586,4.5586,4.5586,4.5586,4.5586,4.5586,4.5586,4.5586,4.5586,4.5586,2.4061,2.4061,2.408,2.4171,2.4321,2.4428,2.4266,0.0,2.4553,2.3671,0.0,2.3619,2.3793,0.0,0.0,2.4908,2.4639,2.4485,2.5187,2.5303,2.5303,2.5303,2.5303,2.5303,2.5303,2.5415,2.5517,2.5511,2.5634,2.5703,2.5703,2.5703,2.5703,2.5703,2.5703,2.5662,2.5601,2.5636,2.5995,2.6688,2.6834,2.7659,2.9102,2.9198,2.9679,3.0398,3.0398,3.0398,3.0398,3.0398,3.0398,3.0398,3.0398,3.0929,3.1698,3.1698,3.2756,3.4199,3.4199,3.4776,3.5493,3.5493,3.5493,3.5493,3.5493,3.5493,3.5493,3.5493,3.5493,3.5892,3.7565,3.8007,3.8411,4.0085,4.0489,4.0489,4.0489,4.0489,4.0489,4.0489,4.0489,4.0489,4.0489,4.1854,4.2989,4.3085,4.4432,4.549,4.5586,4.5586,4.5586,4.5586,4.5586,4.5586,4.5586,4.5586,4.5586,4.5586,4.5586,4.5586,4.5586,4.5586,4.5586,4.5586,4.5586,4.5586,4.5586,4.5586,4.5586,4.5586,4.5586,4.5586,2.419,2.419,2.419,2.419,2.4339,2.4478,2.4393,2.4666,2.4809,2.4382,0.0,0.0,0.0,0.0,0.0,0.0,2.4716,2.4755,2.462,2.5005,2.5303,2.5303,2.5303,2.5313,2.5346,2.5447,2.5526,2.5554,2.5657,2.5703,2.5703,2.5703,2.5703,2.5703,2.5703,2.5683,2.566,2.5554,2.5668,2.6003,2.6408,2.6967,2.7678,2.8659,2.9294,2.9679,3.0179,3.0398,3.0398,3.0398,3.0398,3.0398,3.0398,3.0609,3.0948,3.0948,3.2006,3.3449,3.3449,3.4353,3.5493,3.5493,3.5493,3.5493,3.5493,3.5493,3.5493,3.5493,3.5493,3.5892,3.7565,3.8007,3.8411,4.0085,4.0489,4.0489,4.0489,4.0489,4.0489,4.0489,4.0489,4.0489,4.0489,4.1527,4.2527,4.3028,4.4105,4.5028,4.5528,4.5586,4.5586,4.5586,4.5586,4.5586,4.5586,4.5586,4.5586,4.5586,4.5586,4.5586,4.5586,4.5586,4.5586,4.5586,4.5586,4.5586,4.5586,4.5586,4.5586,4.5586,4.5586,4.5586,2.419,2.419,2.4209,2.4266,2.4426,2.4575,2.4575,2.485,2.5077,2.501,2.4703,0.0,0.0,0.0,2.4168,2.4399,0.0,2.4832,2.4485,2.4736,2.4966,2.4966,2.5178,2.534,2.5391,2.5465,2.5535,2.5598,2.5661,2.5703,2.5703,2.5703,2.5703,2.5703,2.5703,2.5703,2.5703,2.5593,2.5526,2.5508,2.6014,2.6381,2.6659,2.8102,2.889,2.914,3.0025,3.0398,3.0398,3.0398,3.0398,3.0398,3.0398,3.0398,3.0398,3.0398,3.1468,3.2891,3.2891,3.4045,3.5493,3.5493,3.5493,3.5493,3.5493,3.5493,3.5493,3.5493,3.5661,3.6161,3.7623,3.818,3.8719,4.0162,4.0489,4.0489,4.0489,4.0489,4.0489,4.0489,4.0489,4.0489,4.0489,4.1412,4.2374,4.3008,4.3989,4.4874,4.5509,4.5586,4.5586,4.5586,4.5586,4.5586,4.5586,4.5586,4.5586,4.5586,4.5586,4.5586,4.5586,4.5586,4.5586,4.5586,4.5586,4.5586,4.5586,4.5586,4.5586,4.5586,4.5586,4.5586,2.419,2.419,2.4247,2.4426,2.4639,2.479,2.479,2.5056,2.5243,2.5034,2.5143,2.5264,2.5264,2.462,2.436,2.5139,2.462,0.0,0.0,2.4601,2.4149,2.4149,2.4832,2.534,2.5391,2.5465,2.5535,2.5598,2.5661,2.5703,2.5703,2.5703,2.5703,2.5703,2.5703,2.5703,2.5703,2.5634,2.5561,2.5489,2.546,2.5846,2.664,2.7525,2.8352,2.914,3.0025,3.0398,3.0398,3.0398,3.0398,3.0398,3.0398,3.0398,3.0398,3.0398,3.1468,3.2891,3.2891,3.4045,3.5493,3.5493,3.5493,3.5493,3.5493,3.5493,3.5493,3.5493,3.6065,3.6873,3.7777,3.8623,3.9469,4.0296,4.0489,4.0489,4.0489,4.0489,4.0489,4.0489,4.0489,4.0489,4.0489,4.1912,4.3066,4.3104,4.4489,4.5566,4.5586,4.5586,4.5586,4.5586,4.5586,4.5586,4.5586,4.5586,4.5586,4.5586,4.5586,4.5586,4.5586,4.5586,4.5586,4.5586,4.5586,4.5586,4.5586,4.5586,4.5586,4.5586,4.5586,4.5586,2.419,2.419,2.4209,2.4284,2.4543,2.4804,2.4804,2.5068,2.5274,2.5214,2.5253,2.5303,2.5303,2.5082,2.4986,2.5264,2.5082,2.4601,0.0,2.2908,2.2812,2.3956,2.4341,2.4752,2.534,2.5471,2.5535,2.5598,2.5661,2.5703,2.5703,2.5703,2.5703,2.5703,2.5703,2.5703,2.5703,2.5634,2.5564,2.5489,2.5434,2.5526,2.5774,2.664,2.7505,2.8352,2.9179,2.9871,3.0398,3.0398,3.0398,3.0398,3.0398,3.0428,3.0462,3.0425,3.1121,3.2256,3.3372,3.4526,3.5493,3.5493,3.5493,3.5493,3.5493,3.5493,3.5493,3.5493,3.5699,3.6238,3.7642,3.8219,3.8796,4.0162,4.0489,4.0489,4.0489,4.0489,4.0489,4.0489,4.0489,4.0489,4.0489,4.195,4.3104,4.3104,4.4047,4.4951,4.5528,4.5586,4.5586,4.5586,4.5586,4.5586,4.5586,4.5586,4.5586,4.5586,4.5586,4.5586,4.5586,4.5586,4.5586,4.5586,4.5586,4.5586,4.5586,4.5586,4.5586,4.5586,4.5586,4.5586,2.419,2.419,2.4209,2.4284,2.4512,2.4712,2.4836,2.5049,2.5184,2.5184,2.5253,2.5264,2.5138,2.5222,2.5274,2.5203,2.5253,2.4716,0.0,2.2581,2.2735,2.3552,2.3918,2.4441,2.535,2.5468,2.5543,2.5633,2.5682,2.5703,2.5703,2.5703,2.5703,2.5703,2.5703,2.5703,2.5703,2.566,2.5603,2.552,2.5477,2.5406,2.535,2.6217,2.7082,2.7928,2.8736,2.9583,3.0398,3.0398,3.0414,3.0449,3.0449,3.0472,3.0521,3.0462,3.1182,3.2347,3.3735,3.4808,3.5528,3.5501,3.5528,3.5528,3.5501,3.5493,3.5493,3.5493,3.5718,3.6257,3.7642,3.8238,3.8815,4.0181,4.0489,4.0489,4.0489,4.0489,4.0489,4.0489,4.0489,4.0489,4.0489,4.1724,4.2795,4.3063,4.4047,4.497,4.5528,4.5586,4.5586,4.5586,4.5586,4.5586,4.5586,4.5586,4.5586,4.5586,4.5586,4.5586,4.5586,4.5586,4.5586,4.5586,4.5586,4.5586,4.5586,4.5586,4.5586,4.5586,4.5586,4.5586]}]]